[[{"header":{"parameterUnit":"m.s-1","parameterCategory":1,"la1":31.0,"la2":29.5877,"lo1":-88.7671,"lo2":-86.6584,"dx":0.0162,"dy":0.0185,"nx":115,"ny":88,"refTime":"2023-01-04T18:00:00:Z","depth":0,"parameterNumber":2,"parameterNumberName":"U-component_of_WINDS"},"data":[0.0,0.0,0.0,0.0,0.0,0.0,0.0,0.0,0.0,0.0,0.0,0.0,0.0,0.0,0.0,0.0,0.0,0.0,0.0,0.0,0.0,0.0,0.0,0.0,0.0,0.0,0.0,0.0,0.0,0.0,0.0,0.0,0.0,0.0,0.0,0.0,0.0,0.0,0.0,0.0,0.0,0.0,0.0,0.0,0.0,0.0,0.0,0.0,0.0,0.0,0.0,0.0,0.0,0.0,0.0,0.0,0.0,0.0,0.0,0.0,0.0,0.0,0.0,0.0,0.0,0.0,0.0,0.0,0.0,0.0,0.0,0.0,0.0,0.0,0.0,0.0,0.0,0.0,0.0,0.0,0.0,0.0,0.0,0.0,0.0,0.0,0.0,0.0,0.0,0.0,0.0,0.0,0.0,0.0,0.0,0.0,0.0,0.0,0.0,0.0,0.0,0.0,0.0,0.0,0.0,0.0,0.0,0.0,0.0,0.0,0.0,0.0,0.0,0.0,0.0,0.0,0.0,0.0,0.0,0.0,0.0,0.0,0.0,0.0,0.0,0.0,0.0,0.0,0.0,0.0,0.0,0.0,0.0,0.0,0.0,0.0,0.0,0.0,0.0,0.0,0.0,0.0,0.0,0.0,0.0,0.0,0.0,0.0,0.0,0.0,0.0,0.0,0.0,0.0,0.0,0.0,0.0,0.0,0.0,0.0,0.0,0.0,0.0,0.0,0.0,0.0,0.0,0.0,0.0,0.0,0.0,0.0,0.0,0.0,0.0,0.0,0.0,0.0,0.0,0.0,0.0,0.0,0.0,0.0,0.0,0.0,0.0,0.0,0.0,0.0,0.0,0.0,0.0,0.0,0.0,0.0,0.0,0.0,0.0,0.0,0.0,0.0,0.0,0.0,0.0,0.0,0.0,0.0,0.0,0.0,0.0,0.0,0.0,0.0,0.0,0.0,0.0,0.0,0.0,0.0,0.0,0.0,0.0,0.0,0.0,0.0,0.0,0.0,0.0,0.0,0.0,0.0,0.0,0.0,0.0,0.0,0.0,0.0,0.0,0.0,0.0,0.0,0.0,0.0,0.0,0.0,0.0,0.0,0.0,0.0,0.0,0.0,0.0,0.0,0.0,0.0,0.0,0.0,0.0,0.0,0.0,0.0,0.0,0.0,0.0,0.0,0.0,0.0,0.0,0.0,0.0,0.0,0.0,0.0,0.0,0.0,0.0,0.0,0.0,0.0,0.0,0.0,0.0,0.0,0.0,0.0,0.0,0.0,0.0,0.0,0.0,0.0,0.0,0.0,0.0,0.0,0.0,0.0,0.0,0.0,0.0,0.0,0.0,0.0,0.0,0.0,0.0,0.0,0.0,0.0,0.0,0.0,0.0,0.0,0.0,0.0,0.0,0.0,0.0,0.0,0.0,0.0,0.0,0.0,0.0,0.0,0.0,0.0,0.0,0.0,0.0,0.0,0.0,0.0,0.0,0.0,0.0,0.0,0.0,0.0,0.0,0.0,0.0,0.0,0.0,0.0,0.0,0.0,0.0,0.0,0.0,0.0,0.0,0.0,0.0,0.0,0.0,0.0,0.0,0.0,0.0,0.0,0.0,0.0,0.0,0.0,0.0,0.0,0.0,0.0,0.0,0.0,0.0,0.0,0.0,0.0,0.0,0.0,0.0,0.0,0.0,0.0,0.0,0.0,0.0,0.0,0.0,0.0,0.0,0.0,0.0,0.0,0.0,0.0,0.0,0.0,0.0,0.0,0.0,0.0,0.0,0.0,0.0,0.0,0.0,0.0,0.0,0.0,0.0,0.0,0.0,0.0,0.0,0.0,0.0,0.0,0.0,0.0,0.0,0.0,0.0,0.0,0.0,0.0,0.0,0.0,0.0,0.0,0.0,0.0,0.0,0.0,0.0,0.0,0.0,0.0,0.0,0.0,0.0,0.0,0.0,0.0,0.0,0.0,0.0,0.0,0.0,0.0,0.0,0.0,0.0,0.0,0.0,0.0,0.0,0.0,0.0,0.0,0.0,0.0,0.0,0.0,0.0,0.0,0.0,0.0,0.0,0.0,0.0,0.0,0.0,0.0,0.0,0.0,0.0,0.0,0.0,0.0,0.0,0.0,0.0,0.0,0.0,0.0,0.0,0.0,0.0,0.0,0.0,0.0,0.0,0.0,0.0,0.0,0.0,0.0,0.0,0.0,0.0,0.0,0.0,0.0,0.0,0.0,0.0,0.0,0.0,0.0,0.0,0.0,0.0,0.0,0.0,0.0,0.0,0.0,0.0,0.0,0.0,0.0,0.0,0.0,0.0,0.0,0.0,0.0,0.0,0.0,0.0,0.0,0.0,0.0,0.0,0.0,0.0,0.0,0.0,0.0,0.0,0.0,0.0,0.0,0.0,0.0,0.0,0.0,0.0,0.0,0.0,0.0,0.0,0.0,0.0,0.0,0.0,0.0,0.0,0.0,0.0,0.0,0.0,0.0,0.0,0.0,0.0,0.0,0.0,0.0,0.0,0.0,0.0,0.0,0.0,0.0,0.0,0.0,0.0,0.0,0.0,0.0,0.0,0.0,0.0,0.0,0.0,0.0,0.0,0.0,0.0,0.0,0.0,0.0,0.0,0.0,0.0,0.0,0.0,0.0,0.0,0.0,0.0,0.0,0.0,0.0,0.0,0.0,0.0,0.0,0.0,0.0,0.0,0.0,0.0,0.0,0.0,0.0,0.0,0.0,0.0,0.0,0.0,0.0,0.0,0.0,0.0,0.0,0.0,0.0,0.0,0.0,0.0,0.0,0.0,0.0,0.0,0.0,0.0,0.0,0.0,0.0,0.0,0.0,0.0,0.0,0.0,0.0,0.0,0.0,0.0,0.0,0.0,0.0,0.0,0.0,0.0,0.0,0.0,0.0,0.0,0.0,0.0,0.0,0.0,0.0,0.0,0.0,0.0,0.0,0.0,0.0,0.0,0.0,0.0,0.0,0.0,0.0,0.0,0.0,0.0,0.0,0.0,0.0,0.0,0.0,0.0,0.0,0.0,0.0,0.0,0.0,0.0,0.0,0.0,0.0,0.0,0.0,0.0,0.0,0.0,0.0,0.0,0.0,0.0,0.0,0.0,0.0,0.0,0.0,0.0,0.0,0.0,0.0,0.0,0.0,0.0,0.0,0.0,0.0,0.0,0.0,0.0,0.0,0.0,0.0,0.0,0.0,0.0,0.0,0.0,0.0,0.0,0.0,0.0,0.0,0.0,0.0,0.0,0.0,0.0,0.0,0.0,0.0,0.0,0.0,0.0,0.0,0.0,0.0,0.0,0.0,0.0,0.0,0.0,0.0,0.0,0.0,0.0,0.0,0.0,0.0,0.0,0.0,0.0,0.0,0.0,0.0,0.0,0.0,0.0,0.0,0.0,0.0,0.0,0.0,0.0,0.0,0.0,0.0,0.0,0.0,0.0,0.0,0.0,0.0,0.0,0.0,0.0,0.0,0.0,0.0,0.0,0.0,0.0,0.0,0.0,0.0,0.0,0.0,0.0,0.0,0.0,0.0,0.0,0.0,0.0,0.0,0.0,0.0,0.0,0.0,0.0,0.0,0.0,0.0,0.0,0.0,0.0,0.0,0.0,0.0,0.0,0.0,0.0,0.0,0.0,0.0,0.0,0.0,0.0,0.0,0.0,0.0,0.0,0.0,0.0,0.0,0.0,0.0,0.0,0.0,0.0,0.0,0.0,0.0,0.0,0.0,0.0,0.0,0.0,0.0,0.0,0.0,0.0,0.0,0.0,0.0,0.0,0.0,0.0,0.0,0.0,0.0,0.0,0.0,0.0,0.0,0.0,0.0,0.0,0.0,0.0,0.0,0.0,0.0,0.0,0.0,0.0,0.0,0.0,0.0,0.0,0.0,0.0,0.0,0.0,0.0,0.0,0.0,0.0,0.0,0.0,0.0,0.0,0.0,0.0,0.0,0.0,0.0,0.0,0.0,0.0,0.0,0.0,0.0,0.0,0.0,0.0,0.0,0.0,0.0,0.0,0.0,0.0,0.0,0.0,0.0,0.0,0.0,0.0,0.0,0.0,0.0,0.0,0.0,0.0,0.0,0.0,0.0,0.0,0.0,0.0,0.0,0.0,0.0,0.0,0.0,0.0,0.0,0.0,0.0,0.0,0.0,0.0,0.0,0.0,0.0,0.0,0.0,0.0,0.0,0.0,0.0,0.0,0.0,0.0,0.0,0.0,0.0,0.0,0.0,0.0,0.0,-0.5227,0.0,0.0,0.0,-0.61,0.0,0.0,0.0,0.0,0.0,0.0,0.0,0.0,0.0,0.0,0.0,0.0,0.0,0.0,0.0,0.0,0.0,0.0,0.0,0.0,0.0,0.0,0.0,0.0,0.0,0.0,0.0,0.0,0.0,0.0,0.0,0.0,0.0,0.0,0.0,0.0,0.0,0.0,0.0,0.0,0.0,0.0,0.0,0.0,0.0,0.0,0.0,0.0,0.0,0.0,0.0,0.0,0.0,0.0,0.0,0.0,0.0,0.0,0.0,0.0,0.0,0.0,0.0,0.0,0.0,0.0,0.0,0.0,0.0,0.0,0.0,0.0,0.0,0.0,0.0,0.0,0.0,0.0,0.0,0.0,0.0,0.0,0.0,0.0,0.0,0.0,0.0,0.0,0.0,0.0,0.0,0.0,0.0,0.0,0.0,0.0,0.0,0.0,0.0,0.0,0.0,0.0,0.0,0.0,0.0,0.0,0.0,0.0,0.0,0.0,-0.544,-0.5146,-0.5965,-0.6209,-0.5709,0.0,0.0,0.0,0.0,0.0,0.0,0.0,0.0,0.0,0.0,0.0,0.0,0.0,0.0,0.0,0.0,0.0,0.0,0.0,0.0,0.0,0.0,0.0,0.0,0.0,0.0,0.0,0.0,0.0,0.0,0.0,0.0,0.0,0.0,0.0,0.0,0.0,0.0,0.0,0.0,0.0,0.0,0.0,0.0,0.0,0.0,0.0,0.0,0.0,0.0,0.0,0.0,0.0,0.0,0.0,0.0,0.0,0.0,0.0,0.0,0.0,0.0,0.0,0.0,0.0,0.0,0.0,0.0,0.0,0.0,0.0,0.0,0.0,0.0,0.0,0.0,0.0,0.0,0.0,0.0,0.0,0.0,0.0,0.0,0.0,0.0,0.0,0.0,0.0,0.0,0.0,0.0,0.0,0.0,0.0,0.0,0.0,0.0,0.0,0.0,0.0,0.0,0.0,0.0,0.0,0.0,0.0,0.0,0.0,0.0,0.0,0.0,-0.6415,-0.6337,-0.5161,0.0,0.0,0.0,0.0,0.0,0.0,0.0,0.0,0.0,0.0,0.0,0.0,0.0,0.0,0.0,0.0,0.0,0.0,0.0,0.0,0.0,0.0,0.0,0.0,0.0,0.0,0.0,0.0,0.0,0.0,0.0,0.0,0.0,0.0,0.0,0.0,0.0,0.0,0.0,0.0,0.0,0.0,0.0,0.0,0.0,0.0,0.0,0.0,0.0,0.0,0.0,0.0,0.0,0.0,0.0,0.0,0.0,0.0,0.0,0.0,0.0,0.0,0.0,0.0,0.0,0.0,0.0,0.0,0.0,0.0,0.0,0.0,0.0,0.0,0.0,0.0,0.0,0.0,0.0,0.0,0.0,0.0,0.0,0.0,0.0,0.0,0.0,0.0,0.0,0.0,0.0,0.0,0.0,0.0,0.0,0.0,0.0,0.0,0.0,0.0,0.0,0.0,0.0,0.0,0.0,0.0,0.0,0.0,0.0,0.0,-0.563,-0.6632,-0.6993,0.0,-0.5209,0.0,0.0,0.0,0.0,0.0,0.0,0.0,0.0,0.0,0.0,0.0,0.0,0.0,0.0,0.0,0.0,0.0,0.0,0.0,0.0,0.0,0.0,0.0,0.0,0.0,0.0,0.0,0.0,0.0,0.0,0.0,0.0,0.0,0.0,0.0,0.0,0.0,0.0,0.0,0.0,0.0,0.0,0.0,0.0,0.0,0.0,0.0,0.0,0.0,0.0,0.0,0.0,0.0,0.0,0.0,0.0,0.0,0.0,0.0,0.0,0.0,0.0,0.0,0.0,0.0,0.0,0.0,0.0,0.0,0.0,0.0,0.0,0.0,0.0,0.0,0.0,0.0,0.0,0.0,0.0,0.0,0.0,0.0,0.0,0.0,0.0,0.0,0.0,0.0,0.0,0.0,0.0,0.0,0.0,0.0,0.0,0.0,0.0,0.0,0.0,0.0,0.0,0.0,0.0,0.0,0.0,0.0,0.0,0.0,0.0,-0.6404,-0.7481,-0.8081,-0.8252,0.0,0.0,0.0,0.0,0.0,0.0,0.0,0.0,0.0,0.0,0.0,0.0,0.0,0.0,0.0,0.0,0.0,0.0,0.0,0.0,0.0,0.0,0.0,0.0,0.0,0.0,0.0,0.0,0.0,0.0,0.0,0.0,0.0,0.0,0.0,0.0,0.0,0.0,0.0,0.0,0.0,0.0,0.0,0.0,0.0,0.0,0.0,0.0,0.0,0.0,0.0,0.0,0.0,0.0,0.0,0.0,0.0,0.0,0.0,0.0,0.0,0.0,0.0,0.0,0.0,0.0,0.0,0.0,0.0,0.0,0.0,0.0,0.0,0.0,0.0,0.0,0.0,0.0,0.0,0.0,0.0,0.0,0.0,0.0,0.0,0.0,0.0,0.0,0.0,0.0,0.0,0.0,0.0,0.0,0.0,0.0,0.0,0.0,0.0,0.0,0.0,0.0,0.0,0.0,0.0,0.0,0.0,0.0,0.0,0.0,-0.645,-0.7205,-0.8436,-0.9093,-0.9564,-0.9886,0.0,0.0,0.0,0.0,0.0,0.0,0.0,0.0,0.0,0.0,0.0,0.0,0.0,0.0,0.0,0.0,0.0,0.0,0.0,0.0,0.0,0.0,0.0,0.0,0.0,0.0,0.0,0.0,0.0,0.0,0.0,0.0,0.0,0.0,0.0,0.0,0.0,0.0,0.0,0.0,0.0,0.0,0.0,0.0,0.0,0.0,0.0,0.0,0.0,0.0,0.0,0.0,0.0,0.0,0.0,0.0,0.0,0.0,0.0,0.0,0.0,0.0,0.0,0.0,0.0,0.0,0.0,0.0,0.0,0.0,0.0,0.0,0.0,0.0,0.0,0.0,0.0,0.0,0.0,0.0,0.0,0.0,0.0,0.0,0.0,0.0,0.0,0.0,0.0,0.0,0.0,0.0,0.0,0.0,0.0,0.0,0.0,0.0,0.0,0.0,0.0,0.0,0.0,0.0,0.0,0.0,0.0,0.0,-0.8592,-0.7659,-0.7931,-0.9672,-0.9843,-0.9895,0.0,0.0,0.0,0.0,0.0,0.0,0.0,0.0,0.0,0.0,0.0,0.0,0.0,0.0,0.0,0.0,0.0,0.0,0.0,0.0,0.0,0.0,0.0,0.0,0.0,0.0,0.0,0.0,0.0,0.0,0.0,0.0,0.0,0.0,0.0,0.0,0.0,0.0,0.0,0.0,0.0,0.0,0.0,0.0,0.0,0.0,0.0,0.0,0.0,0.0,0.0,0.0,0.0,0.0,0.0,0.0,0.0,0.0,0.0,0.0,0.0,0.0,0.0,0.0,0.0,0.0,0.0,0.0,0.0,0.0,0.0,0.0,0.0,0.0,0.0,0.0,0.0,0.0,0.0,0.0,0.0,0.0,0.0,0.0,0.0,0.0,0.0,0.0,0.0,0.0,0.0,0.0,0.0,0.0,0.0,0.0,0.0,0.0,0.0,0.0,0.0,0.0,0.0,0.0,0.0,0.0,0.0,0.0,0.0,-0.6463,-0.7421,-0.8999,-1.1136,-1.056,-1.0413,0.0,0.0,0.0,0.0,0.0,0.0,0.0,0.0,0.0,0.0,0.0,0.0,0.0,0.0,0.0,0.0,0.0,0.0,0.0,0.0,0.0,0.0,0.0,0.0,0.0,0.0,0.0,0.0,0.0,0.0,0.0,0.0,0.0,0.0,0.0,0.0,0.0,0.0,0.0,0.0,0.0,0.0,0.0,0.0,0.0,0.0,0.0,0.0,0.0,0.0,0.0,0.0,0.0,0.0,0.0,0.0,0.0,0.0,0.0,0.0,0.0,0.0,0.0,0.0,0.0,0.0,0.0,0.0,0.0,0.0,0.0,0.0,0.0,0.0,0.0,0.0,0.0,0.0,0.0,0.0,0.0,0.0,0.0,0.0,0.0,0.0,0.0,0.0,0.0,0.0,0.0,0.0,0.0,0.0,0.0,0.0,0.0,0.0,0.0,0.0,0.0,0.0,0.0,0.0,0.0,0.0,0.0,0.0,0.0,-0.6362,-0.8496,-1.0251,-1.1407,-1.0712,-1.0248,0.0,0.0,0.0,0.0,0.0,0.0,0.0,0.0,0.0,0.0,0.0,0.0,0.0,0.0,0.0,0.0,0.0,0.0,0.0,0.0,0.0,0.0,0.0,0.0,0.0,0.0,0.0,0.0,0.0,0.0,0.0,0.0,0.0,0.0,0.0,0.0,0.0,0.0,0.0,0.0,0.0,0.0,0.0,0.0,0.0,0.0,0.0,0.0,0.0,0.0,0.0,0.0,0.0,0.0,0.0,0.0,0.0,0.0,0.0,0.0,0.0,0.0,0.0,0.0,0.0,0.0,0.0,0.0,0.0,0.0,0.0,0.0,0.0,0.0,0.0,0.0,0.0,0.0,0.0,0.0,0.0,0.0,0.0,0.0,0.0,0.0,0.0,0.0,0.0,0.0,0.0,0.0,0.0,0.0,0.0,0.0,0.0,0.0,0.0,0.0,0.0,0.0,0.0,0.0,0.0,0.0,0.0,0.0,-0.5833,-0.8795,-1.0925,-1.1483,-1.0484,-1.0281,-0.9298,0.0,0.0,0.0,0.0,0.0,0.0,0.0,0.0,0.0,0.0,0.0,0.0,0.0,0.0,0.0,0.0,0.0,0.0,0.0,0.0,0.0,0.0,0.0,0.0,0.0,0.0,0.0,0.0,0.0,0.0,0.0,0.0,0.0,0.0,0.0,0.0,0.0,0.0,0.0,0.0,0.0,0.0,0.0,0.0,0.0,0.0,0.0,0.0,0.0,0.0,0.0,0.0,0.0,0.0,0.0,0.0,0.0,0.0,0.0,0.0,0.0,0.0,0.0,0.0,0.0,0.0,0.0,0.0,0.0,0.0,0.0,0.0,0.0,0.0,0.0,0.0,0.0,0.0,0.0,0.0,0.0,0.0,0.0,0.0,0.0,0.0,0.0,0.0,0.0,0.0,0.0,0.0,0.0,0.0,0.0,0.0,0.0,0.0,0.0,0.0,0.0,0.0,0.0,0.0,0.0,0.0,0.0,0.0,0.0,-0.6701,-0.904,-1.0871,-1.2001,-1.0243,-1.0026,0.0,0.0,0.0,0.0,0.0,0.0,0.0,0.0,0.0,0.0,0.0,0.0,0.0,0.0,0.0,0.0,0.0,0.0,0.0,0.0,0.0,0.0,0.0,0.0,0.0,0.0,0.0,0.0,0.0,0.0,0.0,0.0,0.0,0.0,0.0,0.0,0.0,0.0,0.0,0.0,0.0,0.0,0.0,0.0,0.0,0.0,0.0,0.0,0.0,0.0,0.0,0.0,0.0,0.0,0.0,0.0,0.0,0.0,0.0,0.0,0.0,0.0,0.0,0.0,0.0,0.0,0.0,0.0,0.0,0.0,0.0,0.0,0.0,0.0,0.0,0.0,0.0,0.0,0.0,0.0,0.0,0.0,0.0,0.0,0.0,0.0,0.0,0.0,0.0,0.0,0.0,0.0,0.0,0.0,0.0,0.0,0.0,0.0,0.0,0.0,0.0,0.0,0.0,0.0,0.0,0.0,0.0,0.0,0.0,-0.7744,-0.9929,-1.1744,-1.2923,-1.0911,-1.0267,-1.1202,0.0,0.0,0.0,0.0,0.0,0.0,0.0,0.0,0.0,0.0,0.0,0.0,0.0,0.0,0.0,0.0,0.0,0.0,0.0,0.0,0.0,0.0,0.0,0.0,0.0,0.0,0.0,0.0,0.0,0.0,0.0,0.0,0.0,0.0,0.0,0.0,0.0,0.0,0.0,0.0,0.0,0.0,0.0,0.0,0.0,0.0,0.0,0.0,0.0,0.0,0.0,0.0,0.0,0.0,0.0,0.0,0.0,0.0,0.0,0.0,0.0,0.0,0.0,0.0,0.0,0.0,0.0,0.0,0.0,0.0,0.0,0.0,0.0,0.0,0.0,0.0,0.0,0.0,0.0,0.0,0.0,0.0,0.0,0.0,0.0,0.0,0.0,0.0,0.0,0.0,0.0,0.0,0.0,0.0,0.0,0.0,0.0,0.0,0.0,0.0,0.0,0.0,0.0,0.0,0.0,0.0,0.0,0.0,-1.1135,-1.3051,-1.3801,-1.326,-1.2083,-1.0239,0.0,0.0,0.0,0.0,0.0,0.0,0.0,0.0,0.0,0.0,0.0,0.0,0.0,0.0,0.0,0.0,0.0,0.0,0.0,0.0,0.0,0.0,0.0,0.0,0.0,0.0,0.0,0.0,0.0,0.0,0.0,0.0,0.0,0.0,0.0,0.0,0.0,0.0,0.0,0.0,0.0,0.0,0.0,0.0,0.0,0.0,0.0,0.0,0.0,0.0,0.0,0.0,0.0,0.0,0.0,0.0,0.0,0.0,0.0,0.0,0.0,0.0,0.0,0.0,0.0,0.0,0.0,0.0,0.0,0.0,0.0,0.0,0.0,0.0,0.0,0.0,0.0,0.0,0.0,0.0,0.0,0.0,0.0,0.0,0.0,0.0,0.0,0.0,0.0,0.0,0.0,0.0,0.0,0.0,0.0,0.0,0.0,0.0,0.0,0.0,0.0,0.0,0.0,0.0,0.0,0.0,0.0,0.0,0.0,-1.2748,-1.3676,-1.4321,-1.4683,-1.2637,-1.138,0.0,0.0,0.0,0.0,0.0,0.0,0.0,0.0,0.0,0.0,0.0,0.0,0.0,0.0,0.0,0.0,0.0,0.0,0.0,0.0,0.0,0.0,0.0,0.0,0.0,0.0,0.0,0.0,0.0,0.0,0.0,0.0,0.0,0.0,0.0,0.0,0.0,0.0,0.0,0.0,0.0,0.0,0.0,0.0,0.0,0.0,0.0,0.0,0.0,0.0,0.0,0.0,0.0,0.0,0.0,0.0,0.0,0.0,0.0,0.0,0.0,0.0,0.0,0.0,0.0,0.0,0.0,0.0,0.0,0.0,0.0,0.0,0.0,0.0,0.0,0.0,0.0,0.0,0.0,0.0,0.0,0.0,0.0,0.0,0.0,0.0,0.0,0.0,0.0,0.0,0.0,0.0,0.0,0.0,0.0,0.0,0.0,0.0,0.0,0.0,0.0,0.0,0.0,0.0,0.0,0.0,0.0,0.0,-1.4601,-1.4096,-1.4807,-1.5582,-1.6297,-1.3674,-1.2204,0.0,0.0,0.0,0.0,0.0,0.0,0.0,0.0,0.0,0.0,0.0,0.0,0.0,0.0,0.0,0.0,0.0,0.0,0.0,0.0,0.0,0.0,0.0,0.0,0.0,0.0,0.0,0.0,0.0,0.0,0.0,0.0,0.0,0.0,0.0,0.0,0.0,0.0,0.0,0.0,0.0,0.0,0.0,0.0,0.0,0.0,0.0,0.0,0.0,0.0,0.0,0.0,0.0,0.0,0.0,0.0,0.0,0.0,0.0,0.0,0.0,0.0,0.0,0.0,0.0,0.0,0.0,0.0,0.0,0.0,0.0,0.0,0.0,0.0,0.0,0.0,0.0,0.0,0.0,0.0,0.0,0.0,0.0,0.0,0.0,0.0,0.0,0.0,0.0,0.0,0.0,0.0,0.0,0.0,0.0,0.0,0.0,0.0,0.0,0.0,0.0,0.0,0.0,0.0,0.0,0.0,0.0,0.0,-1.5196,-1.5313,-1.6104,-1.6931,-1.7667,-1.4951,-1.3045,0.0,0.0,0.0,0.0,0.0,0.0,0.0,0.0,0.0,0.0,0.0,0.0,0.0,0.0,0.0,0.0,0.0,0.0,0.0,0.0,0.0,0.0,0.0,0.0,0.0,0.0,0.0,0.0,0.0,0.0,0.0,0.0,0.0,0.0,0.0,0.0,0.0,0.0,0.0,0.0,0.0,0.0,0.0,0.0,0.0,0.0,0.0,0.0,0.0,0.0,0.0,0.0,0.0,0.0,0.0,0.0,0.0,0.0,0.0,0.0,0.0,0.0,0.0,0.0,0.0,0.0,0.0,0.0,0.0,0.0,0.0,0.0,0.0,0.0,0.0,0.0,0.0,0.0,0.0,0.0,0.0,0.0,0.0,0.0,0.0,0.0,0.0,0.0,0.0,0.0,0.0,0.0,0.0,0.0,0.0,0.0,0.0,0.0,0.0,0.0,0.0,0.0,0.0,0.0,0.0,0.0,0.0,0.0,-1.4546,-1.6622,-1.6287,-1.6795,-1.826,-1.5624,-1.4625,0.0,0.0,0.0,0.0,0.0,0.0,0.0,0.0,0.0,0.0,0.0,0.0,0.0,0.0,0.0,0.0,0.0,0.0,0.0,0.0,0.0,0.0,0.0,0.0,0.0,0.0,0.0,0.0,0.0,0.0,0.0,0.0,0.0,0.0,0.0,0.0,0.0,0.0,0.0,0.0,0.0,0.0,0.0,0.0,0.0,0.0,0.0,0.0,-0.301,0.0,0.0,0.0,0.0,0.0,0.0,0.0,0.0,0.0,0.0,0.0,0.0,0.0,0.0,0.0,0.0,0.0,0.0,0.0,0.0,0.0,0.0,0.0,0.0,0.0,0.0,0.0,0.0,0.0,0.0,0.0,0.0,0.0,0.0,0.0,0.0,0.0,0.0,0.0,0.0,0.0,0.0,0.0,0.0,0.0,0.0,0.0,0.0,0.0,0.0,0.0,0.0,0.0,0.0,0.0,0.0,0.0,0.0,0.0,-1.5255,-1.6347,-1.6736,-1.7503,-1.8555,-1.7037,-1.6371,0.0,0.0,0.0,0.0,0.0,0.0,0.0,0.0,0.0,0.0,0.0,0.0,0.0,0.0,0.0,0.0,0.0,0.0,0.0,0.0,0.0,0.0,0.0,0.0,0.0,0.0,0.0,0.0,0.0,0.0,0.0,0.0,0.0,0.0,0.0,0.0,0.0,0.0,0.0,0.0,0.0,0.0,0.0,0.0,0.0,0.0,0.0,0.0,0.0,0.0,0.0,0.0,0.0,0.0,0.0,0.0,0.0,0.0,0.0,0.0,0.0,0.0,0.0,0.0,0.0,0.0,0.0,0.0,0.0,0.0,0.0,0.0,0.0,0.0,0.0,0.0,0.0,0.0,0.0,0.0,0.0,0.0,0.0,0.0,0.0,0.0,0.0,0.0,0.0,0.0,0.0,0.0,0.0,0.0,0.0,0.0,0.0,0.0,0.0,0.0,0.0,0.0,0.0,0.0,0.0,0.0,0.0,-1.4778,-1.6425,-1.5911,-1.7287,-1.8355,-1.8989,-1.8629,-1.7955,-1.7017,0.0,0.0,0.0,0.0,0.0,0.0,0.0,0.0,0.0,0.0,0.0,0.0,0.0,0.0,0.0,0.0,0.0,0.0,0.0,0.0,0.0,0.0,0.0,0.0,0.0,0.0,0.0,0.0,0.0,0.0,0.0,0.0,0.0,0.0,0.0,0.0,0.0,0.0,-0.3171,-0.3263,0.0,0.0,0.0,0.0,0.0,0.0,0.0,0.0,-0.2917,0.0,0.0,0.0,0.0,0.0,0.0,0.0,0.0,0.0,0.0,0.0,0.0,0.0,0.0,0.0,0.0,0.0,0.0,0.0,0.0,0.0,0.0,0.0,0.0,0.0,0.0,0.0,0.0,0.0,0.0,0.0,0.0,0.0,0.0,0.0,0.0,0.0,0.0,0.0,0.0,0.0,0.0,0.0,0.0,0.0,0.0,0.0,0.0,0.0,0.0,0.0,0.0,0.0,0.0,0.0,0.0,-1.3445,-1.5616,-1.6874,-1.7154,-1.7389,-1.8185,-1.9441,-1.9471,-1.8963,-1.7879,0.0,0.0,0.0,0.0,0.0,0.0,0.0,0.0,0.0,0.0,0.0,0.0,0.0,0.0,0.0,0.0,0.0,0.0,0.0,0.0,0.0,0.0,0.0,0.0,0.0,0.0,0.0,0.0,0.0,0.0,0.0,0.0,0.0,0.0,0.0,0.0,0.0,0.0,0.0,-0.401,-0.4473,0.0,0.0,0.0,0.0,0.0,0.0,0.0,0.0,-0.2191,0.0,0.0,0.0,0.0,0.0,0.0,0.0,0.0,0.0,0.0,0.0,0.0,0.0,0.0,0.0,0.0,0.0,0.0,0.0,0.0,0.0,0.0,0.0,0.0,0.0,0.0,0.0,0.0,0.0,0.0,0.0,0.0,0.0,0.0,0.0,0.0,0.0,0.0,0.0,0.0,0.0,0.0,0.0,0.0,0.0,0.0,0.0,0.0,0.0,0.0,0.0,0.0,0.0,0.0,0.0,-1.3428,-1.5726,-1.7092,-1.747,-1.7904,-1.8581,-1.9576,-2.0126,-1.9979,0.0,0.0,0.0,0.0,0.0,0.0,0.0,0.0,0.0,0.0,0.0,0.0,0.0,0.0,0.0,0.0,0.0,0.0,0.0,0.0,0.0,0.0,0.0,0.0,0.0,0.0,0.0,0.0,0.0,0.0,0.0,0.0,0.0,0.0,0.0,0.0,0.0,0.0,0.0,0.0,-0.5024,-0.4945,-0.5366,0.0,0.0,0.0,0.0,0.0,0.0,-0.2835,-0.2551,0.0,0.0,0.0,0.0,0.0,0.0,0.0,0.0,0.0,0.0,0.0,0.0,0.0,0.0,0.0,0.0,0.0,0.0,0.0,0.0,0.0,0.0,0.0,0.0,0.0,0.0,0.0,0.0,0.0,0.0,0.0,0.0,0.0,0.0,0.0,0.0,0.0,0.0,0.0,0.0,0.0,0.0,0.0,0.0,0.0,0.0,0.0,0.0,0.0,0.0,0.0,0.0,0.0,0.0,0.0,-1.2929,-1.5611,-1.706,-1.7307,-1.8185,-1.8875,-1.9407,-2.0339,-2.0569,0.0,0.0,0.0,0.0,0.0,0.0,0.0,0.0,0.0,0.0,0.0,0.0,0.0,0.0,0.0,0.0,0.0,0.0,0.0,0.0,0.0,0.0,0.0,0.0,0.0,0.0,0.0,0.0,0.0,0.0,0.0,0.0,0.0,0.0,0.0,0.0,0.0,0.0,0.0,0.0,0.0,-0.5327,-0.5535,-0.4948,0.0,0.0,0.0,0.0,-0.3544,-0.3286,0.0,0.0,0.0,0.0,0.0,0.0,0.0,0.0,0.0,0.0,0.0,0.0,0.0,0.0,0.0,0.0,0.0,0.0,0.0,0.0,0.0,0.0,0.0,0.0,0.0,0.0,0.0,0.0,0.0,0.0,0.0,0.0,0.0,0.0,0.0,0.0,0.0,0.0,0.0,0.0,0.0,0.0,0.0,0.0,0.0,0.0,0.0,0.0,0.0,0.0,0.0,0.0,0.0,0.0,0.0,0.0,-1.2921,-1.5305,-1.6668,-1.692,-1.7649,-1.8347,-1.8885,-1.9153,-2.012,0.0,0.0,0.0,0.0,0.0,0.0,0.0,0.0,0.0,0.0,0.0,0.0,0.0,0.0,0.0,0.0,0.0,0.0,0.0,0.0,0.0,0.0,0.0,0.0,0.0,0.0,0.0,0.0,0.0,0.0,0.0,0.0,0.0,0.0,0.0,0.0,0.0,0.0,0.0,0.0,0.0,-0.6289,-0.6206,-0.5678,-0.4998,0.0,0.0,-0.3783,-0.4435,-0.3878,0.0,0.0,0.0,0.0,0.0,0.0,0.0,0.0,0.0,0.0,0.0,0.0,0.0,0.0,0.0,0.0,0.0,0.0,0.0,0.0,0.0,0.0,0.0,0.0,0.0,0.0,0.0,0.0,0.0,0.0,0.0,0.0,0.0,0.0,0.0,0.0,0.0,0.0,0.0,0.0,0.0,0.0,0.0,0.0,0.0,0.0,0.0,0.0,0.0,0.0,0.0,0.0,0.0,0.0,0.0,-1.1889,-1.3321,-1.5359,-1.6869,-1.783,-1.8209,-1.8782,-1.9504,-1.8824,-1.9167,0.0,0.0,0.0,0.0,0.0,0.0,0.0,0.0,0.0,0.0,0.0,0.0,0.0,0.0,0.0,0.0,0.0,0.0,0.0,0.0,0.0,0.0,0.0,0.0,0.0,0.0,0.0,0.0,0.0,0.0,0.0,0.0,0.0,0.0,0.0,0.0,0.0,0.0,0.0,0.0,0.0,0.0,-0.5797,-0.5567,0.0,0.0,0.0,-0.51,-0.5106,0.0,0.0,0.0,0.0,0.0,0.0,0.0,0.0,0.0,0.0,0.0,0.0,0.0,0.0,0.0,0.0,0.0,0.0,0.0,0.0,0.0,0.0,0.0,0.0,0.0,0.0,0.0,0.0,0.0,0.0,0.0,0.0,0.0,0.0,0.0,0.0,0.0,0.0,0.0,0.0,0.0,0.0,0.0,0.0,0.0,0.0,0.0,0.0,0.0,0.0,0.0,0.0,0.0,0.0,0.0,0.0,0.0,-1.3232,-1.5187,-1.6797,-1.7963,-1.8331,-1.8839,-1.9558,-1.8471,0.0,0.0,0.0,0.0,0.0,0.0,0.0,0.0,0.0,0.0,0.0,0.0,0.0,0.0,0.0,0.0,0.0,0.0,0.0,0.0,0.0,0.0,0.0,0.0,0.0,0.0,0.0,-0.3759,0.0,0.0,0.0,0.0,0.0,0.0,0.0,0.0,0.0,0.0,0.0,0.0,0.0,0.0,-0.587,-0.5642,-0.5653,-0.5513,0.0,0.0,-0.6314,-0.5822,-0.611,-0.6093,0.0,0.0,0.0,0.0,0.0,0.0,0.0,0.0,0.0,0.0,0.0,0.0,0.0,0.0,0.0,0.0,0.0,0.0,0.0,0.0,0.0,0.0,0.0,0.0,0.0,0.0,0.0,0.0,-0.6599,0.0,0.0,0.0,0.0,0.0,0.0,0.0,0.0,0.0,0.0,0.0,0.0,0.0,0.0,0.0,0.0,0.0,0.0,0.0,0.0,0.0,0.0,0.0,0.0,0.0,-1.0679,-1.2304,-1.4615,-1.5968,-1.6207,-1.7374,-1.8091,-1.8165,-1.7706,-1.7714,0.0,0.0,0.0,0.0,0.0,0.0,0.0,0.0,0.0,0.0,0.0,0.0,0.0,0.0,0.0,0.0,0.0,0.0,0.0,0.0,0.0,0.0,0.0,0.0,0.0,0.0,0.0,0.0,0.0,0.0,0.0,0.0,0.0,0.0,0.0,0.0,0.0,0.0,0.0,0.0,0.0,-0.6184,-0.6197,-0.6217,-0.6222,0.0,-0.6677,-0.6962,-0.6812,-0.6541,-0.6228,-0.5769,0.0,0.0,0.0,0.0,0.0,0.0,0.0,0.0,0.0,0.0,0.0,0.0,0.0,0.0,0.0,0.0,0.0,0.0,0.0,0.0,0.0,0.0,0.0,0.0,0.0,-0.6599,-0.6599,0.0,-0.6599,0.0,0.0,0.0,0.0,0.0,0.0,0.0,0.0,0.0,0.0,0.0,0.0,0.0,0.0,0.0,0.0,0.0,0.0,0.0,0.0,0.0,0.0,0.0,0.0,-1.1036,-1.2184,-1.4463,-1.5971,-1.6826,-1.7932,-1.862,-1.8757,-1.8687,-1.818,0.0,0.0,0.0,0.0,0.0,0.0,0.0,0.0,0.0,0.0,0.0,0.0,0.0,0.0,0.0,0.0,0.0,0.0,0.0,0.0,0.0,0.0,0.0,0.0,0.0,0.0,0.0,0.0,-0.6072,-0.6166,-0.5425,0.0,0.0,0.0,0.0,0.0,0.0,0.0,0.0,0.0,0.0,-0.6615,-0.6746,-0.6794,0.0,0.0,-0.7326,-0.7541,-0.7111,-0.6731,-0.6468,-0.6158,-0.5554,0.0,0.0,0.0,0.0,0.0,0.0,0.0,0.0,0.0,0.0,0.0,0.0,0.0,0.0,0.0,0.0,0.0,0.0,0.0,0.0,0.0,0.0,0.0,0.0,0.0,0.0,0.0,0.0,0.0,0.0,0.0,0.0,0.0,0.0,0.0,0.0,0.0,0.0,0.0,0.0,0.0,0.0,0.0,0.0,0.0,0.0,0.0,0.0,0.0,0.0,0.0,0.0,-1.1064,-1.1817,-1.4077,-1.5679,-1.6474,-1.7658,-1.8425,-1.8656,-1.8708,-1.8304,-1.7233,0.0,0.0,0.0,0.0,0.0,0.0,0.0,0.0,0.0,0.0,0.0,0.0,0.0,0.0,0.0,0.0,0.0,0.0,0.0,0.0,0.0,0.0,0.0,0.0,0.0,0.0,0.0,-0.6657,-0.6623,-0.5671,0.0,0.0,0.0,0.0,0.0,0.0,0.0,0.0,0.0,0.0,-0.6568,-0.6984,-0.7198,-0.7394,-0.7348,-0.7476,-0.7473,-0.7138,-0.6976,-0.677,-0.6386,0.0,0.0,0.0,0.0,0.0,0.0,0.0,0.0,0.0,0.0,0.0,0.0,0.0,0.0,0.0,0.0,0.0,0.0,0.0,0.0,0.0,0.0,0.0,0.0,0.0,0.0,0.0,-0.623,0.0,0.0,-0.6552,0.0,0.0,0.0,0.0,0.0,0.0,0.0,0.0,0.0,0.0,0.0,0.0,0.0,0.0,0.0,0.0,0.0,0.0,0.0,0.0,0.0,0.0,-1.0374,-1.0996,-1.3467,-1.4791,-1.4735,-1.6199,-1.7123,-1.7204,-1.7434,-1.7716,-1.793,0.0,0.0,0.0,0.0,0.0,0.0,0.0,0.0,0.0,0.0,0.0,0.0,0.0,0.0,0.0,0.0,0.0,0.0,0.0,0.0,0.0,0.0,0.0,0.0,0.0,0.0,-0.4196,-0.5189,-0.5777,0.0,0.0,0.0,0.0,0.0,0.0,0.0,0.0,0.0,-0.54,-0.5627,-0.5895,-0.6699,-0.7439,-0.7785,-0.719,-0.6884,-0.6781,-0.6926,-0.717,-0.7156,0.0,0.0,0.0,0.0,0.0,0.0,0.0,0.0,0.0,0.0,0.0,0.0,0.0,0.0,0.0,0.0,0.0,0.0,0.0,0.0,0.0,0.0,0.0,0.0,0.0,0.0,0.0,-0.7796,-0.7229,0.0,0.0,0.0,0.0,0.0,0.0,0.0,0.0,0.0,0.0,0.0,-1.0036,-1.0193,0.0,0.0,0.0,0.0,0.0,0.0,0.0,0.0,0.0,0.0,0.0,0.0,-0.9699,-1.1236,-1.3005,-1.4146,-1.4581,-1.6191,-1.7033,-1.7033,-1.7582,-1.7908,-1.7997,0.0,0.0,0.0,-0.5864,0.0,0.0,0.0,0.0,0.0,0.0,0.0,0.0,0.0,0.0,0.0,0.0,0.0,0.0,0.0,0.0,0.0,0.0,0.0,0.0,0.0,-0.4613,0.0,0.0,0.0,0.0,0.0,0.0,0.0,0.0,0.0,0.0,-0.4795,-0.5385,-0.5894,-0.6322,-0.6797,-0.7305,-0.7383,-0.7506,0.0,0.0,-0.675,0.0,0.0,0.0,0.0,0.0,0.0,0.0,0.0,0.0,0.0,-0.6452,-0.4949,-0.1757,-0.0682,-0.0376,-0.0696,0.0,0.0,0.0,0.0,0.0,0.0,0.0,0.0,0.0,0.0,0.0,0.0,0.0,0.0,-0.8694,-0.8192,-0.8082,0.0,0.0,0.0,0.0,0.0,0.0,0.0,0.0,-1.1169,-1.0806,-1.1423,-1.1627,-1.1463,-1.0915,-1.0785,-1.0038,0.0,0.0,0.0,0.0,0.0,0.0,0.0,0.0,-0.9468,-1.1279,-1.256,-1.3632,-1.4615,-1.5702,-1.6278,-1.6377,-1.7151,-1.7723,-1.797,-1.7058,-1.414,0.0,0.0,0.0,0.0,0.0,0.0,0.0,0.0,0.0,0.0,0.0,0.0,0.0,0.0,0.0,0.0,0.0,0.0,0.0,0.0,0.0,0.0,0.0,-0.4711,0.0,0.0,0.0,0.0,0.0,0.0,0.0,0.0,0.0,-0.464,-0.5376,-0.604,-0.6433,-0.6902,-0.726,-0.7462,0.0,0.0,0.0,0.0,0.0,0.0,0.0,-0.5393,-0.5844,-0.5034,-0.4703,-0.5831,-0.2657,-0.102,-0.409,0.0,0.0,-0.3069,-0.1113,-0.0,-0.0,-0.0487,-0.107,-0.1615,-0.1798,-0.1391,0.0,0.0,0.0,0.0,-0.9336,0.0,0.0,0.0,-0.91,-0.9172,0.0,-0.881,0.0,0.0,0.0,0.0,-0.6626,-0.8897,0.0,0.0,-1.256,-1.3351,-1.3146,-1.3173,-1.3213,-1.32,-1.295,-1.2208,-1.1223,-0.9663,-0.8082,0.0,0.0,0.0,0.0,0.0,-0.9527,-1.1103,-1.2043,-1.3218,-1.4563,-1.4696,-1.4973,-1.5246,-1.6198,-1.7111,-1.786,-1.7916,-1.7107,-1.5314,-0.7804,0.0,0.0,0.0,0.0,0.0,0.0,0.0,0.0,0.0,0.0,0.0,0.0,0.0,0.0,0.0,0.0,0.0,0.0,0.0,0.0,-0.4418,0.0,0.0,0.0,0.0,0.0,0.0,0.0,0.0,0.0,-0.5763,-0.5273,-0.5689,-0.6346,-0.7044,0.0,0.0,0.0,0.0,-0.6261,-0.402,-0.6406,-0.7259,-0.3817,-0.292,-0.2633,-0.269,0.0,0.0,-0.7957,-0.381,-0.0,-0.0,-0.3727,-0.6845,-0.6596,-0.2851,-0.0,-0.0,-0.0,-0.0,-0.0,-0.0,-0.0,-1.3948,0.0,0.0,0.0,0.0,-1.2009,-1.1826,-1.1829,-1.1582,-1.0973,-1.0171,-1.0083,0.0,0.0,0.0,0.0,0.0,0.0,-1.1381,-1.2432,-1.2374,-1.2641,-1.3213,-1.342,-1.352,-1.3433,-1.3427,-1.3061,-1.2469,-1.1501,-0.9941,-0.7967,0.0,0.0,0.0,0.0,-0.9653,-1.1223,-1.1554,-1.2221,-1.3285,-1.396,-1.4609,-1.5335,-1.6096,-1.6601,-1.6653,-1.6948,-1.6521,-1.5408,-1.246,0.0,0.0,0.0,0.0,0.0,0.0,0.0,0.0,0.0,0.0,0.0,0.0,0.0,0.0,0.0,0.0,0.0,0.0,0.0,-0.2989,-0.4248,-0.4661,0.0,0.0,0.0,0.0,0.0,0.0,0.0,0.0,0.0,-0.6493,-0.6939,-0.7302,0.0,0.0,-0.7886,-0.7488,-0.7591,-0.6869,-0.4532,-0.3273,0.0,-0.3999,-0.2233,-0.0748,-0.0789,-0.0933,-0.1536,-0.2439,-0.1182,-0.0,-0.0,-0.1073,-0.2048,-0.1902,-0.1037,-0.0,-0.0,-0.0,-0.0,-0.0,-0.0,-0.0,-1.6741,-1.413,-1.4131,-1.4559,-1.5122,-1.3897,-1.3276,-1.3187,-1.2788,-1.2224,-1.1643,-1.1396,-1.0805,-0.9967,-0.9728,0.0,0.0,0.0,-1.2595,-1.3561,-1.2891,-1.2986,-1.3714,-1.3915,-1.4055,-1.4155,-1.4041,-1.3795,-1.3468,-1.2428,-1.1188,-0.9598,0.0,-0.8624,-0.9978,-0.9585,-1.0084,-1.1472,-1.1574,-1.1871,-1.2462,-1.3405,-1.4307,-1.5167,-1.5458,-1.5725,-1.5943,-1.5806,-1.5416,-1.4902,-1.464,-1.3036,0.0,0.0,0.0,0.0,0.0,0.0,0.0,0.0,0.0,0.0,0.0,-0.3618,-0.2205,0.0,0.0,0.0,-0.3943,-0.3891,-0.3729,-0.4729,0.0,0.0,0.0,0.0,0.0,0.0,0.0,-0.6086,-0.6548,-0.6967,-0.7153,-0.7783,-0.7955,-0.7563,-0.7689,-0.7484,-0.6376,0.0,-0.4845,-0.4893,-0.328,-0.2296,-0.2662,-0.1252,-0.0,-0.0,-0.0,-0.0,-0.0,-0.0,-0.0,-0.0,-0.0,-0.0,-0.0,-0.0,-0.0,-0.0,-0.0,-0.0,-0.0,-0.0,-0.0,-1.9305,-1.8049,-1.6857,-1.6751,-1.7269,-1.5334,-1.4148,-1.3459,-1.3085,-1.3017,-1.316,-1.2625,-1.2231,-1.1944,-1.1485,0.0,-1.0885,-1.2655,-1.3733,-1.4152,-1.3803,-1.4008,-1.4543,-1.4549,-1.4696,-1.495,-1.4689,-1.4513,-1.4289,-1.2874,-1.1919,-1.1478,-1.0813,-1.0297,-1.0011,-1.0049,-1.0684,-1.1766,-1.2021,-1.214,-1.2135,-1.2991,-1.3903,-1.4775,-1.4496,-1.4715,-1.5552,-1.477,-1.4223,-1.4105,-1.4828,-1.4474,-1.2747,0.0,0.0,0.0,0.0,0.0,0.0,0.0,0.0,0.0,0.0,0.0,0.0,0.0,0.0,-0.3667,-0.4697,0.0,-0.5493,-0.5481,0.0,0.0,0.0,-0.4231,-0.516,-0.5365,-0.5749,-0.6619,0.0,0.0,-0.7548,-0.804,-0.8197,-0.7393,-0.7247,-0.6569,-0.4916,-0.2465,-0.1609,-0.438,-0.5152,-0.4138,-0.1535,-0.0477,-0.0,-0.0,-0.0,-0.0,-0.0,-0.0,-0.0,-0.0,-0.0,-0.0,-0.0,-0.0,-0.0,-0.0,-0.0,-0.0,-0.0,-0.0,-0.0,-1.9433,-1.9248,-1.873,-1.8266,-1.7789,-1.6655,-1.5522,-1.4403,-1.3783,-1.3441,-1.32,-1.306,-1.2953,-1.2886,-1.2746,-1.2626,-1.2648,-1.3312,-1.4021,-1.4748,-1.4406,-1.4509,-1.485,-1.4863,-1.4897,-1.4957,-1.489,-1.489,-1.4777,-1.4071,-1.3446,-1.2903,-1.1811,-1.0773,-0.9844,-0.9906,-1.071,-1.2011,-1.2476,-1.251,-1.2393,-1.2731,-1.3125,-1.3352,-1.4392,-1.5036,-1.5259,-1.53,-1.4906,-1.4169,-1.3645,-1.3507,-1.368,-0.9628,0.0,0.0,0.0,0.0,0.0,0.0,0.0,0.0,0.0,-0.4993,-0.4503,0.0,-0.5938,0.0,-0.4198,-0.5207,-0.4639,-0.4697,0.0,0.0,-0.3305,-0.4589,-0.6177,-0.5793,-0.5939,-0.6988,-0.784,-0.8337,-0.8204,-0.7621,-0.6705,-0.5429,-0.7077,-0.7821,-0.6079,-0.4896,-0.3395,-0.2109,-0.3683,-0.5045,-0.3965,-0.1702,-0.0,-0.0,-0.0,-0.0,-0.0,-0.0,-0.0,-0.0,-0.0,-0.0,-0.0,-0.0,-0.0,-0.0,-0.0,-0.0,-0.0,-0.0,-0.0,-1.9591,-1.9639,-1.9421,-1.8605,-1.739,-1.7482,-1.6738,-1.5492,-1.4853,-1.4223,-1.3601,-1.3601,-1.3601,-1.3614,-1.3734,-1.3705,-1.3629,-1.401,-1.4514,-1.4977,-1.4838,-1.4877,-1.5157,-1.5157,-1.5224,-1.5351,-1.5351,-1.5259,-1.4989,-1.4513,-1.4167,-1.3948,-1.2758,-1.1512,-1.0443,-1.0014,-1.0375,-1.1318,-1.2328,-1.2702,-1.2571,-1.27,-1.2896,-1.3042,-1.372,-1.4647,-1.5979,-1.57,-1.3783,-1.0474,-1.0486,-1.0724,-1.1109,-0.9165,-0.759,0.0,0.0,0.0,0.0,0.0,0.0,0.0,0.0,0.0,0.0,0.0,-0.5513,-0.2797,-0.4322,-0.5227,-0.4576,-0.5071,-0.4992,-0.3714,-0.4466,-0.5439,-0.6426,-0.664,-0.6592,-0.6616,-0.5482,-0.5194,-0.6513,-0.7304,-0.693,-0.5223,-0.7453,-0.8194,-0.5441,-0.4993,-0.4646,-0.2857,-0.2774,-0.3047,-0.3048,-0.135,-0.0,-0.0,-0.0,-0.0,-0.0,-0.0,-0.0,-0.0,-0.0,-0.0,-0.0,-0.0,-0.0,-0.0,-0.0,-0.0,-0.0,-0.0,-0.0,-1.9724,-1.9613,-1.932,-1.8266,-1.6944,-1.783,-1.7443,-1.6198,-1.5703,-1.4977,-1.4088,-1.4122,-1.4142,-1.4168,-1.4449,-1.4475,-1.4294,-1.483,-1.5163,-1.5113,-1.5203,-1.5261,-1.5451,-1.5451,-1.5585,-1.5825,-1.5825,-1.554,-1.5172,-1.4688,-1.4533,-1.4606,-1.3374,-1.2237,-1.139,-1.0289,-1.0035,-1.0501,-1.1763,-1.2467,-1.2619,-1.2522,-1.2598,-1.2993,-1.267,-1.3766,-1.6206,-1.5396,-1.2021,-0.6208,-0.6982,-0.7698,-0.7688,-0.8356,-0.8103,0.0,-0.5424,0.0,0.0,0.0,0.0,0.0,0.0,0.0,0.0,-0.3345,-0.4085,-0.3582,-0.4681,-0.5209,-0.4791,-0.5757,-0.6441,-0.6374,-0.6246,-0.608,-0.5716,-0.6733,-0.711,-0.5907,-0.2403,-0.1098,-0.3574,-0.6256,-0.6898,-0.5745,-0.6645,-0.6439,-0.3468,-0.3542,-0.4344,-0.472,-0.208,-0.0,-0.0,-0.0,-0.0,-0.0,-0.0,-0.0,-0.0,-0.0,-0.0,-0.0,-0.0,-0.0,-0.0,-0.0,-0.0,-0.0,-0.0,-0.0,-0.0,-0.0,-0.0,-1.9381,-1.9311,-1.8718,-1.8292,-1.7946,-1.7654,-1.6708,-1.5325,-1.4657,-1.425,-1.4102,-1.4335,-1.4442,-1.4462,-1.475,-1.4877,-1.487,-1.5541,-1.5812,-1.5633,-1.6043,-1.6005,-1.5738,-1.5745,-1.5778,-1.5825,-1.5825,-1.5737,-1.5642,-1.5172,-1.4617,-1.3966,-1.2851,-1.2273,-1.2258,0.0,0.0,0.0,-1.0669,-1.0905,-1.1607,-1.1034,-1.0691,-1.0858,-1.1404,0.0,-1.1687,-1.2601,-1.1377,-0.7733,-0.7119,0.0,-0.8693,0.0,0.0,0.0,0.0,0.0,-0.2736,0.0,0.0,0.0,-0.3534,-0.2903,-0.209,-0.3427,-0.4191,-0.3955,-0.436,-0.4804,-0.4978,-0.5133,-0.5485,-0.6238,-0.5721,-0.4237,-0.1731,-0.3697,-0.5379,-0.5472,-0.2231,-0.0,-0.0,-0.1349,-0.2706,-0.4752,-0.3319,-0.1615,-0.0,-0.0,-0.0,-0.0,-0.0,-0.0,-0.0,-0.0,-0.0,-0.0,-0.0,-0.0,-0.0,-0.0,-0.0,-0.0,-0.0,-0.0,-0.0,-0.0,-0.0,-0.0,-0.0,-0.0,-0.0,-0.0,-0.0,-1.8949,-1.8353,-1.7921,-1.7368,0.0,-1.6448,-1.5567,-1.4587,-1.4817,-1.4656,-1.4309,-1.4456,-1.4603,-1.4756,-1.5044,-1.5079,-1.5073,-1.5677,-1.6352,-1.6893,-1.6399,-1.6053,-1.5825,-1.5825,-1.5825,-1.5825,-1.5553,-1.535,-1.5064,-1.4598,-1.3931,-1.326,-1.2754,-1.2539,-1.2636,-1.1971,-1.1707,-1.2036,-1.1589,-1.1606,-1.2097,-1.1707,-1.1357,-1.1241,-1.1446,0.0,0.0,0.0,0.0,0.0,0.0,0.0,0.0,-0.6932,-0.6198,-0.6121,-0.4961,-0.4025,-0.3619,-0.3716,-0.3864,-0.4041,-0.372,-0.3352,-0.2959,-0.3655,-0.413,-0.409,-0.4377,-0.4674,-0.4851,-0.4853,-0.5064,-0.5516,-0.5157,-0.3587,-0.0772,-0.1439,-0.2446,-0.2575,-0.1121,-0.0,-0.0,-0.0,-0.0,-0.2357,-0.0,-0.0,-0.0,-0.0,-0.0,-0.0,-0.0,-0.0,-0.0,-0.0,-0.0,-0.0,-0.0,-0.0,-0.0,-0.0,-0.0,-0.0,-0.0,-0.0,-0.0,-0.0,-0.0,-0.0,-0.0,-0.0,-0.0,-0.0,-0.0,-1.8598,-1.7564,-1.7282,-1.6446,-1.544,-1.5106,-1.467,-1.4247,-1.514,0.0,0.0,-1.4649,-1.481,-1.5057,-1.5344,-1.5372,-1.5173,-1.5705,-1.6665,-1.7574,-1.6564,-1.592,-1.5825,-1.5825,-1.5737,-1.5642,-1.5267,-1.4783,-1.4298,-1.3727,-1.3249,-1.2958,-1.2861,-1.2759,-1.2759,-1.2759,-1.278,-1.2824,-1.2797,-1.2754,-1.2603,-1.2404,-1.2225,-1.1817,-1.1467,-1.0728,-0.9548,-0.8483,-0.7959,-0.7977,-0.8077,-0.7851,-0.7282,-0.6433,-0.5871,-0.5661,-0.5034,-0.4547,-0.4612,-0.4161,-0.4043,-0.4096,-0.373,-0.3586,-0.3819,-0.3957,-0.4126,-0.4223,-0.4491,-0.4674,-0.4778,-0.4872,-0.4876,-0.4802,-0.4835,-0.3651,-0.0,-0.0,-0.0,-0.0,-0.0,-0.0,-0.0,-0.0,-0.0,-0.0,-0.0,-0.0,-0.0,-0.0,-0.0,-0.0,-0.0,-0.0,-0.0,-0.0,-0.0,-0.0,-0.0,-0.0,-0.0,-0.0,-0.0,-0.0,-0.0,-0.0,-0.0,-0.0,-0.0,-0.0,-0.0,-0.0,-0.0,-0.0,-0.0,-1.8742,-1.7959,-1.7384,-1.6443,-1.5461,-1.4822,-1.4542,-1.4456,-1.4622,-1.4798,-1.4917,-1.5164,-1.5297,-1.5357,-1.5638,-1.567,-1.5765,-1.6459,-1.6588,-1.615,-1.6588,-1.648,-1.5825,-1.5825,-1.5547,-1.5178,-1.5083,-1.479,-1.4298,-1.3727,-1.3443,-1.3346,-1.2958,-1.2759,-1.2759,-1.2759,-1.2764,-1.277,-1.2811,-1.2421,-1.1592,-1.0924,-1.0505,-1.0428,-1.0158,-1.0058,-1.0184,-0.8785,-0.7948,-0.7995,-0.8323,-0.8296,-0.8077,-0.7125,-0.6494,-0.6123,-0.5133,-0.4294,-0.4098,-0.4128,-0.4544,-0.5059,-0.4544,-0.3966,-0.3506,-0.3882,-0.4234,-0.4384,-0.4614,-0.489,-0.4952,-0.505,-0.4895,-0.4707,-0.5107,-0.3921,-0.0,-0.0,-0.0,-0.0,-0.0,-0.0,-0.0,-0.0,-0.0,-0.0,-0.0,-0.0,-0.0,-0.0,-0.0,-0.0,-0.0,-0.0,-0.0,-0.0,-0.0,-0.0,-0.0,-0.0,-0.0,-0.0,-0.0,-0.0,-0.0,-0.0,-0.0,-0.0,-0.0,-0.0,-0.0,-0.0,-0.0,-0.0,-0.0,-1.8226,-1.7145,-1.6618,-1.6027,-1.5425,-1.4919,-1.485,-1.499,-1.4997,-1.507,-1.5197,-1.5337,-1.5484,-1.5638,-1.5772,-1.5825,-1.5825,-1.6204,-1.6204,-1.5825,-1.6197,-1.6109,-1.5832,-1.5825,-1.5553,-1.5077,-1.479,-1.44,-1.3829,-1.334,-1.3152,-1.3152,-1.2856,-1.2759,-1.2759,-1.2759,-1.2759,-1.2759,-1.278,-1.263,-1.2214,-1.1824,-1.1631,-1.1626,-1.1424,-1.1442,-1.1681,-1.097,-0.9929,-0.855,-0.8643,-0.8591,-0.8476,-0.7306,-0.6616,-0.63,-0.5041,-0.4508,-0.48,-0.4916,-0.5084,-0.5198,-0.4626,-0.425,-0.4353,-0.4373,-0.4375,-0.4495,-0.4749,-0.4936,-0.507,-0.4281,-0.3434,-0.2327,-0.2346,-0.1794,-0.0,-0.0,-0.0,-0.0,-0.0,-0.0,-0.0,-0.0,-0.0,-0.0,-0.0,-0.0,-0.0,-0.0,-0.0,-0.0,-0.0,-0.0,-0.0,-0.0,-0.0,-0.0,-0.0,-0.0,-0.0,-0.0,-0.0,-0.0,-0.0,-0.0,-0.0,-0.0,-0.0,-0.0,0.202,0.2957,0.3205,0.2382,0.1319,-1.7758,-1.6472,-1.6237,-1.5875,-1.5371,-1.5157,-1.519,-1.5398,-1.5458,-1.5498,-1.5491,-1.5491,-1.5618,-1.5812,-1.5825,-1.5825,-1.5825,-1.5825,-1.5825,-1.5825,-1.5825,-1.5825,-1.5825,-1.5737,-1.5356,-1.4885,-1.4394,-1.3823,-1.334,-1.2958,-1.2759,-1.2759,-1.2759,-1.2759,-1.2759,-1.2759,-1.2759,-1.2759,-1.2759,-1.2759,-1.2759,-1.2759,-1.2689,-1.2541,-1.2747,-1.2782,-1.2729,-1.2196,-1.103,-0.9028,-0.8881,-0.8683,-0.821,-0.7246,-0.666,-0.6326,-0.5253,-0.483,-0.5397,-0.5586,-0.5602,-0.5532,-0.49,-0.4926,-0.5396,-0.4878,-0.4532,-0.4611,-0.489,-0.5072,-0.5054,-0.4115,-0.2466,-0.0,-0.0,-0.0,-0.0,-0.0,-0.0,-0.0,-0.0,-0.0,-0.0,-0.0,-0.0,-0.0,-0.0,-0.0,-0.0,-0.0,-0.0,-0.0,-0.0,-0.0,-0.0,-0.0,-0.0,-0.0,-0.0,-0.0,-0.0,-0.0,-0.0,-0.0,-0.0,-0.0,-0.0,-0.0,-0.0,0.1873,0.3336,0.4918,0.5398,0.4562,0.2985,-1.7654,-1.6994,-1.685,-1.6344,-1.5411,-1.5371,-1.5378,-1.5438,-1.5671,-1.5792,-1.5765,-1.5792,-1.5792,-1.5825,-1.5825,-1.5825,-1.5825,-1.5825,-1.5825,-1.5825,-1.5825,-1.5825,-1.573,-1.5363,-1.4885,-1.44,-1.3823,-1.3346,-1.2958,-1.2861,-1.2759,-1.2759,-1.2759,-1.2759,-1.2759,-1.2759,-1.2759,-1.2759,-1.2759,-1.2759,-1.2759,-1.2759,-1.2469,-1.1859,-1.2499,-1.2754,-1.2703,-1.0497,-0.9169,-0.898,-0.8907,-0.8378,-0.7268,-0.6948,-0.6782,-0.6456,-0.5827,-0.5507,-0.5604,-0.5627,-0.5953,-0.6469,-0.6047,-0.6054,-0.6492,-0.5627,-0.4807,-0.477,-0.4907,-0.5056,-0.5371,-0.517,-0.3593,-0.0,-0.0,-0.0,-0.0,-0.0,-0.0,-0.0,-0.0,-0.0,-0.0,-0.0,-0.0,-0.0,-0.0,-0.0,-0.0,-0.0,-0.0,-0.0,-0.0,-0.0,-0.0,-0.0,-0.0,-0.0,-0.0,-0.0,-0.0,-0.0,-0.0,-0.0,-0.0,-0.0,-0.0,0.2535,0.4896,0.4355,0.4324,0.4014,0.5304,0.5674,0.4645,-1.6951,-1.6292,-1.6292,-1.6041,-1.5658,-1.5651,-1.5651,-1.5665,-1.5778,-1.5825,-1.5825,-1.5825,-1.5825,-1.5825,-1.5825,-1.5825,-1.5825,-1.5825,-1.5825,-1.5825,-1.5825,-1.5825,-1.5737,-1.5363,-1.479,-1.4298,-1.3732,-1.3249,-1.2861,-1.2759,-1.2759,-1.2759,-1.2759,-1.2759,-1.2759,-1.2759,-1.2759,-1.2759,-1.2759,-1.2628,-1.2246,-1.2167,-1.2103,-1.1793,-1.173,-1.1606,-1.1494,-0.9863,-0.8955,-0.8907,-0.8192,-0.7495,-0.6953,-0.6474,-0.6203,-0.6049,-0.6078,-0.597,-0.5636,-0.6496,-0.7194,-0.7446,-0.6585,-0.6398,-0.7119,-0.5985,-0.5019,-0.4981,-0.4181,-0.3966,-0.516,-0.5402,-0.3932,-0.0,-0.0,-0.0,-0.0,-0.0,-0.0,-0.0,-0.0,-0.0,-0.0,-0.0,-0.0,-0.0,-0.0,-0.0,-0.0,-0.0,-0.0,-0.0,-0.0,-0.0,-0.0,-0.0,-0.0,-0.0,-0.0,-0.0,-0.0,-0.0,-0.0,-0.0,-0.0,0.3061,-0.0,0.3288,0.4426,0.4933,0.5666,0.4961,0.573,0.5944,0.5408,-1.6386,-1.5825,-1.5825,-1.592,-1.6015,-1.5825,-1.5825,-1.5825,-1.5825,-1.5825,-1.5825,-1.5825,-1.5825,-1.5825,-1.5825,-1.5825,-1.5825,-1.5825,-1.5825,-1.5825,-1.5635,-1.5642,-1.5547,-1.4975,-1.4502,-1.401,-1.3534,-1.3152,-1.2861,-1.2759,-1.2759,-1.2759,-1.2759,-1.2759,-1.2759,-1.2759,-1.2759,-1.2759,-1.2759,-1.248,-1.1869,-1.1644,-1.1503,-1.1253,-1.0617,-1.0241,-1.0222,-0.9429,-0.8478,-0.7798,-0.7211,-0.6711,-0.6315,-0.6081,-0.5844,-0.5739,-0.6187,-0.6337,-0.5829,-0.6837,-0.7561,-0.7583,-0.6699,-0.6628,-0.7135,-0.5764,-0.488,-0.5156,-0.3217,-0.2436,-0.3583,-0.3932,-0.2693,-0.0,-0.0,-0.0,-0.0,-0.0,-0.0,-0.0,-0.0,-0.0,-0.0,-0.0,-0.0,-0.0,-0.0,-0.0,-0.0,-0.0,-0.0,-0.0,-0.0,-0.0,-0.0,-0.0,-0.0,-0.0,-0.0,-0.0,-0.0,-0.0,-0.0,-0.0,-0.0,0.5517,0.5111,0.4407,0.4089,0.5347,0.5816,0.5771,0.5892,0.5834,0.5933,-1.5832,-1.5818,-1.5825,-1.6109,-1.6494,-1.6021,-1.5825,-1.5825,-1.5825,-1.5825,-1.5825,-1.5825,-1.5825,-1.5825,-1.5825,-1.5825,-1.5825,-1.5825,-1.573,-1.5635,-1.5356,-1.5178,-1.5083,-1.4118,-1.3545,-1.3539,-1.3147,-1.2861,-1.2759,-1.2759,-1.2759,-1.2759,-1.2759,-1.2759,-1.2759,-1.2759,-1.2759,-1.2759,-1.2678,-1.2392,-1.1798,-1.1182,-1.0527,-1.0012,-0.929,-0.8994,-0.8901,-0.8927,-0.7675,-0.51,-0.6155,-0.622,-0.5195,-0.5597,-0.5851,-0.5958,-0.6141,-0.6248,-0.6239,-0.6475,-0.6702,-0.703,-0.6689,-0.6705,-0.7393,-0.5031,-0.403,-0.5174,-0.224,-0.0448,-0.0,-0.0,-0.0,-0.0,-0.0,-0.0,-0.0,-0.0,-0.0,-0.0,-0.0,-0.0,-0.0,-0.0,-0.0,-0.0,-0.0,-0.0,-0.0,-0.0,-0.0,-0.0,0.272,-0.0,-0.0,-0.0,-0.0,-0.0,-0.0,-0.0,-0.0,-0.0,-0.0,0.4031,0.5183,0.5816,0.5801,0.5747,0.5535,0.5872,0.585,0.5943,0.5834,0.5935,0.5919,-1.6197,-1.648,-1.6685,-1.6676,-1.6588,-1.6393,-1.6109,-1.5825,-1.5825,-1.5825,-1.5825,-1.5825,-1.5825,-1.5825,-1.5825,-1.5825,-1.5825,-1.5825,-1.5432,-1.493,-1.4968,-1.4885,-1.4496,-1.3829,-1.3448,-1.3443,-1.3055,-1.2759,-1.2759,-1.2759,-1.2759,-1.2759,-1.2759,-1.2759,-1.2759,-1.2759,-1.2759,-1.2678,-1.1978,-1.1358,-1.1178,-1.054,-0.9713,-0.8699,-0.831,-0.7945,-0.7621,-0.6825,-0.584,-0.4769,-0.5302,-0.5353,-0.486,-0.5126,-0.5387,-0.5439,-0.593,-0.6262,-0.6374,-0.671,-0.6932,-0.7154,-0.6717,-0.6725,-0.6961,-0.5616,-0.472,-0.4609,-0.2131,-0.0,-0.0,-0.0,-0.0,-0.0,-0.0,-0.0,-0.0,-0.0,-0.0,-0.0,-0.0,-0.0,-0.0,-0.0,-0.0,-0.0,-0.0,-0.0,-0.0,-0.0,0.0732,0.3196,0.4906,0.5389,-0.0,-0.0,-0.0,-0.0,-0.0,-0.0,-0.0,-0.0,-0.0,0.4889,0.5762,0.5855,0.5839,0.5922,0.5836,0.5943,0.5919,0.5919,0.5919,0.5919,0.5919,-1.6557,-1.6926,-1.7069,-1.7252,-1.7268,-1.6777,-1.6393,-1.6021,-1.5927,-1.5825,-1.5825,-1.5825,-1.5825,-1.5825,-1.5825,-1.5825,-1.5825,-1.5825,-1.5229,-1.4441,-1.4675,-1.4592,-1.4016,-1.3539,-1.3249,-1.3249,-1.2958,-1.2759,-1.2759,-1.2759,-1.2759,-1.2759,-1.2759,-1.2462,-1.2165,-1.2541,-1.2588,-1.2018,-1.1262,-1.0745,-1.054,-1.0134,-0.9105,-0.7809,-0.7509,-0.7354,-0.6978,-0.5584,-0.4827,-0.4786,-0.4792,-0.476,-0.4818,-0.4934,-0.5,-0.5124,-0.5713,-0.6044,-0.6044,-0.6379,-0.6712,-0.6937,-0.65,-0.6512,-0.7424,-0.6301,-0.506,-0.3481,-0.0,-0.0,-0.0,-0.0,-0.0,-0.0,-0.0,-0.0,-0.0,-0.0,-0.0,-0.0,-0.0,-0.0,-0.0,-0.0,-0.0,-0.0,-0.0,-0.0,-0.0,-0.0,0.1324,0.4862,0.5579,0.5829,0.5269,0.434,0.3878,0.3894,0.3674,0.2804,0.2679,0.4729,0.5753,0.5853,0.5948,0.5904,0.5866,0.5951,0.5933,0.5921,0.5919,0.5919,0.5919,0.5919,0.5916,-1.6625,-1.7026,-1.6919,-1.7574,-1.8334,-1.7261,-1.6683,-1.6487,-1.6015,-1.5825,-1.5825,-1.5825,-1.5825,-1.5825,-1.5825,-1.5825,-1.5825,-1.5825,-1.5235,-1.4351,-1.428,-1.4016,-1.3443,-1.3055,-1.2861,-1.2861,-1.2764,-1.2764,-1.2662,-1.257,-1.2565,-1.277,-1.2689,-1.1903,-1.056,-1.18,-1.1922,-1.1033,-1.0668,-1.0431,-0.9961,-0.9892,-0.8862,-0.7172,-0.7136,-0.7203,-0.7082,-0.5613,-0.486,-0.4774,-0.4756,-0.4841,-0.4776,-0.4796,-0.4888,-0.513,-0.5275,-0.5365,-0.5493,-0.5493,-0.583,-0.6054,-0.5723,-0.6296,-0.7544,-0.6189,-0.3706,-0.1234,-0.0,-0.0,-0.0,-0.0,-0.0,-0.0,-0.0,-0.0,-0.0,-0.0,-0.0,-0.0,-0.0,-0.0,-0.0,-0.0,-0.0,-0.0,-0.0,-0.0,-0.0,-0.0,-0.0,0.44,0.5612,0.5774,0.5816,0.5738,0.5778,0.5694,0.5504,0.4913,0.464,0.5771,0.5776,0.5882,0.5874,0.5836,0.5836,0.5927,0.5927,0.5919,0.5919,0.5919,0.5919,0.5916,0.5916,-1.7285,-1.7401,-1.7895,-1.8388,-1.8737,-1.7923,-1.7239,-1.6581,-1.6393,-1.6109,-1.5825,-1.5825,-1.5825,-1.5825,-1.5825,-1.5825,-1.5825,-1.573,-1.5242,-1.4376,-1.4076,-1.3607,-1.3147,-1.2861,-1.2759,-1.2667,-1.2273,-1.198,-1.1883,-1.1487,-1.1619,-1.2475,-1.1756,-1.1088,-1.0675,-1.0773,-1.0668,-1.0703,-0.9906,-0.9598,-0.9777,-0.9461,-0.8419,-0.7163,-0.6953,-0.6682,-0.5827,-0.5303,-0.4974,-0.4836,-0.4884,-0.4996,-0.4957,-0.4878,-0.4938,-0.511,-0.5222,-0.5322,-0.5373,-0.5386,-0.4936,-0.4372,-0.4828,-0.5624,-0.5962,-0.3593,-0.0,-0.0,-0.0,-0.0,-0.0,-0.0,-0.0,-0.0,-0.0,-0.0,-0.0,-0.0,-0.0,-0.0,-0.0,-0.0,-0.0,-0.0,-0.0,-0.0,-0.0,-0.0,-0.0,0.2221,0.3751,0.5295,0.5568,0.572,0.5769,0.5837,0.5902,0.5921,0.5836,0.5866,0.5834,0.5941,0.5939,0.5935,0.5923,0.5916,0.5916,0.6039,0.6162,0.6039,0.6039,0.6039,0.5916,0.6039,0.616,-1.7557,-1.762,-1.8285,-1.8648,-1.8706,-1.8288,-1.7613,-1.6864,-1.6676,-1.6298,-1.5832,-1.5825,-1.5825,-1.5825,-1.5825,-1.5825,-1.5825,-1.5825,-1.5255,-1.4388,-1.398,-1.3403,-1.2759,-1.2467,-1.237,-1.2175,-1.159,-1.1198,-1.1096,-1.0708,-1.0932,-1.1589,-1.102,-1.0331,-1.0121,-1.0182,-1.0221,-0.9878,-0.9308,-0.9099,-0.9349,-0.9106,-0.825,-0.7183,-0.7064,-0.6373,-0.516,-0.5198,-0.5102,-0.5061,-0.5053,-0.5028,-0.4979,-0.4902,-0.4855,-0.5157,-0.514,-0.4998,-0.459,-0.494,-0.4944,-0.4039,-0.3593,-0.3369,-0.3031,-0.0897,-0.0,-0.0,-0.0,-0.0,-0.0,-0.0,-0.0,-0.0,-0.0,-0.0,-0.0,-0.0,-0.0,-0.0,-0.0,-0.0,0.157,0.202,0.1351,0.0568,0.1145,0.2063,0.2425,0.3915,0.4857,0.5466,0.5504,0.5665,0.5725,0.5808,0.5904,0.5919,0.5925,0.5939,0.5929,0.5927,0.5925,0.6048,0.6039,0.6403,0.6403,0.6771,0.6893,0.665,0.6528,0.6773,0.6896,0.6896,0.6891,-1.7461,-1.7866,-1.812,-1.847,-1.8764,-1.8311,-1.7762,-1.7232,-1.6864,-1.6393,-1.592,-1.5825,-1.5825,-1.5825,-1.5825,-1.5825,-1.5825,-1.5838,-1.5261,-1.4382,-1.3884,-1.3307,-1.2559,-1.1878,-1.159,-1.1394,-1.0703,-1.031,-1.031,-1.0113,-1.0314,-1.0242,-1.0188,-0.9807,-0.9198,-0.9971,-0.9906,-0.8917,-0.8893,-0.8893,-0.8913,-0.8803,-0.824,-0.6929,-0.698,-0.6448,-0.5358,-0.5265,-0.5406,-0.5356,-0.5156,-0.4992,-0.4996,-0.4641,-0.4807,-0.5108,-0.5328,-0.4582,-0.3698,-0.3817,-0.4496,-0.4044,-0.0,-0.0,-0.0,-0.0,-0.0,-0.0,-0.0,-0.0,-0.0,-0.0,-0.0,-0.0,-0.0,-0.0,-0.0,-0.0,-0.0,-0.0,-0.0,0.1234,0.427,0.4836,0.3482,0.2136,0.318,0.4322,0.4763,0.4993,0.5227,0.5494,0.5662,0.5735,0.5915,0.6137,0.6235,0.6283,0.616,0.6039,0.6162,0.6162,0.641,0.6407,0.6528,0.6768,0.7013,0.7261,0.7505,0.7383,0.7505,0.7872,0.775,0.7505,0.7378,-1.752,-1.7843,-1.7874,-1.8225,-1.8741,-1.8364,-1.7858,-1.7311,-1.7145,-1.6574,-1.592,-1.5825,-1.5825,-1.5825,-1.5825,-1.5825,-1.5838,-1.5783,-1.5293,-1.4298,-1.3397,-1.263,-1.1873,-1.1096,-1.0703,-1.0605,-0.9912,-0.9517,-0.9418,-0.9027,-0.873,-0.8641,-0.8895,-0.8915,-0.8906,-0.9108,-0.908,-0.8889,-0.8869,-0.8944,-0.8789,-0.8385,-0.7711,-0.7046,-0.6551,-0.602,-0.5235,-0.5286,-0.5367,-0.5412,-0.5088,-0.4904,-0.5063,-0.4841,-0.487,-0.5066,-0.4924,-0.4888,-0.4258,-0.2581,-0.157,-0.1458,-0.0,-0.0,-0.0,-0.0,-0.0,-0.0,-0.0,-0.0,-0.0,0.2356,0.3594,0.3932,0.3593,0.3706,0.3369,-0.0,-0.0,-0.0,-0.0,-0.0,0.427,0.5288,0.4944,0.4263,0.4499,0.5424,0.5402,0.5394,0.5412,0.5769,0.5934,0.6023,0.6113,0.6339,0.6554,0.6628,0.6646,0.6403,0.6528,0.6775,0.7146,0.7516,0.7385,0.7627,0.7627,0.775,0.7872,0.8236,0.8116,0.8236,0.7994,0.7872,0.7867,-1.7278,-1.7395,-1.7636,-1.7874,-1.7976,-1.7955,-1.769,-1.7128,-1.6994,-1.6581,-1.592,-1.5825,-1.5825,-1.5825,-1.5825,-1.5845,-1.5783,-1.5817,-1.5013,-1.3601,-1.2334,-1.1765,-1.1292,-1.0502,-0.9912,-0.9813,-0.9126,-0.8726,-0.863,-0.8237,-0.8038,-0.8069,-0.8194,-0.8388,-0.848,-0.8654,-0.8632,-0.8749,-0.8783,-0.8848,-0.8737,-0.8075,-0.7416,-0.6793,-0.6174,-0.5712,-0.5339,-0.5328,-0.5365,-0.5302,-0.5175,-0.5114,-0.505,-0.4914,-0.4927,-0.5122,-0.3744,-0.2891,-0.2798,-0.0,-0.0,-0.0,-0.0,-0.0,-0.0,-0.0,-0.0,-0.0,-0.0,-0.0,0.2244,0.427,0.5176,0.5172,0.5396,0.5396,0.5398,0.3591,-0.0,0.1457,0.1345,0.2129,0.5054,0.5394,0.539,0.5272,0.5158,0.539,0.5384,0.538,0.5603,0.596,0.6454,0.6665,0.6645,0.6869,0.709,0.7173,0.7357,0.7116,0.7011,0.7383,0.7883,0.8253,0.8244,0.8241,0.8238,0.8482,0.8845,0.8967,0.8723,0.8601,0.8601,0.8601,0.8596,-1.7022,-1.6745,-1.7423,-1.7266,-1.6745,-1.7196,-1.7176,-1.6752,-1.6501,-1.6181,-1.5846,-1.5772,-1.5778,-1.5825,-1.5825,-1.5763,-1.583,-1.5619,-1.4208,-1.263,-1.1272,-1.0801,-1.0895,-0.9715,-0.9122,-0.9023,-0.8336,-0.8137,-0.8137,-0.8038,-0.8038,-0.8065,-0.8177,-0.818,-0.818,-0.8532,-0.8577,-0.8512,-0.8537,-0.8481,-0.8233,-0.7611,-0.7012,-0.6492,-0.5868,-0.5565,-0.5422,-0.5369,-0.5351,-0.5377,-0.5368,-0.5132,-0.5029,-0.4704,-0.4956,-0.4562,-0.0,-0.0,-0.0,-0.0,-0.0,-0.0,-0.0,-0.0,-0.0,-0.0,-0.0,-0.0,-0.0,0.2244,0.427,0.54,0.5396,0.5392,0.5386,0.5386,0.55,0.5504,0.4826,0.3362,0.3137,0.381,0.4819,0.5495,0.5384,0.5384,0.5382,0.5493,0.5489,0.5483,0.5817,0.6383,0.6891,0.742,0.7404,0.7505,0.7606,0.7823,0.8145,0.806,0.7731,0.7989,0.8738,0.9114,0.8979,0.8973,0.897,0.9214,0.9576,0.9576,0.9332,0.9454,0.9697,0.9819,0.9812,-1.6767,-1.6676,-1.6838,-1.6454,-1.5918,-1.644,-1.6505,-1.5949,-1.593,-1.5762,-1.5544,-1.5491,-1.5625,-1.5812,-1.5805,-1.577,-1.5619,-1.4815,-1.3312,-1.1044,-1.069,-1.0109,-0.971,-0.8726,-0.8333,-0.8233,-0.8137,-0.8038,-0.8038,-0.8038,-0.8038,-0.8052,-0.8082,-0.8029,-0.8103,-0.816,-0.8361,-0.8384,-0.8297,-0.7998,-0.7599,-0.6934,-0.6378,-0.5815,-0.5402,-0.5293,-0.5387,-0.5349,-0.5373,-0.5347,-0.5186,-0.4494,-0.3944,-0.4166,-0.4512,-0.3983,-0.0,-0.0,-0.0,-0.0,-0.0,-0.0,-0.0,-0.0,-0.0,-0.0,-0.0,-0.0,0.2468,0.427,0.5174,0.5392,0.5388,0.5386,0.5495,0.5601,0.5933,0.5714,0.5382,0.5491,0.5158,0.5162,0.6054,0.5717,0.5605,0.5493,0.5493,0.5714,0.5708,0.5699,0.6146,0.6705,0.7633,0.8045,0.7888,0.7993,0.8221,0.834,0.8794,0.8982,0.8539,0.8596,0.9226,0.9599,0.9592,0.9585,0.9335,0.9457,0.9697,0.9819,0.9819,1.0061,1.0183,1.0547,1.0906,-1.6672,-1.6696,-1.6507,-1.6058,-1.5507,-1.5782,-1.5814,-1.5462,-1.5438,-1.5314,-1.5295,-1.5324,-1.5484,-1.5618,-1.5343,-1.5328,-1.4898,-1.3528,-1.2047,-1.0578,-1.0006,-0.9418,-0.873,-0.8233,-0.8038,-0.8038,-0.8038,-0.8038,-0.8038,-0.8038,-0.8038,-0.8038,-0.8038,-0.7979,-0.8042,-0.7979,-0.8126,-0.8235,-0.8071,-0.766,-0.7126,-0.6627,-0.5829,-0.5237,-0.4986,-0.5066,-0.5427,-0.5363,-0.5388,-0.5043,-0.3893,-0.343,-0.3542,-0.0,-0.0,-0.2219,-0.0,-0.0,-0.0,-0.0,-0.0,-0.0,-0.0,-0.0,-0.0,-0.0,-0.0,0.2356,0.4158,0.54,0.5394,0.5388,0.5384,0.5493,0.5714,0.5933,0.6154,0.6044,0.5935,0.6383,0.6272,0.6161,0.6272,0.6161,0.627,0.6381,0.6154,0.6262,0.626,0.6253,0.6475,0.7149,0.8159,0.8647,0.8367,0.8464,0.8816,0.8955,0.9327,0.939,0.932,0.9516,0.9714,0.9832,0.9829,0.9825,0.97,0.9819,0.9819,0.9943,1.0065,1.0304,1.0789,1.1269,1.1631,-1.6621,-1.6684,-1.62,-1.5658,-1.5264,-1.517,-1.5119,-1.5002,-1.4892,-1.4892,-1.493,-1.5164,-1.5133,-1.5134,-1.4857,-1.4671,-1.41,-1.2383,-1.0798,-0.9784,-0.9505,-0.8924,-0.8237,-0.8038,-0.8038,-0.8038,-0.8038,-0.8038,-0.8038,-0.8035,-0.8014,-0.8014,-0.8035,-0.8024,-0.8018,-0.8035,-0.8055,-0.7995,-0.7756,-0.7354,-0.679,-0.6337,-0.539,-0.4105,-0.4168,-0.4662,-0.5101,-0.5262,-0.5056,-0.4496,-0.1683,-0.1907,-0.2806,-0.0,-0.0,-0.0,-0.0,-0.0,-0.0,-0.0,-0.0,-0.0,-0.0,-0.0,-0.0,-0.0,-0.0,0.3818,0.5402,0.5396,0.5384,0.5382,0.5493,0.5603,0.6044,0.6376,0.6485,0.6596,0.6599,0.671,0.6824,0.6826,0.6824,0.6821,0.7043,0.7154,0.6927,0.6813,0.6811,0.7033,0.7368,0.759,0.8491,0.8833,0.8657,0.8575,0.8931,0.9168,0.9449,0.9645,0.9707,0.9803,0.9758,0.9815,0.9822,0.9819,0.9819,0.9819,0.9822,0.9943,1.0183,1.0304,1.1031,1.1997,1.235,-1.6397,-1.6648,-1.5861,-1.5039,-1.4434,-1.4608,-1.4585,-1.4331,-1.4334,-1.4376,-1.4589,-1.4656,-1.4569,-1.452,-1.4391,-1.4308,-1.3585,-1.1738,-0.9942,-0.8954,-0.8799,-0.8627,-0.8137,-0.8038,-0.8038,-0.8038,-0.7939,-0.7939,-0.7939,-0.8035,-0.797,-0.8014,-0.7875,-0.7885,-0.794,-0.797,-0.8045,-0.7846,-0.7375,-0.6862,-0.6467,-0.5684,-0.4621,-0.283,-0.2892,-0.3382,-0.4521,-0.4914,-0.4044,-0.1234,-0.0,-0.0,-0.0,-0.0,-0.0,-0.0,-0.0,-0.0,-0.0,-0.0,-0.0,-0.0,-0.0,-0.0,-0.0,-0.0,-0.0,0.4147,0.5386,0.5386,0.5384,0.5493,0.5712,0.6044,0.6376,0.6707,0.7376,0.7598,0.7598,0.7601,0.749,0.7265,0.7376,0.7487,0.7598,0.7601,0.7487,0.7485,0.7595,0.7931,0.8383,0.8494,0.8712,0.8937,0.884,0.8853,0.8917,0.9017,0.9269,0.9388,0.9469,0.9703,0.9789,0.9734,0.9795,0.9819,0.9819,0.9819,0.9819,0.9822,1.0061,1.0425,1.1511,1.2475,1.2933,-1.605,-1.5944,-1.5271,-1.4643,-1.421,-1.4314,-1.425,-1.4088,-1.4088,-1.4162,-1.4223,-1.4189,-1.4138,-1.3894,-1.3475,-1.32,-1.2319,-1.0871,-0.9194,-0.8276,-0.8407,-0.8432,-0.8038,-0.8038,-0.8038,-0.7939,-0.7739,-0.7637,-0.7627,-0.7553,-0.7703,-0.7774,-0.7511,-0.74,-0.7896,-0.7994,-0.7952,-0.7762,-0.7456,-0.6856,-0.6271,-0.5088,-0.3618,-0.3269,-0.1832,-0.1645,-0.2107,-0.2453,-0.1795,-0.0,-0.0,-0.0,-0.0,-0.0,-0.0,-0.0,-0.0,-0.0,-0.0,-0.0,-0.0,-0.0,-0.0,-0.0,0.2014,-0.0,0.3331,0.4548,0.5326,0.5447,0.5815,0.5822,0.6154,0.671,0.6932,0.7376,0.7931,0.8266,0.838,0.8383,0.8269,0.8045,0.7823,0.7934,0.8045,0.8045,0.8048,0.8159,0.8377,0.8605,0.8944,0.8944,0.8937,0.8937,0.8937,0.8944,0.9058,0.914,0.9226,0.9346,0.9344,0.9576,0.9693,0.9666,0.9607,0.9761,0.9822,0.9822,0.9819,1.0061,1.0785,1.1631,1.2238,1.2831,1.3412,-1.5529,-1.514,-1.4755,-1.4412,-1.4173,-1.4088,-1.4088,-1.4088,-1.4088,-1.4088,-1.4122,-1.3965,-1.3709,-1.3193,-1.234,-1.1478,-1.0818,-0.9615,-0.8735,-0.8136,-0.7963,-0.7994,-0.8035,-0.7839,-0.7839,-0.764,-0.7447,-0.7126,-0.7177,-0.7143,-0.7375,-0.724,-0.6643,-0.648,-0.7104,-0.7608,-0.7762,-0.7375,-0.7892,-0.7387,-0.5893,-0.3912,-0.2936,-0.3629,-0.0,-0.0,-0.0,-0.0,-0.0,-0.0,-0.0,-0.0,-0.0,-0.0,-0.0,-0.0,-0.0,-0.0,-0.0,-0.0,-0.0,-0.0,-0.0,-0.0,0.3699,0.4344,0.4854,0.5156,0.5507,0.5753,0.6142,0.6376,0.6821,0.7265,0.7712,0.8048,0.8269,0.8491,0.8716,0.8826,0.8937,0.8716,0.838,0.838,0.8491,0.8491,0.8491,0.8491,0.8712,0.8716,0.894,0.894,0.8937,0.8937,0.8937,0.8937,0.9161,0.9518,0.9586,0.9676,0.9564,0.9561,0.9555,0.9773,0.9598,0.9639,0.9727,1.0058,1.0304,1.091,1.1877,1.2599,1.3075,1.3674,1.4262,-1.4587,-1.4257,-1.4173,-1.4173,-1.4088,-1.4088,-1.4088,-1.4082,-1.4088,-1.4088,-1.3997,-1.3952,-1.3126,-1.1824,-1.0348,-0.9851,-0.9569,-0.8974,-0.8309,-0.789,-0.7848,-0.7815,-0.7908,-0.7437,-0.7415,-0.7313,-0.7033,-0.7078,-0.6828,-0.677,-0.6706,-0.6407,-0.6012,-0.5981,-0.5711,-0.681,-0.6753,-0.5334,-0.667,-0.6788,-0.4768,-0.0,-0.0,-0.0,-0.0,-0.0,-0.0,-0.0,-0.0,-0.0,-0.0,-0.0,-0.0,-0.0,-0.0,-0.0,-0.0,-0.0,-0.0,-0.0,-0.0,-0.0,-0.0,-0.0,0.3568,0.5006,0.5184,0.5261,0.5856,0.6349,0.6584,0.6821,0.7265,0.7712,0.8045,0.838,0.8605,0.8605,0.8826,0.8937,0.8937,0.8937,0.8716,0.8826,0.8937,0.8937,0.8937,0.8937,0.8937,0.8937,0.8937,0.8937,0.8937,0.8937,0.8937,0.8937,0.9265,0.9706,0.9853,1.0021,1.0003,1.0001,0.9964,0.9943,0.9785,0.9894,1.0245,1.0572,1.0997,1.1631,1.2475,1.3195,1.3909,1.451,1.4992,-1.4095,-1.4088,-1.4088,-1.4088,-1.4088,-1.4088,-1.3919,-1.3828,-1.4004,-1.3828,-1.3307,-1.2881,-1.1837,-1.0294,-0.9164,-0.902,-0.9116,-0.8364,-0.7826,-0.7668,-0.7654,-0.7604,-0.7414,-0.7186,-0.7128,-0.6839,-0.6446,-0.5733,-0.5806,-0.6116,-0.6192,-0.5368,-0.4522,-0.4352,-0.4339,-0.5613,-0.4228,-0.2923,-0.2724,-0.2929,-0.1928,-0.0,-0.0,-0.0,-0.0,-0.0,-0.0,-0.0,-0.0,-0.0,-0.0,-0.0,-0.0,-0.0,-0.0,-0.0,-0.0,-0.0,-0.0,-0.0,-0.0,-0.0,0.1455,0.3116,0.373,0.4445,0.5304,0.5605,0.5957,0.6468,0.713,0.7487,0.7937,0.8269,0.838,0.8602,0.8826,0.8826,0.8937,0.8937,0.8937,0.8937,0.8937,0.8937,0.8937,0.8937,0.8937,0.8937,0.8937,0.8937,0.8937,0.8937,0.8937,0.8937,0.8937,0.8937,0.9485,0.9923,1.0143,1.0303,1.0671,1.0647,1.0626,1.0611,1.0601,1.0728,1.0867,1.1063,1.1355,1.2149,1.2835,1.366,1.4371,1.4873,1.5353,-1.3667,-1.3881,-1.4021,-1.4088,-1.4088,-1.4088,-1.3828,-1.3483,-1.3743,-1.3392,-1.2357,-1.1494,-1.0279,-0.917,-0.8488,-0.8282,-0.8595,-0.7809,-0.7409,-0.7282,-0.7439,-0.7364,-0.7098,-0.6957,-0.6605,-0.6327,-0.5059,-0.439,-0.4413,-0.4816,-0.5419,-0.4624,-0.277,-0.2476,-0.3183,-0.3309,-0.0,-0.0,-0.0,-0.0,-0.0,-0.0,-0.0,-0.0,-0.0,-0.0,-0.0,-0.0,-0.0,-0.0,-0.0,-0.0,-0.0,-0.0,-0.0,-0.0,-0.0,-0.0,-0.0,-0.0,-0.0,-0.0,0.2673,0.4076,0.3545,0.4318,0.5252,0.5974,0.6486,0.7122,0.7764,0.8045,0.838,0.8605,0.8826,0.8937,0.8937,0.8937,0.8937,0.8937,0.8937,0.8937,0.8937,0.8937,0.8937,0.8937,0.8937,0.8937,0.8937,0.8937,0.8937,0.8937,0.8937,0.8937,0.8937,0.9158,0.9596,1.0253,1.0582,1.092,1.1511,1.1546,1.1398,1.1397,1.1268,1.1617,1.1975,1.1837,1.1934,1.2736,1.3542,1.4208,1.4831,1.5337,1.5601,-1.3253,-1.332,-1.3848,-1.4062,-1.4075,-1.4088,-1.3828,-1.336,-1.347,-1.279,-1.1499,-1.0019,-0.9152,-0.8636,-0.7863,-0.7358,-0.7347,-0.717,-0.7182,-0.7171,-0.7312,-0.7111,-0.678,-0.6349,-0.5818,-0.5065,-0.4025,-0.3191,-0.2837,-0.3649,-0.4239,-0.4041,-0.1593,-0.0603,-0.0,-0.0,-0.0,-0.0,-0.0,-0.0,-0.0,-0.0,-0.0,-0.0,-0.0,-0.0,-0.0,-0.0,-0.0,-0.0,-0.0,-0.0,-0.0,-0.0,-0.0,-0.0,-0.0,-0.0,-0.0,-0.0,-0.0,-0.0,0.2542,0.458,0.4612,0.5511,0.6148,0.6305,0.6948,0.7618,0.8134,0.8491,0.8716,0.8826,0.8937,0.8937,0.8937,0.8937,0.8937,0.8937,0.8937,0.8937,0.8937,0.8937,0.8937,0.8937,0.8937,0.8937,0.8937,0.8937,0.8937,0.8937,0.8937,0.8937,0.9051,0.9489,1.0143,1.1017,1.1678,1.2114,1.2673,1.2607,1.2092,1.2101,1.2081,1.2557,1.3031,1.3017,1.3136,1.365,1.4254,1.476,1.5079,1.5472,1.5601,-1.2926,-1.2966,-1.338,-1.3647,-1.3834,-1.4008,-1.3646,-1.2943,-1.3231,-1.2266,-1.0539,-0.9152,-0.8193,-0.7753,-0.7489,-0.7139,-0.7139,-0.7139,-0.7094,-0.7062,-0.6953,-0.6615,-0.619,-0.5768,-0.5169,-0.446,-0.3526,-0.2792,-0.255,-0.2473,-0.178,-0.119,-0.0,-0.0,-0.0,-0.0,-0.0,-0.0,-0.0,-0.0,-0.0,-0.0,-0.0,-0.0,-0.0,-0.0,-0.0,-0.0,-0.0,-0.0,-0.0,-0.0,-0.0,-0.0,-0.0,-0.0,-0.0,-0.0,-0.0,-0.0,-0.0,0.29,0.3619,0.4093,0.5487,0.6102,0.6645,0.6995,0.7533,0.8078,0.8595,0.8716,0.8937,0.8937,0.8937,0.8937,0.8937,0.8937,0.8937,0.8937,0.8937,0.8937,0.8937,0.8937,0.8937,0.8937,0.8937,0.8937,0.8937,0.8937,0.9047,0.9158,0.9158,0.9485,0.9706,1.0253,1.0798,1.1673,1.2663,1.3098,1.332,1.2994,1.2692,1.2663,1.2782,1.3167,1.3517,1.3927,1.4241,1.4562,1.4886,1.5284,1.5575,1.5601,1.5601,-1.2536,-1.25,-1.2784,-1.3081,-1.3365,-1.3569,-1.3048,-1.227,-1.2386,-1.1428,-0.9318,-0.8281,-0.7584,-0.7228,-0.7139,-0.7139,-0.7139,-0.7139,-0.7139,-0.7002,-0.6777,-0.6239,-0.5779,-0.5265,-0.4885,-0.4215,-0.3975,-0.3437,-0.2528,-0.0794,-0.0,-0.0,-0.0,-0.0,-0.0,-0.0,-0.0,-0.0,-0.0,-0.0,-0.0,-0.0,-0.0,-0.0,-0.0,-0.0,-0.0,-0.0,-0.0,-0.0,-0.0,-0.0,-0.0,-0.0,0.0218,0.033,0.0222,0.0334,0.1112,0.1669,0.3014,0.5592,0.4675,0.5184,0.6039,0.6613,0.7082,0.7591,0.7985,0.8381,0.8937,0.8937,0.8937,0.8937,0.8937,0.8937,0.8937,0.8937,0.8937,0.8937,0.8937,0.8937,0.8937,0.8937,0.8933,0.8937,0.8937,0.8937,0.8937,0.9047,0.9158,0.9268,0.9485,0.9926,1.0476,1.1131,1.1782,1.2219,1.3098,1.3537,1.365,1.332,1.332,1.3428,1.3557,1.3707,1.3993,1.4345,1.4717,1.5109,1.5408,1.5569,1.558,1.5601,1.5601,-1.2103,-1.1751,-1.2101,-1.2382,-1.2546,-1.259,-1.2117,-1.1237,-1.0787,-0.9814,-0.842,-0.757,-0.7228,-0.7139,-0.7139,-0.7139,-0.7051,-0.7051,-0.6959,-0.6795,-0.6367,-0.5997,-0.5646,-0.5223,-0.4632,-0.4074,-0.3871,-0.3675,-0.249,-0.0877,-0.0,-0.0,-0.0,-0.0,-0.0,-0.0,-0.0,-0.0,-0.0,-0.0,-0.0,-0.0,-0.0,-0.0,-0.0,-0.0,-0.0,-0.0,0.1828,0.3156,0.1729,0.1339,0.1776,0.1047,0.0949,0.1388,0.0652,0.164,0.4046,0.4494,0.5868,0.7496,0.6209,0.6373,0.7186,0.7612,0.7702,0.8106,0.8394,0.8789,0.8937,0.8937,0.8937,0.8937,0.8937,0.8937,0.8937,0.8937,0.8937,0.8937,0.8937,0.8937,0.894,0.9051,0.9044,0.9044,0.8937,0.9047,0.9268,0.9485,0.9816,0.9926,1.0253,1.0802,1.135,1.2223,1.2772,1.3098,1.3423,1.3867,1.4088,1.3867,1.3975,1.4196,1.4104,1.4028,1.4425,1.4853,1.5074,1.5273,1.5456,1.5591,1.5596,1.5601,1.5601,-1.2224,-1.209,-1.1958,-1.1759,-1.1667,-1.1617,-1.1175,-1.0274,-0.9241,-0.8363,-0.8025,-0.7348,-0.7139,-0.7139,-0.7139,-0.7139,-0.7054,-0.6694,-0.6517,-0.6157,-0.5719,-0.5549,-0.5196,-0.4938,-0.4428,-0.4213,-0.4083,-0.2808,-0.0859,-0.0,-0.0,-0.0,-0.0,-0.0,-0.0,-0.0,-0.0,-0.0,-0.0,-0.0,-0.0,-0.0,-0.0,0.0202,0.1917,0.2017,0.0704,0.1812,0.3534,0.4651,0.3027,0.3053,0.2992,0.2071,0.2494,0.2519,0.2129,0.4219,0.6211,0.7133,0.695,0.7639,0.7595,0.7297,0.7847,0.7886,0.8119,0.8391,0.8669,0.8937,0.8937,0.8937,0.8937,0.8937,0.8937,0.8937,0.8937,0.8937,0.8937,0.8937,0.8937,0.9375,0.9596,0.9923,0.9915,0.9794,0.9794,1.0363,1.081,1.0806,1.1025,1.1021,1.124,1.1678,1.2337,1.2881,1.332,1.3645,1.3753,1.4083,1.4196,1.4196,1.4196,1.4196,1.4213,1.4256,1.4541,1.4826,1.5085,1.53,1.5494,1.5596,1.5601,1.5601,1.5601,-1.2003,-1.1855,-1.1409,-1.0956,-1.0483,-1.0551,-1.0074,-0.902,-0.7951,-0.7529,-0.744,-0.717,-0.7065,-0.7075,-0.7115,-0.7143,-0.7058,-0.6609,-0.5797,-0.5351,-0.5186,-0.5196,-0.5022,-0.4582,-0.4426,-0.4038,-0.2961,-0.0,-0.0,-0.0,-0.0,-0.0,-0.0,-0.0,-0.0,-0.0,-0.0,-0.0,-0.0,-0.0,-0.0,-0.0,-0.0,0.1807,0.3112,0.3827,0.2908,0.3414,0.4746,0.4947,0.5164,0.5078,0.4302,0.4108,0.4314,0.4128,0.4592,0.6298,0.772,0.831,0.8041,0.8146,0.7929,0.7929,0.8229,0.8297,0.8526,0.8679,0.8933,0.8937,0.8937,0.8937,0.8937,0.8937,0.8937,0.8937,0.8933,0.8933,0.9272,0.9272,0.9816,1.0253,1.0472,1.0789,1.1,1.0769,1.0647,1.1446,1.2137,1.2019,1.201,1.2005,1.2114,1.2555,1.2881,1.3423,1.3753,1.4083,1.4196,1.4196,1.4196,1.4196,1.4196,1.4196,1.4207,1.4277,1.4509,1.4778,1.5112,1.5359,1.5537,1.5601,1.5601,1.5601,1.5601,-1.1484,-1.1037,-1.0669,-0.9981,-0.9231,-0.9413,-0.8667,-0.7406,-0.735,-0.7127,-0.6705,-0.6854,-0.6919,-0.6946,-0.6964,-0.7004,-0.6929,-0.6483,-0.551,-0.49,-0.4823,-0.5015,-0.4938,-0.4587,-0.3879,-0.299,-0.0,-0.0,-0.0,-0.0,-0.0,-0.0,-0.0,-0.0,-0.0,-0.0,-0.0,-0.0,-0.0,-0.0,-0.0,-0.0,0.1706,0.3001,0.4,0.4495,0.4185,0.4591,0.4816,0.5436,0.6564,0.6559,0.6453,0.6245,0.6145,0.6176,0.646,0.7464,0.8188,0.8324,0.8659,0.8533,0.8262,0.8391,0.8546,0.8692,0.8806,0.8809,0.8937,0.8937,0.8937,0.8937,0.8937,0.8937,0.8937,0.8933,0.904,0.9265,0.9824,1.0264,1.1025,1.1459,1.1568,1.1778,1.2096,1.22,1.2195,1.2555,1.3128,1.2796,1.2896,1.2989,1.3098,1.332,1.3645,1.3862,1.3975,1.4196,1.4196,1.4196,1.4196,1.4196,1.4196,1.4196,1.4196,1.4326,1.4616,1.4912,1.5219,1.5429,1.558,1.5601,1.5601,1.5601,1.5601,-1.1484,-1.1031,-1.0207,-0.9679,-0.9296,-0.8313,-0.7358,-0.672,-0.6734,-0.6666,-0.6546,-0.6698,-0.6763,-0.6773,-0.647,-0.6675,-0.6554,-0.5987,-0.515,-0.4664,-0.437,-0.4482,-0.4405,-0.4137,-0.3057,-0.0,-0.0,-0.0,-0.0,-0.0,-0.0,-0.0,-0.0,-0.0,-0.0,-0.0,-0.0,-0.0,-0.0,-0.0,0.2715,0.3122,0.3606,0.3701,0.4464,0.4759,0.4781,0.4856,0.4879,0.5318,0.6951,0.7363,0.6848,0.6345,0.6044,0.6145,0.6693,0.7483,0.7871,0.8381,0.8733,0.8798,0.8593,0.8666,0.8816,0.8937,0.8937,0.8937,0.8937,0.8937,0.8937,0.8937,0.8933,0.893,0.8927,0.9144,0.9251,0.9911,1.0472,1.1818,1.2583,1.2332,1.2446,1.2989,1.3197,1.3413,1.364,1.3888,1.3904,1.3568,1.3449,1.3542,1.3645,1.3759,1.3867,1.4083,1.4083,1.4196,1.4196,1.4196,1.4196,1.4196,1.4196,1.4196,1.4196,1.4439,1.4783,1.5004,1.5095,1.5424,1.5591,1.5596,1.5601,1.5601,1.5601,-1.0954,-1.0302,-0.9637,-0.9074,-0.8466,-0.7407,-0.6648,-0.6355,-0.6434,-0.6469,-0.6407,-0.6384,-0.645,-0.6555,-0.6363,-0.6437,-0.6956,-0.5809,-0.4454,-0.2653,-0.3739,-0.4214,-0.4228,-0.3057,-0.1617,-0.0,-0.0,-0.0,-0.0,-0.0,-0.0,-0.0,-0.0,-0.0,-0.0,-0.0,-0.0,-0.0,-0.0,0.3575,0.4694,0.5492,0.4666,0.4377,0.5114,0.5042,0.4868,0.5025,0.5575,0.5917,0.7659,0.7759,0.7347,0.7042,0.6842,0.6942,0.725,0.7733,0.7984,0.8213,0.857,0.8696,0.8791,0.8862,0.8916,0.8937,0.8937,0.8937,0.8937,0.8937,0.8937,0.8937,0.8927,0.8916,0.9137,0.9244,0.99,1.0558,1.1905,1.3376,1.3697,1.3222,1.3428,1.3975,1.4191,1.397,1.397,1.398,1.4099,1.3986,1.3877,1.3975,1.3975,1.4083,1.4196,1.4196,1.4196,1.4196,1.4196,1.4196,1.4196,1.4196,1.4196,1.4196,1.4196,1.446,1.4841,1.4751,1.4859,1.523,1.5531,1.5521,1.5542,1.5601,1.5601,-1.0124,-0.9296,-0.899,-0.8169,-0.718,-0.6567,-0.6261,-0.6261,-0.6193,-0.6264,-0.622,-0.6086,-0.6147,-0.6173,-0.5668,-0.6028,-0.626,-0.5551,-0.3366,-0.0,-0.2223,-0.3217,-0.2604,-0.0,-0.0,-0.0,-0.0,-0.0,-0.0,-0.0,-0.0,-0.0,-0.0,-0.0,-0.0,-0.0,0.0921,0.2707,0.3623,0.4854,0.6211,0.6654,0.6269,0.6438,0.6354,0.6076,0.5298,0.5738,0.6927,0.7543,0.7955,0.7949,0.7942,0.7839,0.7839,0.7839,0.7839,0.7895,0.8089,0.8299,0.8431,0.8564,0.8686,0.8767,0.8825,0.892,0.8933,0.8937,0.8937,0.9154,0.9265,0.9372,0.9364,0.9688,0.9904,1.0453,1.1223,1.1882,1.2881,1.4012,1.3898,1.3537,1.3753,1.4196,1.4196,1.4196,1.4196,1.4196,1.4196,1.4196,1.4196,1.4196,1.4196,1.4196,1.4196,1.4196,1.4196,1.4196,1.4196,1.4196,1.4196,1.4196,1.4196,1.4196,1.4202,1.4483,1.4673,1.4733,1.4923,1.5445,1.5552,1.5424,1.5472,1.5575,1.5601,-0.9757,-0.8783,-0.7938,-0.718,-0.6567,-0.6338,-0.6106,-0.5792,-0.5792,-0.5954,-0.6203,-0.6152,-0.594,-0.5492,-0.4552,-0.4773,-0.5543,-0.4414,-0.2514,-0.0,-0.0,-0.0,-0.0,-0.0,-0.0,-0.0,-0.0,0.0808,0.1257,-0.0,-0.0,-0.0,0.2331,0.3987,0.3019,0.1703,0.1615,0.3711,0.4789,0.5337,0.5951,0.666,0.6735,0.6532,0.6179,0.652,0.6144,0.6168,0.7048,0.771,0.7939,0.8041,0.7939,0.8038,0.8038,0.8038,0.8038,0.8072,0.8116,0.8194,0.8313,0.8384,0.8489,0.8618,0.8737,0.8862,0.893,0.893,0.9037,0.9361,0.9699,0.9805,1.0021,1.0453,1.0891,1.1664,1.255,1.3207,1.3867,1.3975,1.3975,1.3975,1.4191,1.4196,1.4196,1.4196,1.4196,1.4196,1.4196,1.4196,1.4196,1.4196,1.4196,1.4196,1.4196,1.4196,1.4196,1.4196,1.4196,1.4196,1.4196,1.4196,1.4202,1.4196,1.4234,1.4751,1.5,1.4817,1.5063,1.5687,1.5832,1.5715,1.5713,1.5828,1.572,-0.9189,-0.8008,-0.7033,-0.6536,-0.6249,-0.6076,-0.5796,-0.5637,-0.5401,-0.5404,-0.5491,-0.5575,-0.55,-0.519,-0.4086,-0.2846,-0.3663,-0.2587,-0.1324,-0.0,-0.0,-0.0,-0.0,-0.0,-0.0,-0.0,-0.0,0.1796,0.2155,-0.0,-0.0,0.0984,0.4018,0.5891,0.4919,0.3375,0.2644,0.4421,0.5463,0.5782,0.5716,0.6261,0.6837,0.6635,0.6762,0.7003,0.7161,0.7081,0.7463,0.7848,0.7994,0.8035,0.8038,0.8038,0.8038,0.8038,0.8038,0.8038,0.8065,0.8116,0.8306,0.8371,0.8422,0.8563,0.8773,0.8893,0.9043,0.9152,0.9356,0.9675,1.0066,1.03,1.0853,1.1402,1.1869,1.255,1.3207,1.3753,1.4083,1.4083,1.4083,1.4083,1.4196,1.4196,1.4196,1.4196,1.4196,1.4196,1.4196,1.4207,1.4202,1.4337,1.4461,1.4321,1.4196,1.4196,1.4196,1.4196,1.4326,1.4207,1.4213,1.4207,1.4207,1.4767,1.5096,1.5297,1.5404,1.5467,1.5766,1.6488,1.635,1.6136,1.6166,1.6065,1.6065,-0.842,-0.7142,-0.6244,-0.5925,-0.6027,-0.5708,-0.5452,-0.5375,-0.5079,-0.4779,-0.4555,-0.4555,-0.504,-0.4648,-0.4021,-0.1995,-0.0,-0.0,-0.0,-0.0,-0.0,-0.0,-0.0,-0.0,0.1433,0.2158,0.2515,0.2155,0.1974,0.2333,0.2418,0.1425,0.3098,0.5638,0.611,0.5801,0.5041,0.5586,0.6168,0.6495,0.6489,0.6474,0.696,0.725,0.7482,0.7472,0.767,0.7801,0.788,0.7976,0.7963,0.8018,0.8038,0.8038,0.8038,0.8038,0.8038,0.8137,0.824,0.835,0.8428,0.8491,0.8428,0.8649,0.9071,0.9261,0.9411,0.9555,0.9861,1.0198,1.0592,1.0991,1.176,1.2346,1.2827,1.3207,1.3759,1.4196,1.4196,1.4196,1.4191,1.4191,1.4191,1.4191,1.4196,1.4196,1.4202,1.4196,1.4202,1.4326,1.4337,1.4733,1.5127,1.4859,1.4331,1.4494,1.4636,1.463,1.4658,1.4489,1.4364,1.487,1.5327,1.6097,1.6309,1.6204,1.6357,1.654,1.6887,1.7238,1.6875,1.6582,1.6774,1.6767,1.6638,-0.7893,-0.6854,-0.5851,-0.5264,-0.5061,-0.5041,-0.4868,-0.4576,-0.4506,-0.4311,-0.4084,-0.3771,-0.3221,-0.1335,-0.1021,-0.0,-0.0,-0.0,-0.0,-0.0,-0.0,-0.0,-0.0,0.1242,0.2332,0.2782,0.2868,0.2785,0.2602,0.368,0.3855,0.259,0.4996,0.6458,0.6279,0.6064,0.6126,0.6484,0.6608,0.6857,0.6943,0.6969,0.7141,0.7363,0.7499,0.7417,0.7438,0.7537,0.7756,0.7959,0.8038,0.8001,0.8024,0.8028,0.8038,0.8237,0.8237,0.8531,0.873,0.8924,0.9091,0.9176,0.9318,0.9585,0.9843,1.01,1.0281,1.051,1.0719,1.1145,1.1431,1.1884,1.2472,1.3123,1.3735,1.3819,1.4083,1.4304,1.4412,1.4304,1.4299,1.4299,1.4407,1.4304,1.4207,1.4218,1.4353,1.4467,1.4641,1.4619,1.4505,1.5161,1.5719,1.5127,1.4586,1.5212,1.5378,1.5246,1.5004,1.4647,1.4773,1.5846,1.6453,1.7142,1.7198,1.6967,1.7135,1.7598,1.7615,1.7796,1.7346,1.7032,1.7241,1.7355,1.7343]},{"header":{"parameterUnit":"m.s-1","parameterCategory":1,"la1":31.0,"la2":29.5877,"lo1":-88.7671,"lo2":-86.6584,"dx":0.0162,"dy":0.0185,"nx":115,"ny":88,"refTime":"2023-01-04T18:00:00:Z","depth":0,"parameterNumber":3,"parameterNumberName":"V-component_of_WINDS"},"data":[0.0,0.0,0.0,0.0,0.0,0.0,0.0,0.0,0.0,0.0,0.0,0.0,0.0,0.0,0.0,0.0,0.0,0.0,0.0,0.0,0.0,0.0,0.0,0.0,0.0,0.0,0.0,0.0,0.0,0.0,0.0,0.0,0.0,0.0,0.0,0.0,0.0,0.0,0.0,0.0,0.0,0.0,0.0,0.0,0.0,0.0,0.0,0.0,0.0,0.0,0.0,0.0,0.0,0.0,0.0,0.0,0.0,0.0,0.0,0.0,0.0,0.0,0.0,0.0,0.0,0.0,0.0,0.0,0.0,0.0,0.0,0.0,0.0,0.0,0.0,0.0,0.0,0.0,0.0,0.0,0.0,0.0,0.0,0.0,0.0,0.0,0.0,0.0,0.0,0.0,0.0,0.0,0.0,0.0,0.0,0.0,0.0,0.0,0.0,0.0,0.0,0.0,0.0,0.0,0.0,0.0,0.0,0.0,0.0,0.0,0.0,0.0,0.0,0.0,0.0,0.0,0.0,0.0,0.0,0.0,0.0,0.0,0.0,0.0,0.0,0.0,0.0,0.0,0.0,0.0,0.0,0.0,0.0,0.0,0.0,0.0,0.0,0.0,0.0,0.0,0.0,0.0,0.0,0.0,0.0,0.0,0.0,0.0,0.0,0.0,0.0,0.0,0.0,0.0,0.0,0.0,0.0,0.0,0.0,0.0,0.0,0.0,0.0,0.0,0.0,0.0,0.0,0.0,0.0,0.0,0.0,0.0,0.0,0.0,0.0,0.0,0.0,0.0,0.0,0.0,0.0,0.0,0.0,0.0,0.0,0.0,0.0,0.0,0.0,0.0,0.0,0.0,0.0,0.0,0.0,0.0,0.0,0.0,0.0,0.0,0.0,0.0,0.0,0.0,0.0,0.0,0.0,0.0,0.0,0.0,0.0,0.0,0.0,0.0,0.0,0.0,0.0,0.0,0.0,0.0,0.0,0.0,0.0,0.0,0.0,0.0,0.0,0.0,0.0,0.0,0.0,0.0,0.0,0.0,0.0,0.0,0.0,0.0,0.0,0.0,0.0,0.0,0.0,0.0,0.0,0.0,0.0,0.0,0.0,0.0,0.0,0.0,0.0,0.0,0.0,0.0,0.0,0.0,0.0,0.0,0.0,0.0,0.0,0.0,0.0,0.0,0.0,0.0,0.0,0.0,0.0,0.0,0.0,0.0,0.0,0.0,0.0,0.0,0.0,0.0,0.0,0.0,0.0,0.0,0.0,0.0,0.0,0.0,0.0,0.0,0.0,0.0,0.0,0.0,0.0,0.0,0.0,0.0,0.0,0.0,0.0,0.0,0.0,0.0,0.0,0.0,0.0,0.0,0.0,0.0,0.0,0.0,0.0,0.0,0.0,0.0,0.0,0.0,0.0,0.0,0.0,0.0,0.0,0.0,0.0,0.0,0.0,0.0,0.0,0.0,0.0,0.0,0.0,0.0,0.0,0.0,0.0,0.0,0.0,0.0,0.0,0.0,0.0,0.0,0.0,0.0,0.0,0.0,0.0,0.0,0.0,0.0,0.0,0.0,0.0,0.0,0.0,0.0,0.0,0.0,0.0,0.0,0.0,0.0,0.0,0.0,0.0,0.0,0.0,0.0,0.0,0.0,0.0,0.0,0.0,0.0,0.0,0.0,0.0,0.0,0.0,0.0,0.0,0.0,0.0,0.0,0.0,0.0,0.0,0.0,0.0,0.0,0.0,0.0,0.0,0.0,0.0,0.0,0.0,0.0,0.0,0.0,0.0,0.0,0.0,0.0,0.0,0.0,0.0,0.0,0.0,0.0,0.0,0.0,0.0,0.0,0.0,0.0,0.0,0.0,0.0,0.0,0.0,0.0,0.0,0.0,0.0,0.0,0.0,0.0,0.0,0.0,0.0,0.0,0.0,0.0,0.0,0.0,0.0,0.0,0.0,0.0,0.0,0.0,0.0,0.0,0.0,0.0,0.0,0.0,0.0,0.0,0.0,0.0,0.0,0.0,0.0,0.0,0.0,0.0,0.0,0.0,0.0,0.0,0.0,0.0,0.0,0.0,0.0,0.0,0.0,0.0,0.0,0.0,0.0,0.0,0.0,0.0,0.0,0.0,0.0,0.0,0.0,0.0,0.0,0.0,0.0,0.0,0.0,0.0,0.0,0.0,0.0,0.0,0.0,0.0,0.0,0.0,0.0,0.0,0.0,0.0,0.0,0.0,0.0,0.0,0.0,0.0,0.0,0.0,0.0,0.0,0.0,0.0,0.0,0.0,0.0,0.0,0.0,0.0,0.0,0.0,0.0,0.0,0.0,0.0,0.0,0.0,0.0,0.0,0.0,0.0,0.0,0.0,0.0,0.0,0.0,0.0,0.0,0.0,0.0,0.0,0.0,0.0,0.0,0.0,0.0,0.0,0.0,0.0,0.0,0.0,0.0,0.0,0.0,0.0,0.0,0.0,0.0,0.0,0.0,0.0,0.0,0.0,0.0,0.0,0.0,0.0,0.0,0.0,0.0,0.0,0.0,0.0,0.0,0.0,0.0,0.0,0.0,0.0,0.0,0.0,0.0,0.0,0.0,0.0,0.0,0.0,0.0,0.0,0.0,0.0,0.0,0.0,0.0,0.0,0.0,0.0,0.0,0.0,0.0,0.0,0.0,0.0,0.0,0.0,0.0,0.0,0.0,0.0,0.0,0.0,0.0,0.0,0.0,0.0,0.0,0.0,0.0,0.0,0.0,0.0,0.0,0.0,0.0,0.0,0.0,0.0,0.0,0.0,0.0,0.0,0.0,0.0,0.0,0.0,0.0,0.0,0.0,0.0,0.0,0.0,0.0,0.0,0.0,0.0,0.0,0.0,0.0,0.0,0.0,0.0,0.0,0.0,0.0,0.0,0.0,0.0,0.0,0.0,0.0,0.0,0.0,0.0,0.0,0.0,0.0,0.0,0.0,0.0,0.0,0.0,0.0,0.0,0.0,0.0,0.0,0.0,0.0,0.0,0.0,0.0,0.0,0.0,0.0,0.0,0.0,0.0,0.0,0.0,0.0,0.0,0.0,0.0,0.0,0.0,0.0,0.0,0.0,0.0,0.0,0.0,0.0,0.0,0.0,0.0,0.0,0.0,0.0,0.0,0.0,0.0,0.0,0.0,0.0,0.0,0.0,0.0,0.0,0.0,0.0,0.0,0.0,0.0,0.0,0.0,0.0,0.0,0.0,0.0,0.0,0.0,0.0,0.0,0.0,0.0,0.0,0.0,0.0,0.0,0.0,0.0,0.0,0.0,0.0,0.0,0.0,0.0,0.0,0.0,0.0,0.0,0.0,0.0,0.0,0.0,0.0,0.0,0.0,0.0,0.0,0.0,0.0,0.0,0.0,0.0,0.0,0.0,0.0,0.0,0.0,0.0,0.0,0.0,0.0,0.0,0.0,0.0,0.0,0.0,0.0,0.0,0.0,0.0,0.0,0.0,0.0,0.0,0.0,0.0,0.0,0.0,0.0,0.0,0.0,0.0,0.0,0.0,0.0,0.0,0.0,0.0,0.0,0.0,0.0,0.0,0.0,0.0,0.0,0.0,0.0,0.0,0.0,0.0,0.0,0.0,0.0,0.0,0.0,0.0,0.0,0.0,0.0,0.0,0.0,0.0,0.0,0.0,0.0,0.0,0.0,0.0,0.0,0.0,0.0,0.0,0.0,0.0,0.0,0.0,0.0,0.0,0.0,0.0,0.0,0.0,0.0,0.0,0.0,0.0,0.0,0.0,0.0,0.0,0.0,0.0,0.0,0.0,0.0,0.0,0.0,0.0,0.0,0.0,0.0,0.0,0.0,0.0,0.0,0.0,0.0,0.0,0.0,0.0,0.0,0.0,0.0,0.0,0.0,0.0,0.0,0.0,0.0,0.0,0.0,0.0,0.0,0.0,0.0,0.0,0.0,0.0,0.0,0.0,0.0,0.0,0.0,0.0,0.0,0.0,0.0,0.0,0.0,0.0,0.0,0.0,0.0,0.0,0.0,0.0,0.0,0.0,0.0,0.0,0.0,0.0,0.0,0.0,0.0,0.0,0.0,0.0,0.0,0.0,0.0,0.0,0.0,0.0,0.0,0.0,0.0,0.0,0.0,0.0,0.0,0.0,0.0,0.0,0.0,0.0,0.0,0.0,0.0,0.0,0.0,0.0,0.0,0.0,0.0,0.0,0.0,0.0,0.0,0.0,0.0,0.0,0.0,0.0,0.0,0.0,0.0,0.0,-0.983,0.0,0.0,0.0,-0.9172,0.0,0.0,0.0,0.0,0.0,0.0,0.0,0.0,0.0,0.0,0.0,0.0,0.0,0.0,0.0,0.0,0.0,0.0,0.0,0.0,0.0,0.0,0.0,0.0,0.0,0.0,0.0,0.0,0.0,0.0,0.0,0.0,0.0,0.0,0.0,0.0,0.0,0.0,0.0,0.0,0.0,0.0,0.0,0.0,0.0,0.0,0.0,0.0,0.0,0.0,0.0,0.0,0.0,0.0,0.0,0.0,0.0,0.0,0.0,0.0,0.0,0.0,0.0,0.0,0.0,0.0,0.0,0.0,0.0,0.0,0.0,0.0,0.0,0.0,0.0,0.0,0.0,0.0,0.0,0.0,0.0,0.0,0.0,0.0,0.0,0.0,0.0,0.0,0.0,0.0,0.0,0.0,0.0,0.0,0.0,0.0,0.0,0.0,0.0,0.0,0.0,0.0,0.0,0.0,0.0,0.0,0.0,0.0,0.0,0.0,-0.9713,-0.8959,-0.9928,-0.9985,-0.8961,0.0,0.0,0.0,0.0,0.0,0.0,0.0,0.0,0.0,0.0,0.0,0.0,0.0,0.0,0.0,0.0,0.0,0.0,0.0,0.0,0.0,0.0,0.0,0.0,0.0,0.0,0.0,0.0,0.0,0.0,0.0,0.0,0.0,0.0,0.0,0.0,0.0,0.0,0.0,0.0,0.0,0.0,0.0,0.0,0.0,0.0,0.0,0.0,0.0,0.0,0.0,0.0,0.0,0.0,0.0,0.0,0.0,0.0,0.0,0.0,0.0,0.0,0.0,0.0,0.0,0.0,0.0,0.0,0.0,0.0,0.0,0.0,0.0,0.0,0.0,0.0,0.0,0.0,0.0,0.0,0.0,0.0,0.0,0.0,0.0,0.0,0.0,0.0,0.0,0.0,0.0,0.0,0.0,0.0,0.0,0.0,0.0,0.0,0.0,0.0,0.0,0.0,0.0,0.0,0.0,0.0,0.0,0.0,0.0,0.0,0.0,0.0,-1.0316,-1.0342,-0.931,0.0,0.0,0.0,0.0,0.0,0.0,0.0,0.0,0.0,0.0,0.0,0.0,0.0,0.0,0.0,0.0,0.0,0.0,0.0,0.0,0.0,0.0,0.0,0.0,0.0,0.0,0.0,0.0,0.0,0.0,0.0,0.0,0.0,0.0,0.0,0.0,0.0,0.0,0.0,0.0,0.0,0.0,0.0,0.0,0.0,0.0,0.0,0.0,0.0,0.0,0.0,0.0,0.0,0.0,0.0,0.0,0.0,0.0,0.0,0.0,0.0,0.0,0.0,0.0,0.0,0.0,0.0,0.0,0.0,0.0,0.0,0.0,0.0,0.0,0.0,0.0,0.0,0.0,0.0,0.0,0.0,0.0,0.0,0.0,0.0,0.0,0.0,0.0,0.0,0.0,0.0,0.0,0.0,0.0,0.0,0.0,0.0,0.0,0.0,0.0,0.0,0.0,0.0,0.0,0.0,0.0,0.0,0.0,0.0,0.0,-0.9559,-1.0665,-1.0666,0.0,-1.0279,0.0,0.0,0.0,0.0,0.0,0.0,0.0,0.0,0.0,0.0,0.0,0.0,0.0,0.0,0.0,0.0,0.0,0.0,0.0,0.0,0.0,0.0,0.0,0.0,0.0,0.0,0.0,0.0,0.0,0.0,0.0,0.0,0.0,0.0,0.0,0.0,0.0,0.0,0.0,0.0,0.0,0.0,0.0,0.0,0.0,0.0,0.0,0.0,0.0,0.0,0.0,0.0,0.0,0.0,0.0,0.0,0.0,0.0,0.0,0.0,0.0,0.0,0.0,0.0,0.0,0.0,0.0,0.0,0.0,0.0,0.0,0.0,0.0,0.0,0.0,0.0,0.0,0.0,0.0,0.0,0.0,0.0,0.0,0.0,0.0,0.0,0.0,0.0,0.0,0.0,0.0,0.0,0.0,0.0,0.0,0.0,0.0,0.0,0.0,0.0,0.0,0.0,0.0,0.0,0.0,0.0,0.0,0.0,0.0,0.0,-1.0553,-1.1303,-1.1173,-1.0803,0.0,0.0,0.0,0.0,0.0,0.0,0.0,0.0,0.0,0.0,0.0,0.0,0.0,0.0,0.0,0.0,0.0,0.0,0.0,0.0,0.0,0.0,0.0,0.0,0.0,0.0,0.0,0.0,0.0,0.0,0.0,0.0,0.0,0.0,0.0,0.0,0.0,0.0,0.0,0.0,0.0,0.0,0.0,0.0,0.0,0.0,0.0,0.0,0.0,0.0,0.0,0.0,0.0,0.0,0.0,0.0,0.0,0.0,0.0,0.0,0.0,0.0,0.0,0.0,0.0,0.0,0.0,0.0,0.0,0.0,0.0,0.0,0.0,0.0,0.0,0.0,0.0,0.0,0.0,0.0,0.0,0.0,0.0,0.0,0.0,0.0,0.0,0.0,0.0,0.0,0.0,0.0,0.0,0.0,0.0,0.0,0.0,0.0,0.0,0.0,0.0,0.0,0.0,0.0,0.0,0.0,0.0,0.0,0.0,0.0,-1.1116,-1.1642,-1.2047,-1.1534,-1.081,-0.9973,0.0,0.0,0.0,0.0,0.0,0.0,0.0,0.0,0.0,0.0,0.0,0.0,0.0,0.0,0.0,0.0,0.0,0.0,0.0,0.0,0.0,0.0,0.0,0.0,0.0,0.0,0.0,0.0,0.0,0.0,0.0,0.0,0.0,0.0,0.0,0.0,0.0,0.0,0.0,0.0,0.0,0.0,0.0,0.0,0.0,0.0,0.0,0.0,0.0,0.0,0.0,0.0,0.0,0.0,0.0,0.0,0.0,0.0,0.0,0.0,0.0,0.0,0.0,0.0,0.0,0.0,0.0,0.0,0.0,0.0,0.0,0.0,0.0,0.0,0.0,0.0,0.0,0.0,0.0,0.0,0.0,0.0,0.0,0.0,0.0,0.0,0.0,0.0,0.0,0.0,0.0,0.0,0.0,0.0,0.0,0.0,0.0,0.0,0.0,0.0,0.0,0.0,0.0,0.0,0.0,0.0,0.0,0.0,-1.3953,-1.2874,-1.257,-1.3252,-1.1679,-1.0427,0.0,0.0,0.0,0.0,0.0,0.0,0.0,0.0,0.0,0.0,0.0,0.0,0.0,0.0,0.0,0.0,0.0,0.0,0.0,0.0,0.0,0.0,0.0,0.0,0.0,0.0,0.0,0.0,0.0,0.0,0.0,0.0,0.0,0.0,0.0,0.0,0.0,0.0,0.0,0.0,0.0,0.0,0.0,0.0,0.0,0.0,0.0,0.0,0.0,0.0,0.0,0.0,0.0,0.0,0.0,0.0,0.0,0.0,0.0,0.0,0.0,0.0,0.0,0.0,0.0,0.0,0.0,0.0,0.0,0.0,0.0,0.0,0.0,0.0,0.0,0.0,0.0,0.0,0.0,0.0,0.0,0.0,0.0,0.0,0.0,0.0,0.0,0.0,0.0,0.0,0.0,0.0,0.0,0.0,0.0,0.0,0.0,0.0,0.0,0.0,0.0,0.0,0.0,0.0,0.0,0.0,0.0,0.0,0.0,-1.0972,-1.1482,-1.2558,-1.4126,-1.2041,-1.0878,0.0,0.0,0.0,0.0,0.0,0.0,0.0,0.0,0.0,0.0,0.0,0.0,0.0,0.0,0.0,0.0,0.0,0.0,0.0,0.0,0.0,0.0,0.0,0.0,0.0,0.0,0.0,0.0,0.0,0.0,0.0,0.0,0.0,0.0,0.0,0.0,0.0,0.0,0.0,0.0,0.0,0.0,0.0,0.0,0.0,0.0,0.0,0.0,0.0,0.0,0.0,0.0,0.0,0.0,0.0,0.0,0.0,0.0,0.0,0.0,0.0,0.0,0.0,0.0,0.0,0.0,0.0,0.0,0.0,0.0,0.0,0.0,0.0,0.0,0.0,0.0,0.0,0.0,0.0,0.0,0.0,0.0,0.0,0.0,0.0,0.0,0.0,0.0,0.0,0.0,0.0,0.0,0.0,0.0,0.0,0.0,0.0,0.0,0.0,0.0,0.0,0.0,0.0,0.0,0.0,0.0,0.0,0.0,0.0,-1.1189,-1.2716,-1.3917,-1.4535,-1.2323,-1.0846,0.0,0.0,0.0,0.0,0.0,0.0,0.0,0.0,0.0,0.0,0.0,0.0,0.0,0.0,0.0,0.0,0.0,0.0,0.0,0.0,0.0,0.0,0.0,0.0,0.0,0.0,0.0,0.0,0.0,0.0,0.0,0.0,0.0,0.0,0.0,0.0,0.0,0.0,0.0,0.0,0.0,0.0,0.0,0.0,0.0,0.0,0.0,0.0,0.0,0.0,0.0,0.0,0.0,0.0,0.0,0.0,0.0,0.0,0.0,0.0,0.0,0.0,0.0,0.0,0.0,0.0,0.0,0.0,0.0,0.0,0.0,0.0,0.0,0.0,0.0,0.0,0.0,0.0,0.0,0.0,0.0,0.0,0.0,0.0,0.0,0.0,0.0,0.0,0.0,0.0,0.0,0.0,0.0,0.0,0.0,0.0,0.0,0.0,0.0,0.0,0.0,0.0,0.0,0.0,0.0,0.0,0.0,0.0,-1.1386,-1.531,-1.6985,-1.6708,-1.4497,-1.2584,-1.0236,0.0,0.0,0.0,0.0,0.0,0.0,0.0,0.0,0.0,0.0,0.0,0.0,0.0,0.0,0.0,0.0,0.0,0.0,0.0,0.0,0.0,0.0,0.0,0.0,0.0,0.0,0.0,0.0,0.0,0.0,0.0,0.0,0.0,0.0,0.0,0.0,0.0,0.0,0.0,0.0,0.0,0.0,0.0,0.0,0.0,0.0,0.0,0.0,0.0,0.0,0.0,0.0,0.0,0.0,0.0,0.0,0.0,0.0,0.0,0.0,0.0,0.0,0.0,0.0,0.0,0.0,0.0,0.0,0.0,0.0,0.0,0.0,0.0,0.0,0.0,0.0,0.0,0.0,0.0,0.0,0.0,0.0,0.0,0.0,0.0,0.0,0.0,0.0,0.0,0.0,0.0,0.0,0.0,0.0,0.0,0.0,0.0,0.0,0.0,0.0,0.0,0.0,0.0,0.0,0.0,0.0,0.0,0.0,0.0,-1.2872,-1.6226,-1.7482,-1.6218,-1.3655,-1.2162,0.0,0.0,0.0,0.0,0.0,0.0,0.0,0.0,0.0,0.0,0.0,0.0,0.0,0.0,0.0,0.0,0.0,0.0,0.0,0.0,0.0,0.0,0.0,0.0,0.0,0.0,0.0,0.0,0.0,0.0,0.0,0.0,0.0,0.0,0.0,0.0,0.0,0.0,0.0,0.0,0.0,0.0,0.0,0.0,0.0,0.0,0.0,0.0,0.0,0.0,0.0,0.0,0.0,0.0,0.0,0.0,0.0,0.0,0.0,0.0,0.0,0.0,0.0,0.0,0.0,0.0,0.0,0.0,0.0,0.0,0.0,0.0,0.0,0.0,0.0,0.0,0.0,0.0,0.0,0.0,0.0,0.0,0.0,0.0,0.0,0.0,0.0,0.0,0.0,0.0,0.0,0.0,0.0,0.0,0.0,0.0,0.0,0.0,0.0,0.0,0.0,0.0,0.0,0.0,0.0,0.0,0.0,0.0,0.0,-1.5037,-1.8478,-1.9739,-1.8371,-1.5296,-1.3564,-1.3292,0.0,0.0,0.0,0.0,0.0,0.0,0.0,0.0,0.0,0.0,0.0,0.0,0.0,0.0,0.0,0.0,0.0,0.0,0.0,0.0,0.0,0.0,0.0,0.0,0.0,0.0,0.0,0.0,0.0,0.0,0.0,0.0,0.0,0.0,0.0,0.0,0.0,0.0,0.0,0.0,0.0,0.0,0.0,0.0,0.0,0.0,0.0,0.0,0.0,0.0,0.0,0.0,0.0,0.0,0.0,0.0,0.0,0.0,0.0,0.0,0.0,0.0,0.0,0.0,0.0,0.0,0.0,0.0,0.0,0.0,0.0,0.0,0.0,0.0,0.0,0.0,0.0,0.0,0.0,0.0,0.0,0.0,0.0,0.0,0.0,0.0,0.0,0.0,0.0,0.0,0.0,0.0,0.0,0.0,0.0,0.0,0.0,0.0,0.0,0.0,0.0,0.0,0.0,0.0,0.0,0.0,0.0,0.0,-2.0401,-2.3068,-2.3197,-2.0615,-1.7337,-1.4623,0.0,0.0,0.0,0.0,0.0,0.0,0.0,0.0,0.0,0.0,0.0,0.0,0.0,0.0,0.0,0.0,0.0,0.0,0.0,0.0,0.0,0.0,0.0,0.0,0.0,0.0,0.0,0.0,0.0,0.0,0.0,0.0,0.0,0.0,0.0,0.0,0.0,0.0,0.0,0.0,0.0,0.0,0.0,0.0,0.0,0.0,0.0,0.0,0.0,0.0,0.0,0.0,0.0,0.0,0.0,0.0,0.0,0.0,0.0,0.0,0.0,0.0,0.0,0.0,0.0,0.0,0.0,0.0,0.0,0.0,0.0,0.0,0.0,0.0,0.0,0.0,0.0,0.0,0.0,0.0,0.0,0.0,0.0,0.0,0.0,0.0,0.0,0.0,0.0,0.0,0.0,0.0,0.0,0.0,0.0,0.0,0.0,0.0,0.0,0.0,0.0,0.0,0.0,0.0,0.0,0.0,0.0,0.0,0.0,-2.1642,-2.4799,-2.5312,-2.2719,-1.946,-1.6872,0.0,0.0,0.0,0.0,0.0,0.0,0.0,0.0,0.0,0.0,0.0,0.0,0.0,0.0,0.0,0.0,0.0,0.0,0.0,0.0,0.0,0.0,0.0,0.0,0.0,0.0,0.0,0.0,0.0,0.0,0.0,0.0,0.0,0.0,0.0,0.0,0.0,0.0,0.0,0.0,0.0,0.0,0.0,0.0,0.0,0.0,0.0,0.0,0.0,0.0,0.0,0.0,0.0,0.0,0.0,0.0,0.0,0.0,0.0,0.0,0.0,0.0,0.0,0.0,0.0,0.0,0.0,0.0,0.0,0.0,0.0,0.0,0.0,0.0,0.0,0.0,0.0,0.0,0.0,0.0,0.0,0.0,0.0,0.0,0.0,0.0,0.0,0.0,0.0,0.0,0.0,0.0,0.0,0.0,0.0,0.0,0.0,0.0,0.0,0.0,0.0,0.0,0.0,0.0,0.0,0.0,0.0,0.0,-2.1955,-2.393,-2.5776,-2.5933,-2.4275,-2.1464,-1.8973,0.0,0.0,0.0,0.0,0.0,0.0,0.0,0.0,0.0,0.0,0.0,0.0,0.0,0.0,0.0,0.0,0.0,0.0,0.0,0.0,0.0,0.0,0.0,0.0,0.0,0.0,0.0,0.0,0.0,0.0,0.0,0.0,0.0,0.0,0.0,0.0,0.0,0.0,0.0,0.0,0.0,0.0,0.0,0.0,0.0,0.0,0.0,0.0,0.0,0.0,0.0,0.0,0.0,0.0,0.0,0.0,0.0,0.0,0.0,0.0,0.0,0.0,0.0,0.0,0.0,0.0,0.0,0.0,0.0,0.0,0.0,0.0,0.0,0.0,0.0,0.0,0.0,0.0,0.0,0.0,0.0,0.0,0.0,0.0,0.0,0.0,0.0,0.0,0.0,0.0,0.0,0.0,0.0,0.0,0.0,0.0,0.0,0.0,0.0,0.0,0.0,0.0,0.0,0.0,0.0,0.0,0.0,0.0,-2.3968,-2.6657,-2.6279,-2.5824,-2.5349,-2.3244,-2.0775,0.0,0.0,0.0,0.0,0.0,0.0,0.0,0.0,0.0,0.0,0.0,0.0,0.0,0.0,0.0,0.0,0.0,0.0,0.0,0.0,0.0,0.0,0.0,0.0,0.0,0.0,0.0,0.0,0.0,0.0,0.0,0.0,0.0,0.0,0.0,0.0,0.0,0.0,0.0,0.0,0.0,0.0,0.0,0.0,0.0,0.0,0.0,0.0,0.0,0.0,0.0,0.0,0.0,0.0,0.0,0.0,0.0,0.0,0.0,0.0,0.0,0.0,0.0,0.0,0.0,0.0,0.0,0.0,0.0,0.0,0.0,0.0,0.0,0.0,0.0,0.0,0.0,0.0,0.0,0.0,0.0,0.0,0.0,0.0,0.0,0.0,0.0,0.0,0.0,0.0,0.0,0.0,0.0,0.0,0.0,0.0,0.0,0.0,0.0,0.0,0.0,0.0,0.0,0.0,0.0,0.0,0.0,0.0,-2.4572,-2.6992,-2.6578,-2.6237,-2.6078,-2.3831,-2.1279,0.0,0.0,0.0,0.0,0.0,0.0,0.0,0.0,0.0,0.0,0.0,0.0,0.0,0.0,0.0,0.0,0.0,0.0,0.0,0.0,0.0,0.0,0.0,0.0,0.0,0.0,0.0,0.0,0.0,0.0,0.0,0.0,0.0,0.0,0.0,0.0,0.0,0.0,0.0,0.0,0.0,0.0,0.0,0.0,0.0,0.0,0.0,0.0,-1.3577,0.0,0.0,0.0,0.0,0.0,0.0,0.0,0.0,0.0,0.0,0.0,0.0,0.0,0.0,0.0,0.0,0.0,0.0,0.0,0.0,0.0,0.0,0.0,0.0,0.0,0.0,0.0,0.0,0.0,0.0,0.0,0.0,0.0,0.0,0.0,0.0,0.0,0.0,0.0,0.0,0.0,0.0,0.0,0.0,0.0,0.0,0.0,0.0,0.0,0.0,0.0,0.0,0.0,0.0,0.0,0.0,0.0,0.0,0.0,-2.5514,-2.7477,-2.7311,-2.7082,-2.6872,-2.5378,-2.2845,0.0,0.0,0.0,0.0,0.0,0.0,0.0,0.0,0.0,0.0,0.0,0.0,0.0,0.0,0.0,0.0,0.0,0.0,0.0,0.0,0.0,0.0,0.0,0.0,0.0,0.0,0.0,0.0,0.0,0.0,0.0,0.0,0.0,0.0,0.0,0.0,0.0,0.0,0.0,0.0,0.0,0.0,0.0,0.0,0.0,0.0,0.0,0.0,0.0,0.0,0.0,0.0,0.0,0.0,0.0,0.0,0.0,0.0,0.0,0.0,0.0,0.0,0.0,0.0,0.0,0.0,0.0,0.0,0.0,0.0,0.0,0.0,0.0,0.0,0.0,0.0,0.0,0.0,0.0,0.0,0.0,0.0,0.0,0.0,0.0,0.0,0.0,0.0,0.0,0.0,0.0,0.0,0.0,0.0,0.0,0.0,0.0,0.0,0.0,0.0,0.0,0.0,0.0,0.0,0.0,0.0,0.0,-2.3998,-2.6286,-2.798,-2.8073,-2.7996,-2.7759,-2.7106,-2.4713,-2.037,0.0,0.0,0.0,0.0,0.0,0.0,0.0,0.0,0.0,0.0,0.0,0.0,0.0,0.0,0.0,0.0,0.0,0.0,0.0,0.0,0.0,0.0,0.0,0.0,0.0,0.0,0.0,0.0,0.0,0.0,0.0,0.0,0.0,0.0,0.0,0.0,0.0,0.0,-1.1058,-1.3859,0.0,0.0,0.0,0.0,0.0,0.0,0.0,0.0,-1.4833,0.0,0.0,0.0,0.0,0.0,0.0,0.0,0.0,0.0,0.0,0.0,0.0,0.0,0.0,0.0,0.0,0.0,0.0,0.0,0.0,0.0,0.0,0.0,0.0,0.0,0.0,0.0,0.0,0.0,0.0,0.0,0.0,0.0,0.0,0.0,0.0,0.0,0.0,0.0,0.0,0.0,0.0,0.0,0.0,0.0,0.0,0.0,0.0,0.0,0.0,0.0,0.0,0.0,0.0,0.0,0.0,-2.3765,-2.4395,-2.586,-2.8269,-2.8377,-2.8408,-2.842,-2.8068,-2.5863,-2.1786,0.0,0.0,0.0,0.0,0.0,0.0,0.0,0.0,0.0,0.0,0.0,0.0,0.0,0.0,0.0,0.0,0.0,0.0,0.0,0.0,0.0,0.0,0.0,0.0,0.0,0.0,0.0,0.0,0.0,0.0,0.0,0.0,0.0,0.0,0.0,0.0,0.0,0.0,0.0,-1.8276,-1.9373,0.0,0.0,0.0,0.0,0.0,0.0,0.0,0.0,-1.6102,0.0,0.0,0.0,0.0,0.0,0.0,0.0,0.0,0.0,0.0,0.0,0.0,0.0,0.0,0.0,0.0,0.0,0.0,0.0,0.0,0.0,0.0,0.0,0.0,0.0,0.0,0.0,0.0,0.0,0.0,0.0,0.0,0.0,0.0,0.0,0.0,0.0,0.0,0.0,0.0,0.0,0.0,0.0,0.0,0.0,0.0,0.0,0.0,0.0,0.0,0.0,0.0,0.0,0.0,0.0,-2.3257,-2.5662,-2.762,-2.9219,-2.9504,-2.9591,-2.9436,-2.861,-2.6274,0.0,0.0,0.0,0.0,0.0,0.0,0.0,0.0,0.0,0.0,0.0,0.0,0.0,0.0,0.0,0.0,0.0,0.0,0.0,0.0,0.0,0.0,0.0,0.0,0.0,0.0,0.0,0.0,0.0,0.0,0.0,0.0,0.0,0.0,0.0,0.0,0.0,0.0,0.0,0.0,-1.9963,-2.1208,-2.3015,0.0,0.0,0.0,0.0,0.0,0.0,-1.717,-1.6108,0.0,0.0,0.0,0.0,0.0,0.0,0.0,0.0,0.0,0.0,0.0,0.0,0.0,0.0,0.0,0.0,0.0,0.0,0.0,0.0,0.0,0.0,0.0,0.0,0.0,0.0,0.0,0.0,0.0,0.0,0.0,0.0,0.0,0.0,0.0,0.0,0.0,0.0,0.0,0.0,0.0,0.0,0.0,0.0,0.0,0.0,0.0,0.0,0.0,0.0,0.0,0.0,0.0,0.0,0.0,-2.2621,-2.637,-2.8962,-3.0129,-3.0566,-3.0651,-3.0316,-2.9319,-2.6807,0.0,0.0,0.0,0.0,0.0,0.0,0.0,0.0,0.0,0.0,0.0,0.0,0.0,0.0,0.0,0.0,0.0,0.0,0.0,0.0,0.0,0.0,0.0,0.0,0.0,0.0,0.0,0.0,0.0,0.0,0.0,0.0,0.0,0.0,0.0,0.0,0.0,0.0,0.0,0.0,0.0,-2.2623,-2.446,-2.3029,0.0,0.0,0.0,0.0,-2.0358,-1.8876,0.0,0.0,0.0,0.0,0.0,0.0,0.0,0.0,0.0,0.0,0.0,0.0,0.0,0.0,0.0,0.0,0.0,0.0,0.0,0.0,0.0,0.0,0.0,0.0,0.0,0.0,0.0,0.0,0.0,0.0,0.0,0.0,0.0,0.0,0.0,0.0,0.0,0.0,0.0,0.0,0.0,0.0,0.0,0.0,0.0,0.0,0.0,0.0,0.0,0.0,0.0,0.0,0.0,0.0,0.0,0.0,-2.3431,-2.5347,-2.7604,-3.0214,-3.0879,-3.0992,-3.0667,-3.08,-2.8208,0.0,0.0,0.0,0.0,0.0,0.0,0.0,0.0,0.0,0.0,0.0,0.0,0.0,0.0,0.0,0.0,0.0,0.0,0.0,0.0,0.0,0.0,0.0,0.0,0.0,0.0,0.0,0.0,0.0,0.0,0.0,0.0,0.0,0.0,0.0,0.0,0.0,0.0,0.0,0.0,0.0,-2.4317,-2.3996,-2.3202,-2.2778,0.0,0.0,-2.3882,-2.5476,-2.5567,0.0,0.0,0.0,0.0,0.0,0.0,0.0,0.0,0.0,0.0,0.0,0.0,0.0,0.0,0.0,0.0,0.0,0.0,0.0,0.0,0.0,0.0,0.0,0.0,0.0,0.0,0.0,0.0,0.0,0.0,0.0,0.0,0.0,0.0,0.0,0.0,0.0,0.0,0.0,0.0,0.0,0.0,0.0,0.0,0.0,0.0,0.0,0.0,0.0,0.0,0.0,0.0,0.0,0.0,0.0,-2.1122,-2.4281,-2.7148,-2.9816,-3.2166,-3.2514,-3.2367,-3.1983,-3.1958,-2.8958,0.0,0.0,0.0,0.0,0.0,0.0,0.0,0.0,0.0,0.0,0.0,0.0,0.0,0.0,0.0,0.0,0.0,0.0,0.0,0.0,0.0,0.0,0.0,0.0,0.0,0.0,0.0,0.0,0.0,0.0,0.0,0.0,0.0,0.0,0.0,0.0,0.0,0.0,0.0,0.0,0.0,0.0,-2.6982,-2.5913,0.0,0.0,0.0,-2.6546,-2.722,0.0,0.0,0.0,0.0,0.0,0.0,0.0,0.0,0.0,0.0,0.0,0.0,0.0,0.0,0.0,0.0,0.0,0.0,0.0,0.0,0.0,0.0,0.0,0.0,0.0,0.0,0.0,0.0,0.0,0.0,0.0,0.0,0.0,0.0,0.0,0.0,0.0,0.0,0.0,0.0,0.0,0.0,0.0,0.0,0.0,0.0,0.0,0.0,0.0,0.0,0.0,0.0,0.0,0.0,0.0,0.0,0.0,-2.5017,-2.902,-3.1925,-3.3606,-3.3762,-3.3639,-3.3203,-3.2815,0.0,0.0,0.0,0.0,0.0,0.0,0.0,0.0,0.0,0.0,0.0,0.0,0.0,0.0,0.0,0.0,0.0,0.0,0.0,0.0,0.0,0.0,0.0,0.0,0.0,0.0,0.0,-0.9603,0.0,0.0,0.0,0.0,0.0,0.0,0.0,0.0,0.0,0.0,0.0,0.0,0.0,0.0,-2.5425,-2.9365,-2.8746,-2.8694,0.0,0.0,-3.0027,-3.0663,-3.1801,-3.1347,0.0,0.0,0.0,0.0,0.0,0.0,0.0,0.0,0.0,0.0,0.0,0.0,0.0,0.0,0.0,0.0,0.0,0.0,0.0,0.0,0.0,0.0,0.0,0.0,0.0,0.0,0.0,0.0,-0.7899,0.0,0.0,0.0,0.0,0.0,0.0,0.0,0.0,0.0,0.0,0.0,0.0,0.0,0.0,0.0,0.0,0.0,0.0,0.0,0.0,0.0,0.0,0.0,0.0,0.0,-2.3165,-2.5508,-2.9966,-3.2739,-3.36,-3.3914,-3.4024,-3.3985,-3.33,-3.0073,0.0,0.0,0.0,0.0,0.0,0.0,0.0,0.0,0.0,0.0,0.0,0.0,0.0,0.0,0.0,0.0,0.0,0.0,0.0,0.0,0.0,0.0,0.0,0.0,0.0,0.0,0.0,0.0,0.0,0.0,0.0,0.0,0.0,0.0,0.0,0.0,0.0,0.0,0.0,0.0,0.0,-2.3699,-2.9473,-3.0904,-3.2774,0.0,-3.6027,-3.5814,-3.8146,-3.857,-3.6246,-2.9002,0.0,0.0,0.0,0.0,0.0,0.0,0.0,0.0,0.0,0.0,0.0,0.0,0.0,0.0,0.0,0.0,0.0,0.0,0.0,0.0,0.0,0.0,0.0,0.0,0.0,-0.7899,-0.7899,0.0,-0.7899,0.0,0.0,0.0,0.0,0.0,0.0,0.0,0.0,0.0,0.0,0.0,0.0,0.0,0.0,0.0,0.0,0.0,0.0,0.0,0.0,0.0,0.0,0.0,0.0,-2.3667,-2.5544,-3.0667,-3.3864,-3.4884,-3.5384,-3.5578,-3.5462,-3.5145,-3.2463,0.0,0.0,0.0,0.0,0.0,0.0,0.0,0.0,0.0,0.0,0.0,0.0,0.0,0.0,0.0,0.0,0.0,0.0,0.0,0.0,0.0,0.0,0.0,0.0,0.0,0.0,0.0,0.0,-1.6683,-1.694,-1.5007,0.0,0.0,0.0,0.0,0.0,0.0,0.0,0.0,0.0,0.0,-2.8941,-3.279,-3.4155,0.0,0.0,-3.8588,-3.8348,-3.9819,-3.9172,-3.7156,-3.3223,-3.0336,0.0,0.0,0.0,0.0,0.0,0.0,0.0,0.0,0.0,0.0,0.0,0.0,0.0,0.0,0.0,0.0,0.0,0.0,0.0,0.0,0.0,0.0,0.0,0.0,0.0,0.0,0.0,0.0,0.0,0.0,0.0,0.0,0.0,0.0,0.0,0.0,0.0,0.0,0.0,0.0,0.0,0.0,0.0,0.0,0.0,0.0,0.0,0.0,0.0,0.0,0.0,0.0,-2.4277,-2.6081,-3.1617,-3.5009,-3.615,-3.6608,-3.6753,-3.6615,-3.6325,-3.4066,-2.9698,0.0,0.0,0.0,0.0,0.0,0.0,0.0,0.0,0.0,0.0,0.0,0.0,0.0,0.0,0.0,0.0,0.0,0.0,0.0,0.0,0.0,0.0,0.0,0.0,0.0,0.0,0.0,-1.7925,-1.7833,-1.5582,0.0,0.0,0.0,0.0,0.0,0.0,0.0,0.0,0.0,0.0,-3.2647,-3.5929,-3.6604,-3.76,-4.0134,-3.9375,-3.8898,-3.9973,-3.9565,-3.8392,-3.6219,0.0,0.0,0.0,0.0,0.0,0.0,0.0,0.0,0.0,0.0,0.0,0.0,0.0,0.0,0.0,0.0,0.0,0.0,0.0,0.0,0.0,0.0,0.0,0.0,0.0,0.0,0.0,-0.8119,0.0,0.0,-0.7913,0.0,0.0,0.0,0.0,0.0,0.0,0.0,0.0,0.0,0.0,0.0,0.0,0.0,0.0,0.0,0.0,0.0,0.0,0.0,0.0,0.0,0.0,-2.5046,-2.7387,-3.2918,-3.6154,-3.6935,-3.7255,-3.7356,-3.7319,-3.6347,-3.4397,-3.137,0.0,0.0,0.0,0.0,0.0,0.0,0.0,0.0,0.0,0.0,0.0,0.0,0.0,0.0,0.0,0.0,0.0,0.0,0.0,0.0,0.0,0.0,0.0,0.0,0.0,0.0,-1.1608,-1.3259,-1.4665,0.0,0.0,0.0,0.0,0.0,0.0,0.0,0.0,0.0,-2.7781,-3.0362,-3.343,-3.8484,-3.783,-3.784,-4.0261,-3.855,-3.7497,-3.9277,-4.0662,-4.0585,0.0,0.0,0.0,0.0,0.0,0.0,0.0,0.0,0.0,0.0,0.0,0.0,0.0,0.0,0.0,0.0,0.0,0.0,0.0,0.0,0.0,0.0,0.0,0.0,0.0,0.0,0.0,-1.2356,-1.1512,0.0,0.0,0.0,0.0,0.0,0.0,0.0,0.0,0.0,0.0,0.0,-2.453,-2.6381,0.0,0.0,0.0,0.0,0.0,0.0,0.0,0.0,0.0,0.0,0.0,0.0,-2.5941,-2.8342,-3.3879,-3.6851,-3.7017,-3.7238,-3.7376,-3.7376,-3.6861,-3.4957,-3.1489,0.0,0.0,0.0,-1.9957,0.0,0.0,0.0,0.0,0.0,0.0,0.0,0.0,0.0,0.0,0.0,0.0,0.0,0.0,0.0,0.0,0.0,0.0,0.0,0.0,0.0,-1.4519,0.0,0.0,0.0,0.0,0.0,0.0,0.0,0.0,0.0,0.0,-2.2083,-2.7386,-3.1047,-3.496,-3.8546,-4.1431,-4.1873,-4.2566,0.0,0.0,-4.3858,0.0,0.0,0.0,0.0,0.0,0.0,0.0,0.0,0.0,0.0,-3.9615,-3.8236,-2.9792,-2.8429,-2.8747,-2.9015,0.0,0.0,0.0,0.0,0.0,0.0,0.0,0.0,0.0,0.0,0.0,0.0,0.0,0.0,-1.6524,-1.5905,-1.528,0.0,0.0,0.0,0.0,0.0,0.0,0.0,0.0,-2.5087,-2.7609,-2.9758,-3.1517,-3.1494,-2.9989,-2.9038,-2.667,0.0,0.0,0.0,0.0,0.0,0.0,0.0,0.0,-2.7498,-3.0167,-3.4982,-3.7709,-3.8072,-3.8144,-3.8348,-3.8582,-3.8073,-3.6338,-3.3269,-3.2251,-3.0322,0.0,0.0,0.0,0.0,0.0,0.0,0.0,0.0,0.0,0.0,0.0,0.0,0.0,0.0,0.0,0.0,0.0,0.0,0.0,0.0,0.0,0.0,0.0,-1.6163,0.0,0.0,0.0,0.0,0.0,0.0,0.0,0.0,0.0,-2.0717,-2.7029,-3.2589,-3.5139,-3.9142,-4.2252,-4.3426,0.0,0.0,0.0,0.0,0.0,0.0,0.0,-4.1664,-4.3653,-4.1748,-4.0489,-4.2157,-4.5058,-4.6766,-4.5598,0.0,0.0,-3.7942,-3.6428,-3.668,-3.6973,-3.7204,-3.7719,-3.8951,-3.9217,-3.9819,0.0,0.0,0.0,0.0,-1.8128,0.0,0.0,0.0,-2.0085,-2.0481,0.0,-1.9445,0.0,0.0,0.0,0.0,-1.9243,-2.2021,0.0,0.0,-3.1683,-3.4331,-3.6119,-3.6193,-3.6303,-3.6266,-3.5339,-3.4236,-3.2594,-2.6371,-2.2665,0.0,0.0,0.0,0.0,0.0,-2.9762,-3.2945,-3.6255,-3.8662,-4.001,-3.9836,-4.0046,-4.0778,-3.9841,-3.8433,-3.6619,-3.4601,-3.2689,-3.0884,-2.5329,0.0,0.0,0.0,0.0,0.0,0.0,0.0,0.0,0.0,0.0,0.0,0.0,0.0,0.0,0.0,0.0,0.0,0.0,0.0,0.0,-1.7397,0.0,0.0,0.0,0.0,0.0,0.0,0.0,0.0,0.0,-3.0356,-2.7447,-3.1462,-3.5988,-3.995,0.0,0.0,0.0,0.0,-4.3852,-4.482,-4.2864,-4.1697,-4.2563,-4.4553,-4.6371,-4.7365,0.0,0.0,-4.8195,-4.9796,-5.0508,-4.7305,-5.0155,-5.1993,-4.9267,-4.6612,-4.5449,-4.6152,-4.5644,-4.5859,-4.7383,-4.8437,-4.9902,-2.5162,0.0,0.0,0.0,0.0,-2.2349,-2.385,-2.6568,-2.6015,-2.5386,-2.4707,-2.4194,0.0,0.0,0.0,0.0,0.0,0.0,-2.6975,-2.9647,-3.1819,-3.4037,-3.6303,-3.6872,-3.7147,-3.7158,-3.689,-3.6628,-3.6214,-3.3882,-2.9709,-2.3985,0.0,0.0,0.0,0.0,-3.2849,-3.4797,-3.7499,-3.9357,-4.0288,-3.9976,-4.0139,-4.0745,-4.0345,-3.959,-3.8528,-3.7843,-3.6043,-3.2855,-3.008,0.0,0.0,0.0,0.0,0.0,0.0,0.0,0.0,0.0,0.0,0.0,0.0,0.0,0.0,0.0,0.0,0.0,0.0,0.0,-1.4859,-1.8583,-2.0392,0.0,0.0,0.0,0.0,0.0,0.0,0.0,0.0,0.0,-3.6358,-3.9354,-4.1412,0.0,0.0,-4.6504,-4.4749,-4.5979,-4.7376,-4.8166,-4.8327,0.0,-4.9428,-4.8699,-4.8979,-5.1634,-5.3429,-5.4138,-5.3206,-5.4186,-5.4785,-5.373,-5.4638,-5.5196,-5.4459,-5.2783,-5.1562,-5.1719,-5.1582,-5.1562,-5.207,-5.2598,-5.3164,-2.944,-2.6575,-2.5105,-2.5603,-2.7281,-2.6983,-2.8634,-3.1448,-3.1064,-3.064,-3.0134,-2.9496,-2.7966,-2.5798,-2.5178,0.0,0.0,0.0,-3.0595,-3.2943,-3.4026,-3.5679,-3.7679,-3.823,-3.8615,-3.8891,-3.8579,-3.8688,-3.9113,-3.8534,-3.5485,-3.0211,0.0,-3.0077,-2.982,-3.3154,-3.5754,-3.7524,-3.9389,-4.0727,-4.1407,-4.1564,-4.1551,-4.139,-4.1345,-4.07,-3.946,-3.9367,-3.8156,-3.5537,-3.3077,-3.0898,0.0,0.0,0.0,0.0,0.0,0.0,0.0,0.0,0.0,0.0,0.0,-1.3387,-1.0374,0.0,0.0,0.0,-1.855,-2.0016,-2.0881,-2.3772,0.0,0.0,0.0,0.0,0.0,0.0,0.0,-3.2839,-3.6666,-4.0023,-4.2745,-4.5293,-4.6294,-4.4598,-4.721,-4.8627,-4.6853,0.0,-5.0314,-5.082,-5.1771,-5.2587,-5.2999,-5.2172,-5.2285,-5.4629,-5.5449,-5.5801,-5.582,-5.6269,-5.6601,-5.6621,-5.6621,-5.6621,-5.6621,-5.5723,-5.5039,-5.5039,-5.5039,-5.5039,-5.5039,-5.5039,-5.5195,-3.3102,-3.3071,-2.9644,-2.9457,-3.1316,-3.1614,-3.2929,-3.4834,-3.4997,-3.5522,-3.6156,-3.4688,-3.3605,-3.2816,-3.1341,0.0,-3.4003,-3.4073,-3.5314,-3.7601,-3.7668,-3.8487,-3.9955,-3.9974,-4.0377,-4.1075,-4.0359,-4.0423,-4.1206,-4.0831,-3.9919,-3.844,-3.6213,-3.5327,-3.5794,-3.6858,-3.8526,-4.0697,-4.1578,-4.2337,-4.3028,-4.3858,-4.3762,-4.2608,-4.2704,-4.1843,-3.9993,-3.9768,-3.9344,-3.8493,-3.4932,-3.2702,-3.2155,0.0,0.0,0.0,0.0,0.0,0.0,0.0,0.0,0.0,0.0,0.0,0.0,0.0,0.0,-2.1625,-2.7334,0.0,-3.1557,-3.1083,0.0,0.0,0.0,-2.7093,-3.0029,-3.2945,-3.5791,-3.8517,0.0,0.0,-4.6995,-4.9369,-5.0333,-4.8739,-4.9985,-5.0748,-4.9915,-5.1327,-5.2671,-5.2709,-5.3502,-5.408,-5.4099,-5.4627,-5.5371,-5.6269,-5.6621,-5.6562,-5.6562,-5.6582,-5.6601,-5.6621,-5.6621,-5.6621,-5.6621,-5.6523,-5.6601,-5.6523,-5.6543,-5.6562,-5.6484,-5.6465,-5.6445,-3.3322,-3.3339,-3.2442,-3.2616,-3.3455,-3.3773,-3.4458,-3.5426,-3.5672,-3.5948,-3.6266,-3.5881,-3.5587,-3.5404,-3.5018,-3.5165,-3.5717,-3.6329,-3.7253,-3.8419,-3.9048,-3.9863,-4.0799,-4.0836,-4.0928,-4.1093,-4.091,-4.091,-4.1158,-4.1157,-4.1078,-4.0924,-4.0521,-3.9515,-3.8064,-4.0103,-4.1411,-4.1886,-4.2117,-4.2575,-4.3219,-4.4036,-4.4308,-4.4015,-4.3645,-4.3056,-4.2209,-4.1196,-4.0404,-3.9737,-3.7746,-3.6611,-3.6589,-3.0079,0.0,0.0,0.0,0.0,0.0,0.0,0.0,0.0,0.0,-2.0796,-1.5451,0.0,-2.1054,0.0,-3.0848,-3.3346,-3.1042,-3.2396,0.0,0.0,-3.2116,-3.318,-4.0133,-3.9953,-4.0958,-4.5403,-4.6848,-4.7893,-4.9025,-5.0245,-5.0928,-5.0588,-5.2001,-5.2329,-5.0416,-5.2036,-5.3584,-5.3689,-5.4367,-5.4905,-5.4974,-5.5697,-5.6348,-5.6562,-5.6621,-5.6621,-5.6621,-5.6621,-5.6621,-5.6621,-5.6621,-5.6621,-5.666,-5.6621,-5.664,-5.6621,-5.6621,-5.6621,-5.6621,-5.6621,-5.6621,-3.4627,-3.4712,-3.4678,-3.499,-3.5457,-3.5063,-3.5489,-3.6496,-3.6761,-3.7051,-3.7367,-3.7367,-3.7367,-3.7404,-3.7734,-3.7911,-3.7959,-3.8756,-3.9342,-3.9794,-4.0221,-4.0873,-4.1644,-4.1644,-4.1827,-4.2176,-4.2176,-4.2209,-4.2327,-4.2451,-4.265,-4.2927,-4.3072,-4.2593,-4.1499,-4.2528,-4.2803,-4.224,-4.2994,-4.3577,-4.3839,-4.4289,-4.3887,-4.266,-4.3513,-4.3148,-4.1356,-4.1714,-4.1193,-3.9433,-3.8135,-3.7399,-3.7205,-3.3049,-3.1018,0.0,0.0,0.0,0.0,0.0,0.0,0.0,0.0,0.0,0.0,0.0,-2.5125,-2.7181,-3.3393,-3.6049,-3.3083,-3.5519,-3.7915,-3.9474,-3.8452,-3.9964,-4.5722,-4.51,-4.5462,-4.8614,-4.907,-4.9415,-5.0322,-5.1161,-5.1765,-5.1866,-5.3033,-5.324,-5.1766,-5.3066,-5.447,-5.4515,-5.5243,-5.5815,-5.5835,-5.6253,-5.6621,-5.6621,-5.6621,-5.6621,-5.6621,-5.6933,-5.7168,-5.7207,-5.748,-5.7754,-5.7754,-5.7754,-5.7754,-5.7754,-5.7754,-5.7461,-5.6777,-5.6621,-5.6621,-3.614,-3.6311,-3.6335,-3.6636,-3.6966,-3.5959,-3.6365,-3.7703,-3.7911,-3.8267,-3.8707,-3.8799,-3.8854,-3.8927,-3.9698,-4.0042,-4.0086,-4.0744,-4.1101,-4.1244,-4.1211,-4.1647,-4.2451,-4.2451,-4.2818,-4.3479,-4.3479,-4.3582,-4.3753,-4.3897,-4.4072,-4.4294,-4.4437,-4.4501,-4.4442,-4.4129,-4.3466,-4.2511,-4.39,-4.4578,-4.4373,-4.4401,-4.3221,-4.0896,-4.3118,-4.3007,-4.0111,-4.2014,-4.1924,-3.9199,-3.8136,-3.7419,-3.6963,-3.6557,-3.5453,0.0,-3.3766,0.0,0.0,0.0,0.0,0.0,0.0,0.0,0.0,-3.054,-3.0016,-2.9175,-3.5553,-3.8911,-3.7015,-3.9702,-4.2463,-4.4645,-4.5156,-4.6183,-4.8296,-4.8677,-4.9038,-4.9905,-5.002,-5.032,-5.1106,-5.189,-5.2399,-5.246,-5.316,-5.3402,-5.2914,-5.4044,-5.52,-5.5346,-5.6055,-5.6484,-5.6523,-5.6582,-5.6621,-5.6621,-5.6777,-5.6758,-5.6816,-5.75,-5.8066,-5.8125,-5.8613,-5.9101,-5.9199,-5.916,-5.916,-5.9082,-5.9062,-5.8633,-5.7422,-5.6933,-5.6777,-3.6259,-3.6318,-3.6539,-3.6689,-3.6794,-3.6805,-3.7308,-3.8171,-3.8433,-3.8627,-3.8744,-3.9386,-3.968,-3.9735,-4.0524,-4.0873,-4.0855,-4.075,-4.119,-4.2093,-4.1792,-4.2245,-4.324,-4.3259,-4.3351,-4.3479,-4.3479,-4.3532,-4.3566,-4.3753,-4.4003,-4.4296,-4.4449,-4.3882,-4.275,0.0,0.0,0.0,-4.4018,-4.3739,-4.37,-4.3848,-4.3691,-4.3147,-4.4096,0.0,-4.4002,-4.3586,-4.3215,-4.2763,-4.1979,0.0,-4.1342,0.0,0.0,0.0,0.0,0.0,-3.1267,0.0,0.0,0.0,-3.3623,-3.237,-3.1885,-3.4793,-3.6085,-3.4717,-3.8268,-4.1362,-4.2856,-4.4195,-4.5491,-4.6596,-4.7449,-4.8428,-4.956,-4.9746,-5.0122,-5.0996,-5.1104,-5.1152,-5.1308,-5.1525,-5.1628,-5.1716,-5.2395,-5.2846,-5.2715,-5.416,-5.5488,-5.6172,-5.6484,-5.6621,-5.6621,-5.6621,-5.6621,-5.668,-5.7226,-5.7598,-5.7715,-5.8359,-5.8926,-5.8965,-5.9101,-5.9258,-5.9258,-5.9199,-5.9316,-5.9219,-5.9238,-5.9101,-5.8769,-5.8144,-5.7656,-3.7189,-3.7421,-3.7154,-3.7458,0.0,-3.7829,-3.8052,-3.8501,-3.835,-3.8684,-3.9313,-3.9717,-4.012,-4.0543,-4.1332,-4.1713,-4.1695,-4.1931,-4.2322,-4.2886,-4.2722,-4.2937,-4.3479,-4.3479,-4.3479,-4.3479,-4.3618,-4.3649,-4.3749,-4.3947,-4.4184,-4.441,-4.4477,-4.4091,-4.3352,-4.429,-4.4865,-4.4919,-4.4411,-4.4084,-4.3992,-4.4077,-4.3523,-4.2322,-4.3863,0.0,0.0,0.0,0.0,0.0,0.0,0.0,0.0,-3.9315,-3.8587,-3.9766,-3.7683,-3.6753,-3.758,-3.6903,-3.7556,-4.0129,-3.9532,-3.8311,-3.658,-3.8852,-4.014,-3.9751,-4.1646,-4.3558,-4.5209,-4.6171,-4.719,-4.8417,-4.9066,-4.9734,-5.0521,-5.0722,-5.0918,-5.1283,-5.1394,-5.1387,-5.1387,-5.1387,-5.1387,-5.1411,-5.1777,-5.2246,-5.2773,-5.418,-5.5605,-5.6445,-5.6621,-5.6621,-5.6621,-5.6621,-5.6797,-5.7168,-5.7617,-5.8047,-5.8476,-5.9219,-5.9785,-5.9824,-6.0117,-6.043,-6.043,-6.0449,-6.043,-6.043,-6.043,-6.0449,-6.039,-5.9433,-5.8555,-3.8345,-3.8765,-3.8142,-3.851,-3.9449,-3.8846,-3.872,-3.8878,-3.8434,0.0,0.0,-4.0249,-4.0689,-4.1368,-4.2158,-4.2522,-4.2551,-4.3149,-4.3415,-4.3498,-4.3433,-4.3444,-4.3479,-4.3479,-4.3532,-4.3566,-4.3719,-4.3865,-4.4005,-4.4207,-4.4373,-4.4458,-4.4487,-4.4496,-4.4496,-4.4496,-4.4571,-4.4721,-4.4627,-4.4477,-4.4317,-4.4353,-4.3348,-4.121,-4.3555,-4.3843,-4.1774,-4.4153,-4.4568,-4.252,-4.2044,-4.1848,-4.1832,-4.12,-4.1777,-4.3737,-4.3341,-4.3258,-4.3879,-4.3218,-4.2974,-4.3538,-4.3728,-4.3152,-4.1563,-4.206,-4.2849,-4.386,-4.4599,-4.5424,-4.6434,-4.7348,-4.8427,-4.9867,-5.0217,-5.063,-5.1289,-5.1387,-5.1367,-5.1387,-5.1387,-5.1387,-5.1387,-5.1387,-5.1387,-5.1387,-5.1445,-5.1797,-5.2871,-5.4316,-5.5527,-5.6152,-5.6426,-5.6621,-5.6621,-5.6816,-5.7109,-5.7715,-5.8125,-5.8594,-5.9297,-6.0098,-6.0566,-6.0625,-6.125,-6.1562,-6.168,-6.1582,-6.1699,-6.1699,-6.1699,-6.1699,-6.1601,-6.0625,-5.9668,-3.9294,-3.9637,-3.9743,-3.9698,-3.9504,-3.9644,-3.9685,-3.9717,-3.9635,-4.0111,-4.0983,-4.1662,-4.2029,-4.2194,-4.2965,-4.3348,-4.3314,-4.3159,-4.3214,-4.3484,-4.3214,-4.3214,-4.3479,-4.3479,-4.36,-4.3771,-4.3804,-4.3883,-4.4005,-4.4207,-4.4314,-4.4344,-4.4458,-4.4496,-4.4496,-4.4496,-4.4515,-4.4533,-4.3952,-4.3678,-4.3643,-4.3815,-4.3757,-4.3434,-4.444,-4.4903,-4.4554,-4.5726,-4.6256,-4.593,-4.6606,-4.7048,-4.7006,-4.6291,-4.6206,-4.6513,-4.5944,-4.5638,-4.5695,-4.4928,-4.4161,-4.3555,-4.4161,-4.4217,-4.3335,-4.3283,-4.3976,-4.5531,-4.5823,-4.6521,-4.8125,-4.9077,-4.9701,-5.0033,-5.072,-5.1256,-5.1387,-5.1387,-5.1387,-5.1387,-5.1387,-5.1387,-5.1387,-5.1387,-5.1387,-5.1387,-5.1484,-5.1973,-5.3398,-5.4668,-5.5273,-5.5547,-5.6133,-5.6543,-5.6758,-5.7285,-5.7754,-5.7871,-5.9121,-5.9922,-6.0176,-6.0879,-6.1387,-6.1484,-6.1601,-6.168,-6.1699,-6.1699,-6.1699,-6.1699,-6.1699,-6.1699,-6.164,-6.125,-6.0918,-4.0459,-4.0887,-4.0619,-4.0688,-4.0982,-4.0712,-4.0799,-4.1185,-4.1203,-4.1405,-4.1754,-4.2139,-4.2543,-4.2965,-4.3332,-4.3479,-4.3479,-4.3339,-4.3339,-4.3479,-4.3321,-4.3375,-4.3497,-4.3479,-4.3618,-4.3786,-4.3883,-4.3992,-4.4195,-4.4325,-4.4401,-4.4401,-4.4468,-4.4496,-4.4496,-4.4496,-4.4496,-4.4496,-4.4205,-4.4045,-4.4041,-4.4127,-4.4178,-4.4159,-4.4575,-4.5054,-4.5578,-4.6136,-4.671,-4.728,-4.7799,-4.8106,-4.8067,-4.7468,-4.7076,-4.7061,-4.6033,-4.5775,-4.6648,-4.6773,-4.6422,-4.5623,-4.5939,-4.625,-4.626,-4.5415,-4.5434,-4.6679,-4.7164,-4.7969,-4.9271,-5.0189,-5.0704,-5.0747,-5.1177,-5.1375,-5.1387,-5.1387,-5.1387,-5.1387,-5.1387,-5.1387,-5.1387,-5.1387,-5.1387,-5.1426,-5.1758,-5.2441,-5.3242,-5.4473,-5.5488,-5.5976,-5.6719,-5.7226,-5.7344,-5.8047,-5.8711,-5.916,-5.9863,-6.0547,-6.0957,-6.1504,-6.166,-6.1699,-6.1699,-6.1699,-6.1699,-6.1699,-6.1699,-6.1699,-6.1705,-6.1569,-6.1146,-6.0637,-6.0435,-4.1582,-4.2086,-4.1486,-4.1626,-4.2231,-4.1644,-4.1735,-4.2304,-4.247,-4.258,-4.2561,-4.2561,-4.291,-4.3442,-4.3479,-4.3479,-4.3479,-4.3479,-4.3479,-4.3479,-4.3479,-4.3479,-4.3479,-4.3532,-4.3667,-4.3851,-4.3974,-4.4177,-4.4325,-4.4458,-4.4496,-4.4496,-4.4496,-4.4496,-4.4496,-4.4496,-4.4496,-4.4496,-4.4496,-4.4496,-4.4496,-4.4496,-4.4617,-4.4842,-4.4824,-4.5322,-4.629,-4.6736,-4.7305,-4.8125,-4.851,-4.8625,-4.841,-4.7774,-4.7386,-4.7254,-4.6108,-4.5958,-4.7369,-4.8095,-4.823,-4.7629,-4.762,-4.7872,-4.8293,-4.7406,-4.7067,-4.7884,-4.8563,-4.929,-5.0195,-5.0869,-5.1347,-5.1387,-5.1387,-5.1387,-5.1387,-5.1387,-5.1387,-5.1387,-5.1387,-5.1387,-5.1387,-5.1387,-5.1387,-5.1504,-5.2148,-5.2715,-5.3105,-5.4375,-5.5566,-5.6465,-5.7344,-5.7812,-5.7949,-5.8808,-5.9609,-6.0351,-6.0586,-6.0996,-6.1484,-6.168,-6.1699,-6.1699,-6.1699,-6.1699,-6.168,-6.1484,-6.1387,-6.1299,-6.11,-6.0797,-6.0188,-5.963,-5.9437,-4.2621,-4.2868,-4.2777,-4.2576,-4.2341,-4.2231,-4.2249,-4.2415,-4.3057,-4.3387,-4.3314,-4.3387,-4.3387,-4.3479,-4.3479,-4.3479,-4.3479,-4.3479,-4.3479,-4.3479,-4.3479,-4.3479,-4.3513,-4.3686,-4.3851,-4.3992,-4.4177,-4.4344,-4.4458,-4.4487,-4.4496,-4.4496,-4.4496,-4.4496,-4.4496,-4.4496,-4.4496,-4.4496,-4.4496,-4.4496,-4.4496,-4.4496,-4.4963,-4.5855,-4.5846,-4.6384,-4.7409,-4.8346,-4.8874,-4.9048,-4.9875,-5.0065,-4.937,-4.8667,-4.8256,-4.8222,-4.7456,-4.7416,-4.825,-4.8444,-4.8483,-4.8319,-4.8373,-4.8432,-4.8493,-4.8444,-4.8807,-4.9536,-4.9817,-5.0215,-5.1105,-5.1342,-5.1378,-5.1387,-5.1387,-5.1387,-5.1387,-5.1387,-5.1387,-5.1387,-5.1387,-5.1387,-5.1387,-5.1387,-5.1387,-5.1406,-5.2266,-5.3066,-5.3691,-5.4707,-5.5664,-5.6504,-5.7344,-5.7832,-5.8047,-5.9277,-6.0098,-6.0449,-6.1074,-6.1484,-6.168,-6.1699,-6.1699,-6.1699,-6.1601,-6.1582,-6.1426,-6.1119,-6.0525,-6.039,-5.9961,-5.9259,-5.9137,-5.8927,-5.9017,-4.3032,-4.3286,-4.3286,-4.3191,-4.302,-4.3002,-4.3002,-4.3039,-4.3351,-4.3479,-4.3479,-4.3479,-4.3479,-4.3479,-4.3479,-4.3479,-4.3479,-4.3479,-4.3479,-4.3479,-4.3479,-4.3479,-4.3532,-4.3686,-4.3883,-4.4005,-4.4226,-4.4373,-4.4487,-4.4496,-4.4496,-4.4496,-4.4496,-4.4496,-4.4496,-4.4496,-4.4496,-4.4496,-4.4496,-4.4777,-4.5308,-4.541,-4.5568,-4.6013,-4.6613,-4.7429,-4.834,-4.8479,-4.8913,-4.9875,-4.9621,-4.9415,-4.9475,-4.8358,-4.792,-4.8393,-4.8625,-4.8619,-4.8521,-4.934,-4.9618,-4.9087,-4.919,-4.9431,-4.9865,-4.964,-4.9845,-5.0575,-5.0315,-5.0391,-5.1245,-5.1396,-5.1393,-5.1387,-5.1387,-5.1387,-5.1387,-5.1387,-5.1387,-5.1387,-5.1387,-5.1387,-5.1387,-5.1387,-5.1387,-5.1582,-5.2539,-5.3574,-5.4043,-5.5156,-5.6133,-5.6601,-5.7344,-5.7832,-5.8047,-5.9297,-6.0176,-6.0527,-6.1133,-6.168,-6.164,-6.1699,-6.1699,-6.166,-6.123,-6.0958,-6.0879,-6.0223,-5.9562,-5.9366,-5.8849,-5.8168,-5.8175,-5.7761,-5.748,-4.325,-4.3479,-4.3479,-4.3444,-4.341,-4.3479,-4.3479,-4.3479,-4.3479,-4.3479,-4.3479,-4.3479,-4.3479,-4.3479,-4.3479,-4.3479,-4.3479,-4.3479,-4.3479,-4.3479,-4.3548,-4.3566,-4.36,-4.38,-4.3979,-4.4097,-4.4266,-4.4401,-4.4487,-4.4496,-4.4496,-4.4496,-4.4496,-4.4496,-4.4496,-4.4496,-4.4496,-4.4496,-4.4496,-4.5001,-4.5892,-4.6272,-4.6569,-4.6871,-4.74,-4.8181,-4.9143,-4.8506,-4.8701,-4.9942,-4.8984,-4.8522,-4.8792,-4.7798,-4.7592,-4.849,-4.9497,-4.9813,-4.9246,-5.024,-5.059,-4.9994,-5.0042,-5.0347,-5.077,-5.0591,-5.0683,-5.1206,-5.0777,-5.0723,-5.1242,-5.1393,-5.1394,-5.1387,-5.1387,-5.1387,-5.1387,-5.1387,-5.1387,-5.1387,-5.1387,-5.1387,-5.1387,-5.1406,-5.1465,-5.1914,-5.3047,-5.416,-5.4473,-5.5605,-5.6582,-5.6621,-5.7148,-5.7558,-5.793,-5.9023,-5.9922,-6.0254,-6.0723,-6.1152,-6.1172,-6.1113,-6.1055,-6.0566,-6.0254,-6.004,-5.9919,-5.9309,-5.847,-5.8192,-5.7755,-5.7308,-5.7256,-5.6693,-5.6447,-4.3497,-4.3461,-4.3479,-4.3375,-4.3251,-4.3428,-4.3479,-4.3479,-4.3479,-4.3479,-4.3479,-4.3479,-4.3479,-4.3479,-4.3479,-4.3479,-4.3479,-4.3479,-4.3513,-4.3548,-4.3667,-4.3771,-4.3804,-4.4104,-4.4304,-4.4285,-4.4383,-4.4487,-4.4496,-4.4496,-4.4496,-4.4496,-4.4496,-4.4496,-4.4496,-4.4496,-4.4496,-4.4496,-4.458,-4.5065,-4.6032,-4.7029,-4.798,-4.8668,-4.8354,-4.8529,-4.9221,-4.876,-4.8458,-4.8522,-4.838,-4.8056,-4.7431,-4.7287,-4.765,-4.8522,-5.0015,-5.0887,-5.081,-5.0898,-5.0908,-5.0825,-5.0811,-5.0928,-5.099,-5.1081,-5.1209,-5.1381,-5.1299,-5.1307,-5.1367,-5.1387,-5.1387,-5.1387,-5.1387,-5.1387,-5.1387,-5.1387,-5.1387,-5.1387,-5.1387,-5.1387,-5.1387,-5.1387,-5.1777,-5.2441,-5.3398,-5.4258,-5.5039,-5.5976,-5.6426,-5.6543,-5.6634,-5.6855,-5.7734,-5.8555,-5.9082,-5.9375,-5.9746,-6.0234,-5.9922,-5.9687,-5.9648,-5.9512,-5.9246,-5.905,-5.8895,-5.835,-5.7488,-5.7062,-5.6848,-5.6544,-5.6693,-5.6466,-5.6311,-4.1921,-4.2377,-4.2905,-4.316,-4.3214,-4.3268,-4.3375,-4.3479,-4.3479,-4.3479,-4.3479,-4.3479,-4.3479,-4.3479,-4.3479,-4.3479,-4.3479,-4.3479,-4.3579,-4.367,-4.3781,-4.3851,-4.3961,-4.4195,-4.4333,-4.4314,-4.443,-4.4496,-4.4496,-4.4496,-4.4496,-4.4496,-4.4496,-4.4496,-4.4496,-4.4496,-4.4496,-4.458,-4.5096,-4.5981,-4.701,-4.8037,-4.8828,-4.9336,-4.9661,-4.9464,-4.8803,-4.8566,-4.8438,-4.8418,-4.7459,-4.6981,-4.7231,-4.7772,-4.8216,-4.8681,-5.0099,-5.1004,-5.099,-5.0966,-5.0937,-5.0906,-5.1024,-5.1083,-5.1149,-5.1275,-5.1366,-5.1395,-5.1381,-5.1387,-5.1387,-5.1387,-5.1387,-5.1387,-5.1387,-5.1387,-5.1387,-5.1387,-5.1387,-5.1387,-5.1387,-5.1387,-5.1387,-5.1387,-5.1738,-5.2578,-5.3437,-5.4297,-5.5078,-5.5566,-5.5894,-5.6276,-5.6075,-5.5971,-5.6816,-5.7656,-5.8262,-5.8476,-5.8789,-5.9219,-5.9199,-5.914,-5.914,-5.884,-5.8506,-5.8143,-5.7988,-5.7548,-5.6712,-5.6544,-5.6311,-5.6311,-5.6311,-5.6311,-5.6311,-4.0981,-4.1632,-4.2248,-4.2701,-4.301,-4.3142,-4.3268,-4.3428,-4.3463,-4.3479,-4.3479,-4.3479,-4.3479,-4.3479,-4.3479,-4.3479,-4.3479,-4.3479,-4.3609,-4.3794,-4.386,-4.3929,-4.4116,-4.4285,-4.4373,-4.4373,-4.4458,-4.4496,-4.4496,-4.4496,-4.4496,-4.4496,-4.4496,-4.456,-4.4621,-4.4842,-4.5011,-4.5247,-4.6025,-4.701,-4.8037,-4.8723,-4.9124,-4.9307,-5.0243,-4.995,-4.8129,-4.8075,-4.7941,-4.7533,-4.657,-4.626,-4.6823,-4.795,-4.8591,-4.8755,-5.0144,-5.1069,-5.1069,-5.1029,-5.0986,-5.0975,-5.1092,-5.1189,-5.1203,-5.1314,-5.1372,-5.1386,-5.1387,-5.1387,-5.1387,-5.1387,-5.1387,-5.1387,-5.1387,-5.1387,-5.1387,-5.1387,-5.1387,-5.1387,-5.1387,-5.1387,-5.1387,-5.1387,-5.1816,-5.2598,-5.3457,-5.4258,-5.4707,-5.5098,-5.5179,-5.5569,-5.5403,-5.5456,-5.6003,-5.6729,-5.7251,-5.7485,-5.7989,-5.837,-5.8435,-5.8461,-5.8409,-5.8124,-5.78,-5.7373,-5.7004,-5.6622,-5.6447,-5.633,-5.6311,-5.6311,-5.6311,-5.6311,-5.6291,-4.089,-4.1359,-4.1614,-4.2168,-4.2673,-4.2992,-4.3178,-4.3232,-4.341,-4.3479,-4.3479,-4.3479,-4.3479,-4.3479,-4.3479,-4.3479,-4.3479,-4.3479,-4.3627,-4.3844,-4.3949,-4.4116,-4.4314,-4.443,-4.4487,-4.4487,-4.4515,-4.4515,-4.4524,-4.457,-4.4551,-4.4533,-4.4617,-4.4813,-4.4848,-4.5628,-4.61,-4.6402,-4.7148,-4.8041,-4.8958,-4.9171,-4.901,-4.8713,-4.9981,-4.9676,-4.7384,-4.7423,-4.7231,-4.6396,-4.6221,-4.6055,-4.6415,-4.763,-4.8543,-4.8813,-5.0192,-5.1047,-5.119,-5.119,-5.1173,-5.1147,-5.1224,-5.1275,-5.1244,-5.1327,-5.139,-5.1391,-5.1387,-5.1387,-5.1387,-5.1387,-5.1387,-5.1387,-5.1387,-5.1387,-5.1387,-5.1387,-5.1387,-5.1387,-5.1387,-5.1387,-5.1387,-5.1387,-5.1758,-5.2598,-5.334,-5.3906,-5.4082,-5.4492,-5.4609,-5.4392,-5.4536,-5.4932,-5.534,-5.576,-5.6149,-5.655,-5.7157,-5.7603,-5.7352,-5.7308,-5.7366,-5.7159,-5.7081,-5.6712,-5.6712,-5.6388,-5.6388,-5.6311,-5.6311,-5.6311,-5.6311,-5.6291,-5.6291,-4.0233,-4.0502,-4.1651,-4.2289,-4.2583,-4.2742,-4.2938,-4.3196,-4.3268,-4.3375,-4.3479,-4.3479,-4.3479,-4.3479,-4.3479,-4.3479,-4.3479,-4.3513,-4.3646,-4.3918,-4.3974,-4.4162,-4.4383,-4.4487,-4.4496,-4.4542,-4.4632,-4.4712,-4.4738,-4.4821,-4.4928,-4.4982,-4.5457,-4.5746,-4.5784,-4.6663,-4.7148,-4.73,-4.8152,-4.8811,-4.9154,-4.9832,-4.9643,-4.8655,-4.9475,-4.9098,-4.7456,-4.8421,-4.8338,-4.6998,-4.7464,-4.7531,-4.7162,-4.7406,-4.7989,-4.8619,-4.9687,-5.0639,-5.1125,-5.1241,-5.1267,-5.1259,-5.1316,-5.1353,-5.1334,-5.1378,-5.1387,-5.1387,-5.1387,-5.1387,-5.1387,-5.1387,-5.1387,-5.1387,-5.1387,-5.1387,-5.1387,-5.1387,-5.1387,-5.1387,-5.1387,-5.1387,-5.1387,-5.1387,-5.1738,-5.2441,-5.2949,-5.3262,-5.3711,-5.3548,-5.3638,-5.3763,-5.4109,-5.4427,-5.4893,-5.5534,-5.6155,-5.633,-5.6712,-5.7004,-5.6693,-5.6524,-5.6505,-5.6466,-5.635,-5.6291,-5.6291,-5.6278,-5.6265,-5.6278,-5.6278,-5.6278,-5.6291,-5.6278,-5.6246,-3.9667,-4.0045,-4.131,-4.2132,-4.2512,-4.2566,-4.2786,-4.3087,-4.316,-4.3304,-4.3497,-4.3479,-4.3479,-4.3479,-4.3479,-4.3479,-4.3479,-4.3479,-4.3682,-4.3955,-4.4004,-4.4184,-4.4496,-4.4578,-4.4605,-4.4659,-4.4815,-4.4914,-4.4919,-4.5033,-4.51,-4.5218,-4.5903,-4.6123,-4.6129,-4.7395,-4.8086,-4.8018,-4.9026,-4.9701,-4.9834,-5.0355,-4.9968,-4.879,-4.9479,-4.9238,-4.8083,-4.9454,-4.9582,-4.8153,-4.8075,-4.7842,-4.7376,-4.7639,-4.8213,-4.9066,-4.9951,-5.075,-5.1181,-5.1306,-5.1344,-5.1326,-5.1378,-5.1394,-5.1395,-5.1398,-5.1387,-5.1387,-5.1387,-5.1387,-5.1387,-5.1387,-5.1387,-5.1387,-5.1387,-5.1387,-5.1387,-5.1387,-5.1387,-5.1387,-5.1387,-5.1387,-5.1402,-5.1406,-5.1584,-5.2106,-5.2468,-5.2498,-5.2894,-5.2687,-5.2863,-5.3118,-5.3487,-5.3902,-5.4465,-5.5262,-5.6175,-5.6311,-5.6369,-5.6505,-5.6408,-5.6388,-5.6369,-5.6356,-5.6278,-5.6199,-5.6199,-5.6156,-5.6141,-5.619,-5.6204,-5.6175,-5.616,-5.616,-5.6121,-3.9218,-3.9893,-4.0699,-4.1484,-4.2144,-4.2364,-4.2619,-4.292,-4.3087,-4.3268,-4.3444,-4.3479,-4.3479,-4.3479,-4.3479,-4.3479,-4.3479,-4.3516,-4.3701,-4.3936,-4.4035,-4.4213,-4.4532,-4.4719,-4.4815,-4.4865,-4.5014,-4.5106,-4.5106,-4.5151,-4.5125,-4.5262,-4.5954,-4.6137,-4.6242,-4.7939,-4.869,-4.8702,-4.9798,-5.0433,-5.0548,-5.0568,-4.991,-4.8531,-4.9668,-4.9819,-4.8926,-5.0095,-5.0375,-4.8907,-4.8044,-4.7492,-4.7531,-4.8195,-4.8807,-4.964,-5.0697,-5.1084,-5.1273,-5.1362,-5.1386,-5.1384,-5.1387,-5.1387,-5.1387,-5.1387,-5.1387,-5.1387,-5.1387,-5.1387,-5.1387,-5.1387,-5.1387,-5.1387,-5.1387,-5.1387,-5.1387,-5.1387,-5.1387,-5.1387,-5.1387,-5.1391,-5.1385,-5.1394,-5.1406,-5.1499,-5.1993,-5.2008,-5.1832,-5.185,-5.1905,-5.2271,-5.2763,-5.3443,-5.4013,-5.4932,-5.5805,-5.6232,-5.6246,-5.6278,-5.6265,-5.6265,-5.6257,-5.6238,-5.6204,-5.6136,-5.6106,-5.6094,-5.6062,-5.6078,-5.6062,-5.6012,-5.6029,-5.6062,-5.604,-3.8892,-3.9153,-3.9911,-4.0695,-4.1362,-4.1489,-4.207,-4.2846,-4.2975,-4.3178,-4.3444,-4.3479,-4.3479,-4.3479,-4.3479,-4.3479,-4.3516,-4.366,-4.3793,-4.4005,-4.4165,-4.4411,-4.47,-4.4919,-4.5014,-4.5038,-4.5175,-4.526,-4.5281,-4.538,-4.5438,-4.5515,-4.6302,-4.6954,-4.7473,-4.7971,-4.899,-4.9779,-4.9663,-5.0086,-5.0491,-5.0104,-4.9382,-4.8593,-4.8938,-4.9026,-4.8782,-5.0289,-5.1066,-5.0433,-4.8405,-4.7658,-4.8172,-4.8077,-4.8369,-4.9232,-4.9992,-5.0761,-5.1249,-5.14,-5.1402,-5.1385,-5.1387,-5.1387,-5.1387,-5.1387,-5.1387,-5.1387,-5.1387,-5.1387,-5.1387,-5.1391,-5.1398,-5.1393,-5.1378,-5.139,-5.1394,-5.1387,-5.1387,-5.1387,-5.1387,-5.1387,-5.1385,-5.1389,-5.1344,-5.1307,-5.1425,-5.161,-5.1396,-5.1319,-5.1494,-5.1632,-5.2085,-5.2861,-5.3657,-5.4574,-5.5375,-5.5996,-5.6151,-5.6199,-5.6204,-5.6194,-5.6168,-5.614,-5.6098,-5.6046,-5.6046,-5.6029,-5.6012,-5.594,-5.5977,-5.594,-5.5995,-5.6012,-5.5973,-3.8808,-3.8841,-3.9611,-4.0146,-4.0613,-4.1049,-4.1674,-4.2393,-4.2868,-4.3196,-4.3444,-4.3479,-4.3479,-4.3479,-4.3479,-4.3534,-4.366,-4.3752,-4.3911,-4.4143,-4.4474,-4.4688,-4.487,-4.5042,-4.5175,-4.5197,-4.5361,-4.5419,-4.5457,-4.555,-4.5586,-4.5759,-4.6471,-4.6972,-4.6896,-4.7857,-4.8337,-4.899,-4.9183,-4.9548,-4.9548,-4.9581,-4.8894,-4.8333,-4.8535,-4.9181,-4.9753,-5.0697,-5.1047,-5.0445,-4.924,-4.8658,-4.9077,-4.8796,-4.8932,-4.9776,-5.0388,-5.0914,-5.1252,-5.1387,-5.1387,-5.1387,-5.1387,-5.1387,-5.1387,-5.1387,-5.1387,-5.1387,-5.1387,-5.1387,-5.1396,-5.1385,-5.14,-5.1361,-5.1338,-5.1338,-5.1358,-5.1359,-5.1367,-5.1366,-5.1349,-5.1342,-5.1314,-5.1319,-5.128,-5.1233,-5.1225,-5.128,-5.1222,-5.1183,-5.1159,-5.1315,-5.1629,-5.239,-5.316,-5.3998,-5.4777,-5.5417,-5.5885,-5.5936,-5.6087,-5.6078,-5.6089,-5.6056,-5.5998,-5.5979,-5.5959,-5.5923,-5.5847,-5.5827,-5.5866,-5.5885,-5.5885,-5.5885,-5.5846,-3.8686,-3.8743,-3.9363,-3.9709,-3.9932,-4.0759,-4.1212,-4.1724,-4.2432,-4.2993,-4.3243,-4.3332,-4.3351,-4.3479,-4.3479,-4.3605,-4.3789,-4.3802,-4.4055,-4.4411,-4.4795,-4.4991,-4.4948,-4.5218,-4.5341,-4.5361,-4.5532,-4.5568,-4.5568,-4.5586,-4.5586,-4.574,-4.6374,-4.6394,-4.6394,-4.7184,-4.7434,-4.7664,-4.8413,-4.872,-4.8545,-4.8745,-4.8361,-4.7705,-4.8671,-4.9807,-5.053,-5.1086,-5.0911,-5.0103,-5.0025,-4.9873,-4.9943,-4.9994,-5.0323,-5.087,-5.1074,-5.1308,-5.1387,-5.1387,-5.1387,-5.1387,-5.1387,-5.1387,-5.1387,-5.1387,-5.1387,-5.1387,-5.1387,-5.1396,-5.1385,-5.1377,-5.1338,-5.1299,-5.1241,-5.1241,-5.1249,-5.1287,-5.1297,-5.1296,-5.1291,-5.1265,-5.1219,-5.121,-5.1222,-5.1222,-5.1202,-5.119,-5.1152,-5.1093,-5.1056,-5.1067,-5.1474,-5.1973,-5.2685,-5.3401,-5.4116,-5.4796,-5.5322,-5.559,-5.5894,-5.5956,-5.5962,-5.5962,-5.5904,-5.5866,-5.5847,-5.5807,-5.5726,-5.5726,-5.5767,-5.5747,-5.5705,-5.5684,-5.5645,-3.7881,-3.79,-3.8042,-3.8528,-3.9153,-3.9446,-4.0095,-4.1012,-4.1229,-4.1878,-4.2417,-4.2561,-4.2928,-4.3442,-4.3424,-4.3624,-4.3802,-4.3957,-4.4231,-4.4711,-4.4957,-4.5132,-4.5199,-4.5419,-4.5513,-4.5531,-4.5568,-4.5586,-4.5586,-4.5586,-4.5586,-4.5663,-4.5836,-4.6123,-4.6546,-4.6278,-4.6818,-4.7548,-4.7662,-4.7792,-4.7976,-4.782,-4.7641,-4.7359,-4.8351,-4.9326,-5.02,-5.0891,-5.1125,-5.0872,-5.0398,-5.0111,-5.0118,-5.014,-5.0306,-5.0605,-5.1113,-5.1387,-5.1387,-5.1387,-5.1387,-5.1387,-5.1387,-5.1387,-5.1387,-5.1387,-5.1387,-5.1387,-5.1386,-5.1385,-5.1381,-5.1299,-5.126,-5.1241,-5.121,-5.1139,-5.1082,-5.1146,-5.1202,-5.1171,-5.1225,-5.1264,-5.1147,-5.1166,-5.1178,-5.119,-5.119,-5.1146,-5.1088,-5.1011,-5.0978,-5.0928,-5.1073,-5.1524,-5.2003,-5.2698,-5.3414,-5.4186,-5.4747,-5.5152,-5.5479,-5.5846,-5.5884,-5.5861,-5.5822,-5.5784,-5.5787,-5.5766,-5.5705,-5.5684,-5.5684,-5.564,-5.5618,-5.5551,-5.5461,-3.7667,-3.772,-3.7739,-3.806,-3.8624,-3.9061,-3.9638,-4.0279,-4.0748,-4.1232,-4.1739,-4.2103,-4.2543,-4.291,-4.303,-4.3284,-4.3888,-4.4248,-4.4572,-4.4924,-4.5135,-4.5281,-4.5438,-4.5531,-4.5586,-4.5586,-4.5586,-4.5586,-4.5586,-4.5586,-4.5586,-4.5586,-4.5586,-4.5834,-4.62,-4.5834,-4.6086,-4.6701,-4.6968,-4.7036,-4.6982,-4.7154,-4.7475,-4.7819,-4.8455,-4.9232,-5.0569,-5.1027,-5.126,-5.1197,-5.0886,-5.0646,-5.0657,-5.0683,-5.0703,-5.083,-5.1074,-5.1387,-5.1387,-5.1387,-5.1387,-5.1387,-5.1387,-5.1387,-5.1387,-5.1387,-5.1387,-5.1391,-5.1394,-5.1377,-5.1319,-5.126,-5.1222,-5.119,-5.1146,-5.1082,-5.1037,-5.1069,-5.1102,-5.1067,-5.1081,-5.1095,-5.1081,-5.1095,-5.1062,-5.1048,-5.1037,-5.1004,-5.0984,-5.0926,-5.0898,-5.0867,-5.0794,-5.0991,-5.1374,-5.1971,-5.2685,-5.3514,-5.4282,-5.4648,-5.4957,-5.538,-5.5801,-5.5761,-5.5742,-5.5722,-5.5724,-5.5684,-5.5684,-5.5682,-5.566,-5.5596,-5.5504,-5.5389,-5.5314,-3.7774,-3.7917,-3.7935,-3.8036,-3.8259,-3.901,-3.9385,-3.9597,-4.0368,-4.0639,-4.102,-4.1662,-4.186,-4.2151,-4.2249,-4.2913,-4.372,-4.4277,-4.455,-4.5063,-4.5203,-4.5381,-4.555,-4.5586,-4.5586,-4.5586,-4.5586,-4.5586,-4.5586,-4.5566,-4.5451,-4.5451,-4.5566,-4.5509,-4.547,-4.5566,-4.5682,-4.593,-4.6348,-4.6433,-4.6124,-4.6563,-4.7311,-4.8126,-4.8865,-4.9547,-5.0662,-5.1136,-5.1334,-5.1386,-5.1398,-5.139,-5.1388,-5.1387,-5.1387,-5.1367,-5.1367,-5.1387,-5.1387,-5.1387,-5.1387,-5.1387,-5.1387,-5.1387,-5.1387,-5.1387,-5.1387,-5.1382,-5.1396,-5.1338,-5.1222,-5.1202,-5.119,-5.1159,-5.1069,-5.1009,-5.0976,-5.0961,-5.0981,-5.0966,-5.0971,-5.099,-5.0971,-5.0952,-5.0921,-5.0906,-5.0898,-5.0894,-5.0874,-5.0844,-5.0816,-5.0784,-5.074,-5.0741,-5.1048,-5.1241,-5.1973,-5.2665,-5.3587,-5.4009,-5.4355,-5.4893,-5.5338,-5.5665,-5.5703,-5.5684,-5.5684,-5.5684,-5.5703,-5.5682,-5.5618,-5.5596,-5.5456,-5.5255,-5.5138,-3.7936,-3.8061,-3.8057,-3.818,-3.835,-3.8556,-3.8752,-3.8847,-3.9116,-3.9496,-4.0084,-4.0267,-4.0859,-4.1291,-4.1501,-4.2149,-4.3085,-4.3806,-4.4388,-4.5016,-4.5266,-4.5438,-4.5568,-4.5586,-4.5586,-4.5586,-4.5603,-4.5603,-4.5603,-4.5566,-4.5201,-4.4876,-4.5238,-4.5295,-4.5028,-4.5201,-4.5624,-4.5659,-4.5915,-4.5916,-4.6013,-4.6293,-4.6921,-4.7983,-4.9036,-4.9925,-5.0403,-5.1033,-5.1384,-5.1391,-5.1387,-5.1387,-5.1387,-5.1387,-5.1387,-5.1387,-5.1387,-5.1387,-5.1387,-5.1387,-5.1387,-5.1387,-5.1387,-5.1387,-5.1387,-5.1348,-5.123,-5.1258,-5.1241,-5.1241,-5.1222,-5.119,-5.1127,-5.1069,-5.1009,-5.0947,-5.0874,-5.0841,-5.0841,-5.0861,-5.0877,-5.089,-5.0874,-5.0858,-5.0841,-5.0861,-5.0858,-5.0839,-5.0822,-5.0791,-5.0777,-5.0759,-5.0702,-5.0683,-5.0779,-5.0856,-5.1222,-5.1799,-5.2568,-5.3241,-5.3703,-5.4336,-5.4816,-5.5203,-5.5549,-5.5684,-5.5684,-5.5684,-5.5684,-5.5703,-5.564,-5.5573,-5.5339,-5.513,-5.4924,-3.8042,-3.8256,-3.8277,-3.8396,-3.8517,-3.8541,-3.8627,-3.8707,-3.8707,-3.8909,-3.9344,-3.9792,-4.0204,-4.064,-4.0863,-4.1547,-4.261,-4.4009,-4.4689,-4.5206,-4.536,-4.5495,-4.5586,-4.5586,-4.5586,-4.5603,-4.5637,-4.5635,-4.5577,-4.5134,-4.4831,-4.466,-4.4884,-4.4823,-4.4778,-4.5336,-4.568,-4.5772,-4.5783,-4.5877,-4.6079,-4.646,-4.7284,-4.8268,-4.936,-5.0246,-5.0796,-5.1074,-5.1394,-5.1387,-5.1387,-5.1387,-5.1387,-5.1387,-5.1387,-5.1387,-5.1387,-5.1387,-5.1387,-5.1387,-5.1387,-5.1387,-5.1387,-5.1387,-5.1269,-5.1035,-5.0828,-5.0714,-5.0678,-5.0763,-5.1037,-5.1095,-5.1037,-5.0966,-5.0937,-5.0874,-5.0791,-5.0757,-5.0758,-5.0777,-5.0776,-5.0793,-5.0827,-5.081,-5.0793,-5.0793,-5.0812,-5.0794,-5.0739,-5.074,-5.0721,-5.0721,-5.0683,-5.0683,-5.0683,-5.0721,-5.0721,-5.1182,-5.1663,-5.2336,-5.2991,-5.3624,-5.4278,-5.4818,-5.5186,-5.5357,-5.5703,-5.5703,-5.5684,-5.564,-5.5485,-5.5314,-5.5203,-5.5028,-5.4809,-3.8194,-3.8434,-3.8437,-3.8546,-3.8676,-3.8707,-3.8707,-3.8707,-3.8707,-3.8707,-3.8799,-3.9436,-3.9815,-4.001,-4.0363,-4.1042,-4.221,-4.3821,-4.4423,-4.4993,-4.5163,-4.5336,-4.5566,-4.562,-4.562,-4.5654,-4.5726,-4.5638,-4.5314,-4.5102,-4.4669,-4.4453,-4.4448,-4.4689,-4.4851,-4.5461,-4.5772,-4.5915,-4.5928,-4.5992,-4.6326,-4.7084,-4.7996,-4.883,-4.9707,-5.0547,-5.1211,-5.1348,-5.1387,-5.1387,-5.1387,-5.1387,-5.1387,-5.1387,-5.1387,-5.1387,-5.1387,-5.1387,-5.1387,-5.1387,-5.1387,-5.1387,-5.1387,-5.1387,-5.1292,-5.0928,-5.0411,-5.0106,-5.0285,-5.0494,-5.094,-5.1009,-5.0952,-5.089,-5.0844,-5.0812,-5.0776,-5.074,-5.0721,-5.0702,-5.0683,-5.0721,-5.0758,-5.0758,-5.074,-5.074,-5.074,-5.074,-5.0702,-5.0721,-5.0702,-5.0702,-5.0683,-5.0683,-5.0683,-5.0683,-5.0663,-5.0736,-5.1101,-5.1581,-5.2237,-5.2873,-5.3509,-5.4045,-5.4434,-5.4664,-5.5164,-5.5621,-5.5596,-5.548,-5.5281,-5.5121,-5.499,-5.4844,-5.4654,-3.8501,-3.8645,-3.8676,-3.8676,-3.8707,-3.8707,-3.8707,-3.8689,-3.8707,-3.8707,-3.8719,-3.886,-3.9229,-3.96,-4.0012,-4.064,-4.1449,-4.2221,-4.3252,-4.4184,-4.4509,-4.4891,-4.543,-4.5668,-4.5533,-4.553,-4.5692,-4.533,-4.5012,-4.5298,-4.4873,-4.4186,-4.4912,-4.5428,-4.4892,-4.5568,-4.5873,-4.5922,-4.6003,-4.6104,-4.6337,-4.7129,-4.7988,-4.8789,-4.9648,-5.041,-5.1016,-5.1152,-5.1269,-5.1308,-5.1367,-5.1387,-5.1387,-5.1387,-5.1387,-5.1387,-5.1387,-5.1387,-5.1387,-5.1387,-5.1387,-5.1387,-5.1387,-5.1387,-5.1028,-5.0828,-5.0378,-5.0056,-5.0423,-5.0796,-5.0865,-5.0952,-5.089,-5.0844,-5.0793,-5.0758,-5.074,-5.074,-5.0702,-5.0683,-5.0683,-5.0683,-5.0721,-5.0702,-5.0683,-5.0683,-5.0683,-5.0683,-5.0683,-5.0683,-5.0683,-5.0683,-5.0683,-5.0683,-5.0683,-5.0683,-5.0604,-5.0521,-5.0692,-5.0958,-5.1459,-5.2056,-5.248,-5.3001,-5.3447,-5.4043,-5.4614,-5.5029,-5.5284,-5.5314,-5.513,-5.4962,-5.4765,-5.4629,-5.4519,-3.8206,-3.8707,-3.8707,-3.8707,-3.8707,-3.8707,-3.8768,-3.878,-3.8738,-3.878,-3.8921,-3.9064,-3.9331,-3.9804,-4.0499,-4.1112,-4.1551,-4.2047,-4.2746,-4.3489,-4.3968,-4.4254,-4.4306,-4.4739,-4.5005,-4.509,-4.5148,-4.5066,-4.486,-4.4937,-4.4769,-4.4521,-4.491,-4.5201,-4.5065,-4.5711,-4.6017,-4.6138,-4.6189,-4.6235,-4.6483,-4.709,-4.7793,-4.8203,-4.9023,-4.9609,-5.0019,-5.0547,-5.0703,-5.0801,-5.1055,-5.1387,-5.1387,-5.1387,-5.1387,-5.1387,-5.1387,-5.1387,-5.1387,-5.1387,-5.1387,-5.1387,-5.1288,-5.094,-5.0194,-4.9567,-4.9423,-4.9193,-4.9408,-4.9974,-5.0732,-5.0858,-5.0829,-5.0776,-5.0758,-5.0721,-5.0702,-5.0702,-5.0683,-5.0683,-5.0683,-5.0683,-5.0683,-5.0683,-5.0683,-5.0683,-5.0683,-5.0683,-5.0683,-5.0683,-5.0683,-5.0683,-5.0683,-5.0683,-5.0683,-5.0683,-5.0563,-5.0459,-5.0416,-5.0642,-5.0746,-5.1189,-5.1653,-5.2154,-5.2694,-5.3326,-5.4015,-5.4374,-5.4593,-5.4802,-5.5047,-5.4787,-5.4585,-5.4552,-5.4439,-3.7551,-3.8138,-3.8524,-3.8707,-3.8707,-3.8707,-3.878,-3.8881,-3.881,-3.8892,-3.9192,-3.9433,-3.9747,-4.0118,-4.0806,-4.1167,-4.1323,-4.2134,-4.2563,-4.2941,-4.3291,-4.3423,-4.3586,-4.3925,-4.4197,-4.4316,-4.44,-4.4569,-4.4803,-4.4879,-4.4948,-4.4938,-4.5286,-4.5343,-4.5514,-4.5877,-4.623,-4.6269,-4.6269,-4.6289,-4.6406,-4.6875,-4.7305,-4.7734,-4.8183,-4.8672,-4.8965,-4.9473,-4.9863,-4.998,-5.0293,-5.0625,-5.0918,-5.0957,-5.1152,-5.1269,-5.1387,-5.1387,-5.1387,-5.1387,-5.1387,-5.1328,-5.1004,-5.0382,-4.915,-4.8146,-4.7955,-4.8658,-4.9262,-4.9885,-5.0441,-5.0793,-5.0758,-5.074,-5.0702,-5.0683,-5.0683,-5.0683,-5.0683,-5.0683,-5.0683,-5.0683,-5.0683,-5.0683,-5.0683,-5.0683,-5.0683,-5.0683,-5.0683,-5.0683,-5.0683,-5.0683,-5.0683,-5.0683,-5.0683,-5.0643,-5.0542,-5.0393,-5.0325,-5.0293,-5.0361,-5.0514,-5.0887,-5.1408,-5.1896,-5.24,-5.292,-5.3391,-5.383,-5.4087,-5.4314,-5.4446,-5.4401,-5.4382,-5.4409,-3.6413,-3.6597,-3.8046,-3.8634,-3.867,-3.8707,-3.878,-3.8799,-3.8844,-3.9073,-3.9452,-3.9813,-4.0041,-4.0196,-4.0454,-4.0688,-4.063,-4.0662,-4.1254,-4.1732,-4.2005,-4.2495,-4.2806,-4.3129,-4.346,-4.3613,-4.38,-4.424,-4.4773,-4.5106,-4.5055,-4.5053,-4.5617,-4.6031,-4.6133,-4.6172,-4.6289,-4.6289,-4.6289,-4.6289,-4.6289,-4.6523,-4.6797,-4.7383,-4.7676,-4.8027,-4.8789,-4.8926,-4.8984,-4.9004,-4.9316,-4.9824,-5.0371,-5.0469,-5.0742,-5.125,-5.1387,-5.1387,-5.1387,-5.1387,-5.1387,-5.1172,-5.062,-4.9848,-4.9022,-4.9322,-4.9187,-4.8715,-4.9436,-5.0226,-5.064,-5.074,-5.0721,-5.0702,-5.0683,-5.0683,-5.0683,-5.0683,-5.0683,-5.0683,-5.0683,-5.0683,-5.0683,-5.0683,-5.0683,-5.0683,-5.0683,-5.0683,-5.0683,-5.0683,-5.0683,-5.0683,-5.0683,-5.0683,-5.0682,-5.0582,-5.0416,-5.0212,-5.0082,-4.9978,-4.99,-5.0098,-5.0366,-5.0404,-5.081,-5.1318,-5.1784,-5.221,-5.2684,-5.3259,-5.3666,-5.4137,-5.4373,-5.4405,-5.4409,-3.5514,-3.5624,-3.6762,-3.7496,-3.801,-3.8487,-3.8534,-3.8405,-3.8699,-3.92,-3.9679,-4.0041,-4.0269,-4.0356,-4.0406,-4.0489,-4.0489,-4.0489,-4.0754,-4.1097,-4.1551,-4.1764,-4.2047,-4.2383,-4.2873,-4.3345,-4.3588,-4.4072,-4.4908,-4.5304,-4.5297,-4.5453,-4.5918,-4.6172,-4.6289,-4.6289,-4.6289,-4.6289,-4.6289,-4.6289,-4.6289,-4.6289,-4.6465,-4.6719,-4.6797,-4.6933,-4.7305,-4.7832,-4.8008,-4.8203,-4.8574,-4.9219,-4.9844,-5.0,-5.0449,-5.1133,-5.125,-5.1308,-5.1308,-5.1348,-5.1387,-5.107,-5.0182,-4.9264,-4.9108,-4.8819,-4.8827,-4.8995,-4.9666,-5.0293,-5.0682,-5.0721,-5.0683,-5.0683,-5.0683,-5.0683,-5.0683,-5.0683,-5.0683,-5.0683,-5.0683,-5.0683,-5.0683,-5.0683,-5.0683,-5.0683,-5.0683,-5.0683,-5.0683,-5.0683,-5.0663,-5.0643,-5.0643,-5.0563,-5.0521,-5.0393,-5.0259,-5.0063,-4.9862,-4.975,-4.9711,-4.9797,-4.9976,-4.9862,-4.9872,-5.0459,-5.0892,-5.1085,-5.1789,-5.2956,-5.3677,-5.4194,-5.4315,-5.4409,-5.4409,-3.4679,-3.4816,-3.5607,-3.6434,-3.7224,-3.7794,-3.7895,-3.7764,-3.8404,-3.9208,-3.9963,-4.0251,-4.0427,-4.0473,-4.0489,-4.0489,-4.0489,-4.0489,-4.0489,-4.075,-4.1046,-4.1131,-4.1119,-4.1385,-4.2061,-4.2801,-4.3255,-4.3673,-4.4518,-4.5462,-4.5625,-4.5683,-4.5937,-4.623,-4.6289,-4.6289,-4.6289,-4.6289,-4.6289,-4.6289,-4.6289,-4.6289,-4.6289,-4.6367,-4.6387,-4.6387,-4.6562,-4.6933,-4.7129,-4.7324,-4.7715,-4.8437,-4.9023,-4.9531,-4.9863,-5.0409,-5.0878,-5.1014,-5.0984,-5.0988,-5.1103,-5.1062,-4.9683,-4.9318,-4.9181,-4.8595,-4.8845,-4.9321,-4.9714,-5.0085,-5.0683,-5.0683,-5.0683,-5.0683,-5.0683,-5.0683,-5.0683,-5.0683,-5.0683,-5.0683,-5.0683,-5.0683,-5.0683,-5.0683,-5.0664,-5.0683,-5.0683,-5.0683,-5.0683,-5.0663,-5.0643,-5.0623,-5.0563,-5.0478,-5.0367,-5.0207,-5.0038,-4.9933,-4.975,-4.9653,-4.9642,-4.9711,-4.9711,-4.9682,-4.9728,-4.9849,-5.0459,-5.1293,-5.2183,-5.3128,-5.3733,-5.4296,-5.4334,-5.4409,-5.4409,-3.3942,-3.4127,-3.4895,-3.5707,-3.6436,-3.6565,-3.6745,-3.7044,-3.793,-3.8999,-4.0042,-4.0351,-4.0473,-4.0489,-4.0489,-4.0489,-4.0504,-4.0504,-4.05,-4.0607,-4.0775,-4.0733,-4.0822,-4.1056,-4.1461,-4.1362,-4.2127,-4.3086,-4.3855,-4.464,-4.5273,-4.5898,-4.6094,-4.6289,-4.6289,-4.6289,-4.6289,-4.6289,-4.6289,-4.6289,-4.6289,-4.6289,-4.6289,-4.6289,-4.6289,-4.625,-4.6308,-4.6367,-4.6526,-4.6592,-4.6608,-4.7188,-4.7858,-4.7996,-4.835,-4.8926,-4.9781,-5.009,-5.0012,-5.0111,-5.052,-5.0916,-4.9672,-4.9238,-4.956,-4.9457,-4.9324,-4.9774,-5.0162,-5.0491,-5.0683,-5.0683,-5.0683,-5.0683,-5.0683,-5.0683,-5.0683,-5.0683,-5.0683,-5.0683,-5.0683,-5.0683,-5.0702,-5.0682,-5.0644,-5.0644,-5.0683,-5.0663,-5.0623,-5.0563,-5.05,-5.0478,-5.0393,-5.0278,-5.0158,-4.9952,-4.9835,-4.975,-4.9663,-4.9582,-4.9539,-4.9582,-4.9551,-4.9509,-4.9596,-4.9739,-5.0723,-5.1799,-5.2569,-5.3264,-5.3902,-5.4371,-5.439,-5.4409,-5.4409,-3.3815,-3.3905,-3.4242,-3.4641,-3.5125,-3.6291,-3.6552,-3.643,-3.7411,-3.8517,-3.9446,-4.0134,-4.0489,-4.0489,-4.0489,-4.0489,-4.0523,-4.0545,-4.0574,-4.059,-4.0694,-4.0776,-4.0843,-4.0953,-4.1267,-4.1839,-4.2401,-4.2838,-4.3741,-4.4141,-4.4648,-4.5293,-4.5879,-4.6289,-4.6289,-4.6289,-4.6289,-4.6289,-4.6289,-4.6289,-4.6289,-4.6289,-4.6289,-4.6269,-4.621,-4.6206,-4.6127,-4.6117,-4.6193,-4.6192,-4.619,-4.658,-4.7229,-4.7435,-4.7591,-4.8059,-4.8762,-4.9469,-4.9691,-4.9962,-5.0244,-5.0361,-5.0072,-4.9563,-5.025,-4.9789,-4.9851,-5.0142,-5.0452,-5.0683,-5.0683,-5.0683,-5.0683,-5.0683,-5.0683,-5.0683,-5.0683,-5.0683,-5.0683,-5.0683,-5.0683,-5.0584,-5.0542,-5.0459,-5.0421,-5.0385,-5.0385,-5.0371,-5.0317,-5.0298,-5.025,-5.0231,-5.0182,-5.0082,-4.9944,-4.9807,-4.9711,-4.9623,-4.9593,-4.9521,-4.9509,-4.9509,-4.9509,-4.9509,-4.9565,-4.9715,-5.071,-5.1705,-5.2606,-5.3357,-5.4033,-5.439,-5.4409,-5.4409,-5.4409,-3.3895,-3.3947,-3.4099,-3.4227,-3.4558,-3.5619,-3.602,-3.6178,-3.7007,-3.7852,-3.8725,-3.965,-4.0065,-4.0123,-4.0354,-4.0508,-4.0543,-4.0579,-4.0604,-4.0645,-4.0765,-4.0843,-4.0904,-4.1014,-4.1247,-4.1935,-4.2338,-4.2754,-4.3183,-4.3555,-4.4238,-4.4961,-4.5273,-4.5683,-4.5976,-4.6289,-4.6289,-4.6289,-4.6289,-4.6289,-4.6289,-4.625,-4.6133,-4.598,-4.5949,-4.6052,-4.5904,-4.5947,-4.6124,-4.6102,-4.6216,-4.6363,-4.6814,-4.6949,-4.6951,-4.7183,-4.7689,-4.8657,-4.944,-4.9661,-5.0061,-5.0717,-5.0059,-5.0059,-5.0526,-5.0257,-5.0278,-5.051,-5.0664,-5.0683,-5.0683,-5.0683,-5.0683,-5.0683,-5.0683,-5.0683,-5.0664,-5.0664,-5.0642,-5.0642,-5.05,-5.0393,-5.0348,-5.0221,-5.0135,-5.0126,-5.0092,-5.0076,-5.0073,-5.0062,-5.0024,-5.0005,-4.9978,-4.989,-4.9807,-4.9663,-4.9593,-4.9521,-4.9509,-4.9509,-4.9509,-4.9509,-4.9509,-4.9509,-4.9546,-4.979,-5.0598,-5.1536,-5.27,-5.3564,-5.4183,-5.4409,-5.4409,-5.4409,-5.4409,-3.4074,-3.4221,-3.4358,-3.4524,-3.4752,-3.4824,-3.542,-3.6403,-3.6534,-3.7095,-3.8027,-3.8873,-3.9238,-3.9392,-4.0004,-4.0235,-4.0327,-4.0361,-4.0486,-4.0643,-4.0751,-4.0846,-4.0953,-4.1053,-4.1224,-4.1455,-4.1816,-4.2246,-4.2519,-4.332,-4.416,-4.4414,-4.4238,-4.4805,-4.5488,-4.5957,-4.6074,-4.623,-4.6074,-4.6133,-4.6211,-4.6269,-4.5984,-4.5781,-4.5724,-4.5638,-4.555,-4.559,-4.5822,-4.5929,-4.5979,-4.594,-4.5916,-4.5886,-4.5899,-4.6131,-4.6704,-4.78,-4.8929,-4.9084,-4.974,-5.0317,-5.0045,-5.0142,-5.0394,-5.0587,-5.0587,-5.0606,-5.0683,-5.0683,-5.0683,-5.0683,-5.0683,-5.0683,-5.0683,-5.0664,-5.0625,-5.0604,-5.0538,-5.0451,-5.025,-5.0133,-5.0108,-5.0019,-4.9903,-4.9857,-4.9838,-4.989,-4.9863,-4.9929,-4.9863,-4.9778,-4.975,-4.9711,-4.9623,-4.9563,-4.9551,-4.9509,-4.9509,-4.9509,-4.9509,-4.9509,-4.9509,-4.9509,-4.9509,-4.9959,-5.0973,-5.2006,-5.3076,-5.3808,-5.4334,-5.4409,-5.4409,-5.4409,-5.4409,-3.4074,-3.4203,-3.4458,-3.4609,-3.4694,-3.4963,-3.5376,-3.582,-3.6334,-3.6863,-3.7123,-3.7988,-3.8354,-3.8411,-3.8662,-3.8845,-3.9162,-3.947,-3.9785,-4.016,-4.0723,-4.0927,-4.1053,-4.1081,-4.1136,-4.123,-4.1504,-4.1875,-4.2461,-4.3242,-4.3223,-4.3105,-4.3398,-4.4004,-4.4531,-4.5058,-4.5527,-4.5859,-4.5586,-4.5859,-4.6033,-4.6086,-4.5815,-4.5749,-4.5327,-4.5278,-4.5491,-4.5248,-4.5462,-4.5786,-4.5823,-4.5838,-4.5819,-4.5872,-4.5912,-4.5899,-4.6158,-4.659,-4.7675,-4.8777,-4.9529,-4.9894,-5.0009,-5.0433,-5.0645,-5.0683,-5.0683,-5.0683,-5.0683,-5.0683,-5.0683,-5.0683,-5.0664,-5.0644,-5.0625,-5.0567,-5.0527,-5.0402,-5.0348,-5.019,-5.0003,-4.9925,-4.9917,-4.9778,-4.9683,-4.9625,-4.9604,-4.9657,-4.9713,-4.9766,-4.9757,-4.9671,-4.9623,-4.9612,-4.9582,-4.9521,-4.9521,-4.9509,-4.9509,-4.9509,-4.9509,-4.9509,-4.9509,-4.9509,-4.9509,-5.0353,-5.1555,-5.2325,-5.2644,-5.3789,-5.4371,-5.439,-5.4409,-5.4409,-5.4409,-3.3714,-3.396,-3.4459,-3.4773,-3.4926,-3.5226,-3.5436,-3.5589,-3.6031,-3.6224,-3.6334,-3.7151,-3.7536,-3.7656,-3.8026,-3.8469,-3.8954,-3.9457,-3.9869,-4.0479,-4.0688,-4.0956,-4.1092,-4.1136,-4.116,-4.1191,-4.125,-4.1484,-4.2031,-4.2344,-4.2402,-4.2578,-4.2832,-4.3144,-4.3516,-4.3633,-4.3828,-4.4433,-4.4902,-4.5426,-4.5618,-4.5549,-4.5346,-4.5454,-4.4885,-4.5129,-4.5364,-4.4974,-4.5401,-4.5712,-4.577,-4.5753,-4.5742,-4.575,-4.5781,-4.5765,-4.5777,-4.6213,-4.7082,-4.7796,-4.8606,-4.9317,-4.9856,-5.026,-5.0567,-5.0683,-5.0683,-5.0683,-5.0683,-5.0683,-5.0683,-5.0683,-5.0625,-5.0567,-5.0528,-5.0489,-5.0344,-5.021,-5.0069,-4.9919,-4.9811,-4.9778,-4.9682,-4.9551,-4.949,-4.9532,-4.9532,-4.957,-4.9577,-4.9589,-4.9619,-4.9551,-4.9551,-4.9521,-4.9509,-4.9509,-4.9509,-4.9509,-4.9509,-4.9509,-4.9509,-4.9509,-4.9509,-4.9509,-4.9509,-5.0429,-5.1335,-5.1442,-5.1818,-5.3113,-5.4165,-5.4127,-5.4202,-5.4409,-5.4409,-3.3116,-3.352,-3.4452,-3.5037,-3.5293,-3.5432,-3.5507,-3.5507,-3.5578,-3.5526,-3.5732,-3.6369,-3.6735,-3.6889,-3.7365,-3.8061,-3.8439,-3.8883,-3.9466,-4.0742,-4.0721,-4.087,-4.1109,-4.1172,-4.1191,-4.1191,-4.1211,-4.1269,-4.123,-4.1523,-4.1914,-4.2246,-4.1719,-4.1973,-4.2812,-4.2148,-4.2216,-4.2727,-4.36,-4.4325,-4.4904,-4.4525,-4.391,-4.4399,-4.451,-4.4647,-4.4766,-4.5105,-4.5669,-4.569,-4.5699,-4.5661,-4.5622,-4.562,-4.562,-4.562,-4.562,-4.5948,-4.6469,-4.7067,-4.7817,-4.8567,-4.926,-4.9721,-5.0048,-5.0587,-5.0664,-5.0683,-5.0683,-5.0624,-5.0604,-5.0565,-5.0526,-5.0425,-5.0363,-5.0252,-5.0106,-4.9974,-4.9807,-4.9683,-4.9695,-4.9653,-4.9593,-4.9509,-4.9509,-4.9509,-4.9509,-4.9509,-4.9509,-4.9509,-4.9509,-4.9509,-4.9509,-4.9509,-4.9509,-4.9509,-4.9509,-4.9509,-4.9509,-4.9509,-4.9509,-4.9509,-4.9509,-4.9509,-4.9527,-5.0097,-5.0753,-5.096,-5.1616,-5.299,-5.3793,-5.3789,-5.3958,-5.4315,-5.4409,-3.2676,-3.3658,-3.4729,-3.5293,-3.5432,-3.5493,-3.5534,-3.5566,-3.5566,-3.5579,-3.5636,-3.5803,-3.5978,-3.6207,-3.6416,-3.688,-3.7088,-3.8006,-3.8355,-3.9277,-3.9902,-4.0625,-4.1055,-4.1133,-4.1191,-4.1191,-4.1191,-4.1164,-4.1153,-4.1191,-4.123,-4.1406,-4.1047,-4.141,-4.1864,-4.1058,-4.1101,-4.1377,-4.2033,-4.2695,-4.3028,-4.4564,-4.5066,-4.4365,-4.3962,-4.4288,-4.4421,-4.4595,-4.5137,-4.5464,-4.5603,-4.5605,-4.5603,-4.5586,-4.5586,-4.5586,-4.5586,-4.5778,-4.6028,-4.6471,-4.7144,-4.7548,-4.8144,-4.8875,-4.9548,-5.026,-5.0644,-5.0644,-5.0606,-5.0507,-5.0483,-5.0442,-5.038,-5.0252,-5.0159,-5.0025,-4.9871,-4.9721,-4.9582,-4.9551,-4.9551,-4.9551,-4.949,-4.9509,-4.9509,-4.9509,-4.9509,-4.9509,-4.9509,-4.9509,-4.9509,-4.9509,-4.9509,-4.9509,-4.9509,-4.9509,-4.9509,-4.9509,-4.9509,-4.9509,-4.9509,-4.9509,-4.9527,-4.9509,-4.964,-5.0202,-5.0638,-5.0834,-5.1678,-5.296,-5.3447,-5.3481,-5.3909,-5.4303,-5.4375,-3.1784,-3.2726,-3.4186,-3.4841,-3.4993,-3.5361,-3.5586,-3.5591,-3.5608,-3.5628,-3.5674,-3.57,-3.5732,-3.5797,-3.5862,-3.6158,-3.6378,-3.6999,-3.7906,-3.8652,-3.9336,-4.0059,-4.0566,-4.1035,-4.1172,-4.1191,-4.1172,-4.1133,-4.1115,-4.1113,-4.1113,-4.0984,-4.0799,-4.063,-4.0798,-4.0622,-4.0343,-4.0364,-4.0808,-4.1139,-4.1325,-4.253,-4.3786,-4.3106,-4.3303,-4.3601,-4.3971,-4.4083,-4.4595,-4.5084,-4.5336,-4.5566,-4.5586,-4.5586,-4.5586,-4.5586,-4.5586,-4.5586,-4.574,-4.6028,-4.651,-4.6876,-4.7164,-4.7952,-4.9125,-4.9798,-5.0009,-4.9989,-4.9872,-4.9771,-5.0033,-5.0065,-4.9988,-4.9885,-4.9917,-4.9871,-4.9721,-4.9593,-4.9521,-4.9521,-4.9521,-4.9521,-4.9509,-4.9509,-4.9509,-4.9509,-4.9509,-4.9509,-4.9509,-4.9546,-4.9527,-4.959,-4.9615,-4.9534,-4.9509,-4.9509,-4.9509,-4.9509,-4.9553,-4.9546,-4.9565,-4.9546,-4.9546,-4.9851,-5.016,-5.0426,-5.0781,-5.0987,-5.1569,-5.2695,-5.3065,-5.3192,-5.3714,-5.4233,-5.4233,-3.0884,-3.1565,-3.3286,-3.4039,-3.418,-3.5046,-3.5423,-3.5434,-3.5577,-3.5697,-3.5805,-3.5805,-3.5858,-3.5911,-3.5987,-3.6547,-3.6855,-3.6797,-3.7519,-3.8359,-3.9238,-3.9746,-4.0254,-4.0762,-4.1049,-4.1174,-4.1114,-4.1115,-4.1105,-4.1086,-4.1003,-4.0815,-4.0487,-4.0113,-4.0281,-4.0011,-3.9622,-3.9746,-4.0075,-4.0439,-4.04,-4.0304,-4.159,-4.2194,-4.2431,-4.2374,-4.2953,-4.3684,-4.4126,-4.4664,-4.5163,-4.547,-4.5586,-4.5586,-4.5586,-4.5586,-4.5586,-4.5568,-4.5569,-4.5609,-4.6032,-4.6377,-4.6607,-4.7242,-4.8356,-4.8777,-4.8987,-4.9158,-4.9018,-4.9029,-4.9305,-4.9577,-4.9461,-4.9519,-4.9599,-4.9721,-4.9612,-4.9509,-4.9509,-4.9509,-4.949,-4.949,-4.949,-4.949,-4.9509,-4.9509,-4.9527,-4.9509,-4.9527,-4.9553,-4.959,-4.9739,-4.9865,-4.9763,-4.9571,-4.9727,-4.9808,-4.9789,-4.9883,-4.9709,-4.9684,-4.98,-5.0131,-5.0668,-5.0949,-5.1003,-5.1098,-5.1285,-5.1974,-5.2661,-5.2716,-5.2994,-5.3609,-5.4,-5.3999,-3.0519,-3.1569,-3.2763,-3.3238,-3.3368,-3.424,-3.464,-3.4759,-3.5418,-3.5757,-3.5842,-3.5877,-3.591,-3.5991,-3.6001,-3.625,-3.6367,-3.6387,-3.6816,-3.7559,-3.8457,-3.918,-3.9941,-4.0665,-4.1067,-4.1078,-4.1013,-4.1117,-4.107,-4.1027,-4.0971,-4.0875,-4.069,-4.0207,-3.9642,-3.9399,-3.9232,-3.9273,-3.949,-3.9903,-4.0404,-4.0558,-4.1024,-4.1758,-4.2527,-4.2066,-4.2181,-4.3294,-4.3989,-4.4568,-4.501,-4.5374,-4.5509,-4.5528,-4.5586,-4.555,-4.555,-4.5476,-4.5438,-4.5381,-4.5706,-4.5609,-4.58,-4.6084,-4.6808,-4.7013,-4.7354,-4.7903,-4.7857,-4.78,-4.8074,-4.8567,-4.8662,-4.8975,-4.9111,-4.9412,-4.9521,-4.9478,-4.9446,-4.9478,-4.9459,-4.9459,-4.9427,-4.9478,-4.9546,-4.9584,-4.9646,-4.9634,-4.9827,-4.9752,-4.9765,-4.9978,-5.0235,-4.9865,-4.964,-5.0146,-5.0299,-5.0258,-5.0249,-5.0252,-5.0277,-5.0256,-5.0636,-5.1232,-5.1398,-5.1454,-5.1584,-5.1841,-5.2268,-5.2804,-5.2604,-5.281,-5.346,-5.3813,-5.3776]}]]